[[{"header":{"parameterUnit":"m.s-1","parameterCategory":1,"la1":30.6,"la2":29.2853,"lo1":-89.7004,"lo2":-87.6739,"dy":0.0162,"dx":0.0183,"nx":112,"ny":82,"refTime":"2024-04-26T12:00:00:Z","depth":0,"parameterNumber":2,"parameterNumberName":"U-component_of_WINDS"},"data":[0.0,0.0,0.0,0.0,0.0,0.0,0.0,0.0,0.0,0.0,0.0,0.0,0.0,0.0,0.0,0.0,0.0,0.0,0.0,0.0,0.0,0.0,0.0,0.0,0.0,0.0,0.0,0.0,0.0,0.0,0.0,0.0,0.0,0.0,0.0,0.0,0.0,0.0,0.0,0.0,0.0,0.0,0.0,0.0,0.0,0.0,0.0,0.0,0.0,0.0,0.0,0.0,0.0,0.0,0.0,0.0,0.0,0.0,0.0,0.0,0.0,0.0,0.0,0.0,0.0,0.0,0.0,0.0,0.0,0.0,0.0,0.0,0.0,0.0,0.0,0.0,0.0,0.0,0.0,0.0,0.0,0.0,0.0,0.0,0.0,0.0,0.0,0.0,0.0,0.0,-5.0898,-5.0898,-5.0898,-5.0898,-5.0898,-5.0998,-5.1103,-5.118,0.0,0.0,0.0,0.0,0.0,0.0,0.0,0.0,0.0,0.0,0.0,0.0,0.0,0.0,0.0,0.0,0.0,0.0,0.0,0.0,0.0,0.0,0.0,0.0,0.0,0.0,0.0,0.0,0.0,0.0,0.0,0.0,0.0,0.0,0.0,0.0,0.0,0.0,0.0,0.0,0.0,0.0,0.0,0.0,0.0,0.0,0.0,0.0,0.0,0.0,0.0,0.0,0.0,0.0,0.0,0.0,0.0,0.0,0.0,0.0,0.0,0.0,0.0,0.0,0.0,0.0,0.0,0.0,0.0,0.0,0.0,0.0,0.0,0.0,0.0,0.0,0.0,0.0,0.0,0.0,0.0,0.0,0.0,0.0,0.0,0.0,0.0,0.0,0.0,0.0,0.0,0.0,0.0,0.0,0.0,0.0,0.0,0.0,0.0,0.0,0.0,0.0,0.0,0.0,-5.0898,-5.0898,-5.0898,-5.0898,-5.0898,-5.0929,-5.1018,-5.1198,0.0,0.0,0.0,0.0,0.0,0.0,0.0,0.0,0.0,0.0,0.0,0.0,0.0,0.0,0.0,0.0,0.0,0.0,0.0,0.0,0.0,0.0,0.0,0.0,0.0,0.0,0.0,0.0,0.0,0.0,0.0,0.0,0.0,0.0,0.0,0.0,0.0,0.0,0.0,0.0,0.0,0.0,0.0,0.0,0.0,0.0,0.0,0.0,0.0,0.0,0.0,0.0,0.0,0.0,0.0,0.0,0.0,0.0,0.0,0.0,0.0,0.0,0.0,0.0,0.0,0.0,0.0,0.0,0.0,0.0,0.0,0.0,0.0,0.0,0.0,0.0,0.0,0.0,0.0,0.0,0.0,0.0,0.0,0.0,0.0,0.0,0.0,0.0,0.0,0.0,0.0,0.0,0.0,0.0,0.0,0.0,0.0,0.0,0.0,0.0,0.0,0.0,0.0,-5.0898,-5.0898,-5.0898,-5.0898,-5.0898,-5.0898,-5.0898,-5.0984,-5.118,-5.1223,0.0,0.0,0.0,0.0,0.0,0.0,0.0,0.0,0.0,0.0,0.0,0.0,0.0,0.0,0.0,0.0,0.0,0.0,0.0,0.0,0.0,0.0,0.0,0.0,0.0,0.0,0.0,0.0,0.0,0.0,0.0,0.0,0.0,0.0,0.0,0.0,0.0,0.0,0.0,0.0,0.0,0.0,0.0,0.0,0.0,0.0,0.0,0.0,0.0,0.0,0.0,0.0,0.0,0.0,0.0,0.0,0.0,0.0,0.0,0.0,0.0,0.0,0.0,0.0,0.0,0.0,0.0,0.0,0.0,0.0,0.0,0.0,0.0,0.0,0.0,0.0,0.0,0.0,0.0,0.0,0.0,0.0,0.0,0.0,0.0,0.0,0.0,0.0,0.0,0.0,0.0,0.0,0.0,0.0,0.0,0.0,0.0,0.0,0.0,0.0,0.0,0.0,-5.0882,-5.0898,-5.0898,-5.0898,-5.0898,-5.0898,-5.0898,-5.0963,-5.1137,-5.1176,0.0,0.0,0.0,0.0,0.0,0.0,0.0,0.0,0.0,0.0,0.0,0.0,0.0,0.0,0.0,0.0,0.0,0.0,0.0,0.0,0.0,0.0,0.0,0.0,0.0,0.0,0.0,0.0,0.0,0.0,0.0,0.0,0.0,0.0,0.0,0.0,0.0,0.0,0.0,0.0,0.0,0.0,0.0,0.0,0.0,0.0,0.0,0.0,0.0,0.0,0.0,0.0,0.0,0.0,0.0,0.0,0.0,0.0,0.0,0.0,0.0,0.0,0.0,0.0,0.0,0.0,0.0,0.0,0.0,0.0,0.0,0.0,0.0,0.0,0.0,0.0,0.0,0.0,0.0,0.0,0.0,0.0,0.0,0.0,0.0,0.0,0.0,0.0,0.0,0.0,0.0,0.0,0.0,0.0,0.0,0.0,0.0,0.0,0.0,0.0,0.0,0.0,-5.0825,-5.0898,-5.0898,-5.0898,-5.0898,-5.0898,-5.0898,-5.0925,-5.101,-5.1122,0.0,0.0,0.0,0.0,0.0,0.0,0.0,0.0,0.0,0.0,0.0,0.0,0.0,0.0,0.0,0.0,0.0,0.0,0.0,0.0,0.0,0.0,0.0,0.0,0.0,0.0,0.0,0.0,0.0,0.0,0.0,0.0,0.0,0.0,0.0,0.0,0.0,0.0,0.0,0.0,0.0,0.0,0.0,0.0,0.0,0.0,0.0,0.0,0.0,0.0,0.0,0.0,0.0,0.0,0.0,0.0,0.0,0.0,0.0,0.0,0.0,0.0,0.0,0.0,0.0,0.0,0.0,0.0,0.0,0.0,0.0,0.0,0.0,0.0,0.0,0.0,0.0,0.0,0.0,0.0,0.0,0.0,0.0,0.0,0.0,0.0,0.0,0.0,0.0,0.0,0.0,0.0,0.0,0.0,0.0,0.0,0.0,0.0,0.0,0.0,0.0,0.0,-5.0747,-5.0808,-5.089,-5.0898,-5.0898,-5.0898,-5.0898,-5.0937,-5.0997,0.0,0.0,0.0,0.0,0.0,0.0,0.0,0.0,0.0,0.0,0.0,0.0,0.0,0.0,0.0,0.0,0.0,0.0,0.0,0.0,0.0,0.0,0.0,0.0,0.0,0.0,0.0,0.0,0.0,0.0,0.0,0.0,0.0,0.0,0.0,0.0,0.0,0.0,0.0,0.0,0.0,0.0,0.0,0.0,0.0,0.0,0.0,0.0,0.0,0.0,0.0,0.0,0.0,0.0,0.0,0.0,0.0,0.0,0.0,0.0,0.0,0.0,0.0,0.0,0.0,0.0,0.0,0.0,0.0,0.0,0.0,0.0,0.0,0.0,0.0,0.0,0.0,0.0,0.0,0.0,0.0,0.0,0.0,0.0,0.0,0.0,0.0,0.0,0.0,0.0,0.0,0.0,0.0,0.0,0.0,0.0,0.0,0.0,0.0,0.0,0.0,0.0,-5.0516,-5.0576,-5.0663,-5.0825,-5.0841,-5.0858,-5.0898,-5.0898,-5.0921,-5.0981,0.0,0.0,0.0,0.0,0.0,0.0,0.0,0.0,0.0,0.0,0.0,0.0,0.0,0.0,0.0,0.0,0.0,0.0,0.0,0.0,0.0,0.0,0.0,0.0,0.0,0.0,0.0,0.0,0.0,0.0,0.0,0.0,0.0,0.0,0.0,0.0,0.0,0.0,0.0,0.0,0.0,0.0,0.0,0.0,0.0,0.0,0.0,0.0,0.0,0.0,0.0,0.0,0.0,0.0,0.0,0.0,0.0,0.0,0.0,0.0,0.0,0.0,0.0,0.0,0.0,0.0,0.0,0.0,0.0,0.0,0.0,0.0,0.0,0.0,0.0,0.0,0.0,0.0,0.0,0.0,0.0,0.0,0.0,0.0,0.0,0.0,0.0,0.0,0.0,0.0,0.0,0.0,0.0,0.0,0.0,0.0,0.0,0.0,0.0,0.0,0.0,0.0,-5.0188,-5.0313,-5.0467,-5.0682,-5.0692,-5.0756,-5.0882,-5.0898,-5.0898,0.0,0.0,0.0,0.0,0.0,0.0,0.0,0.0,0.0,0.0,0.0,0.0,0.0,0.0,0.0,0.0,0.0,0.0,0.0,0.0,0.0,0.0,0.0,0.0,0.0,0.0,0.0,0.0,0.0,0.0,0.0,0.0,0.0,0.0,0.0,0.0,0.0,0.0,0.0,0.0,0.0,0.0,0.0,0.0,0.0,0.0,0.0,0.0,0.0,0.0,0.0,0.0,0.0,0.0,0.0,0.0,0.0,0.0,0.0,0.0,0.0,0.0,0.0,0.0,0.0,0.0,0.0,0.0,0.0,0.0,0.0,0.0,0.0,0.0,0.0,0.0,0.0,0.0,0.0,0.0,0.0,0.0,0.0,0.0,0.0,0.0,0.0,0.0,0.0,0.0,0.0,0.0,0.0,0.0,0.0,0.0,0.0,0.0,0.0,0.0,0.0,0.0,0.0,-4.9836,-4.9962,-5.0116,-5.0339,-5.0425,-5.0498,-5.0538,-5.0682,-5.0764,-5.0764,0.0,0.0,0.0,0.0,0.0,0.0,0.0,0.0,0.0,0.0,0.0,0.0,0.0,0.0,0.0,0.0,0.0,0.0,0.0,0.0,0.0,0.0,0.0,0.0,0.0,0.0,0.0,0.0,0.0,0.0,0.0,0.0,0.0,0.0,0.0,0.0,0.0,0.0,0.0,0.0,0.0,0.0,0.0,0.0,0.0,0.0,0.0,0.0,0.0,0.0,0.0,0.0,0.0,0.0,0.0,0.0,0.0,0.0,0.0,0.0,0.0,0.0,0.0,0.0,0.0,0.0,0.0,0.0,0.0,0.0,0.0,0.0,0.0,0.0,0.0,0.0,0.0,0.0,0.0,0.0,0.0,0.0,0.0,0.0,0.0,0.0,0.0,0.0,0.0,0.0,0.0,0.0,0.0,0.0,0.0,0.0,0.0,0.0,0.0,0.0,0.0,0.0,-4.9554,-4.9655,-4.9776,-4.9987,-5.0123,-5.023,-5.0309,-5.0486,-5.0586,-5.0586,0.0,0.0,0.0,0.0,0.0,0.0,0.0,0.0,0.0,0.0,0.0,0.0,0.0,0.0,0.0,0.0,0.0,0.0,0.0,0.0,0.0,0.0,0.0,0.0,0.0,0.0,0.0,0.0,0.0,0.0,0.0,0.0,0.0,0.0,0.0,0.0,0.0,0.0,0.0,0.0,0.0,0.0,0.0,0.0,0.0,0.0,0.0,0.0,0.0,0.0,0.0,0.0,0.0,0.0,0.0,0.0,0.0,0.0,0.0,0.0,0.0,0.0,0.0,0.0,0.0,0.0,0.0,0.0,0.0,0.0,0.0,0.0,0.0,0.0,0.0,0.0,0.0,0.0,0.0,0.0,0.0,0.0,0.0,0.0,0.0,0.0,0.0,0.0,0.0,0.0,0.0,0.0,0.0,0.0,0.0,0.0,0.0,0.0,0.0,0.0,0.0,0.0,-4.9352,-4.9368,-4.9457,-4.9627,-4.9762,-4.9936,-5.0111,-5.0264,-5.0342,-5.0342,0.0,0.0,0.0,0.0,0.0,0.0,0.0,0.0,0.0,0.0,0.0,0.0,0.0,0.0,0.0,0.0,0.0,0.0,0.0,0.0,0.0,0.0,0.0,0.0,0.0,0.0,0.0,0.0,0.0,0.0,0.0,0.0,0.0,0.0,0.0,0.0,0.0,0.0,0.0,0.0,0.0,0.0,0.0,0.0,0.0,0.0,0.0,0.0,0.0,0.0,0.0,0.0,0.0,0.0,0.0,0.0,0.0,0.0,0.0,0.0,-4.9364,-5.029,0.0,0.0,0.0,0.0,0.0,0.0,0.0,0.0,0.0,0.0,0.0,0.0,0.0,0.0,0.0,0.0,0.0,0.0,0.0,0.0,0.0,0.0,0.0,0.0,0.0,0.0,0.0,0.0,0.0,0.0,0.0,0.0,0.0,0.0,0.0,0.0,0.0,0.0,0.0,0.0,-4.901,-4.9127,-4.926,-4.9305,-4.9427,-4.9514,-4.9573,-4.9844,-5.0012,-5.0012,-5.0252,0.0,0.0,0.0,0.0,0.0,0.0,0.0,0.0,0.0,0.0,0.0,0.0,0.0,0.0,0.0,0.0,0.0,0.0,0.0,0.0,0.0,0.0,0.0,0.0,0.0,0.0,0.0,0.0,0.0,0.0,0.0,0.0,0.0,0.0,0.0,0.0,0.0,0.0,0.0,0.0,0.0,0.0,0.0,0.0,0.0,0.0,0.0,0.0,0.0,0.0,0.0,0.0,0.0,0.0,0.0,0.0,0.0,0.0,0.0,-4.8512,-4.9132,0.0,0.0,0.0,0.0,0.0,0.0,0.0,0.0,0.0,0.0,0.0,0.0,0.0,0.0,0.0,0.0,0.0,0.0,0.0,0.0,0.0,0.0,0.0,0.0,0.0,0.0,0.0,0.0,0.0,0.0,0.0,0.0,0.0,0.0,0.0,0.0,0.0,0.0,0.0,0.0,-4.8909,-4.8995,-4.9062,-4.9062,-4.9193,-4.9289,-4.9289,-4.9171,-4.9084,-4.9084,-4.8876,0.0,0.0,0.0,0.0,0.0,0.0,0.0,0.0,0.0,0.0,0.0,0.0,0.0,0.0,0.0,0.0,0.0,0.0,0.0,0.0,0.0,0.0,0.0,0.0,0.0,0.0,0.0,0.0,0.0,0.0,0.0,0.0,0.0,0.0,0.0,0.0,0.0,0.0,0.0,0.0,0.0,0.0,0.0,0.0,0.0,0.0,0.0,0.0,0.0,0.0,0.0,0.0,0.0,-4.731,-4.7099,-4.7203,-4.6628,-4.6352,-4.6451,-4.796,-4.807,-4.7226,-4.7613,0.0,0.0,0.0,0.0,0.0,0.0,0.0,0.0,0.0,0.0,0.0,0.0,0.0,0.0,0.0,0.0,0.0,0.0,0.0,0.0,0.0,0.0,-4.6882,-4.6882,-4.6882,-4.695,-4.723,0.0,0.0,0.0,0.0,0.0,0.0,0.0,0.0,0.0,0.0,0.0,-4.875,-4.8785,-4.8803,-4.8803,-4.901,-4.9146,-4.9146,-4.8524,-4.8183,-4.8183,-4.7425,-4.7038,0.0,0.0,0.0,0.0,0.0,0.0,0.0,0.0,0.0,0.0,0.0,0.0,0.0,0.0,0.0,0.0,0.0,0.0,0.0,0.0,0.0,0.0,0.0,0.0,0.0,0.0,0.0,0.0,0.0,0.0,0.0,0.0,-4.9001,-4.9001,0.0,0.0,0.0,0.0,0.0,0.0,0.0,0.0,0.0,0.0,0.0,0.0,0.0,-4.7403,-4.7403,-4.6595,-4.6253,-4.6374,-4.5565,-4.5248,-4.5367,-4.54,-4.5385,-4.5402,-4.5753,0.0,-4.6369,-4.6425,0.0,0.0,0.0,0.0,0.0,0.0,0.0,0.0,0.0,0.0,0.0,0.0,0.0,0.0,0.0,0.0,0.0,0.0,0.0,0.0,0.0,0.0,-4.5649,-4.5649,-4.5649,-4.5709,-4.5995,-4.6873,-4.7611,-4.7695,-4.7895,-4.8132,0.0,0.0,0.0,0.0,0.0,0.0,-4.8151,-4.8326,-4.8458,-4.8458,-4.8767,-4.8943,-4.8943,-4.8383,-4.8031,-4.8031,-4.7384,-4.7003,-4.7028,-4.7032,0.0,0.0,0.0,0.0,0.0,0.0,0.0,0.0,0.0,0.0,0.0,0.0,0.0,0.0,0.0,0.0,0.0,0.0,0.0,0.0,0.0,0.0,0.0,0.0,0.0,0.0,0.0,0.0,0.0,-4.9001,-4.9001,-4.9001,-4.9001,-4.8849,0.0,0.0,0.0,0.0,0.0,0.0,0.0,0.0,0.0,-4.6408,-4.6,-4.5779,-4.5779,-4.5382,-4.5241,-4.5363,-4.4984,-4.4886,-4.5005,-4.5059,-4.5086,-4.5086,-4.514,-4.5336,-4.5632,-4.5727,-4.5862,-4.6045,0.0,0.0,0.0,0.0,-4.6045,-4.5992,-4.5562,-4.5446,-4.5376,-4.4992,0.0,0.0,0.0,0.0,0.0,0.0,0.0,-4.4572,-4.4572,-4.4358,-4.4147,-4.4147,-4.4147,-4.4216,-4.4308,-4.4852,-4.5708,-4.7064,-4.7539,-4.7829,-4.8132,-4.8172,0.0,0.0,0.0,-4.8132,-4.8012,-4.8093,-4.8172,-4.8172,-4.8307,-4.8383,-4.8383,-4.7316,-4.6721,-4.6877,-4.5753,-4.5158,-4.5316,-4.5233,-4.5214,0.0,0.0,0.0,0.0,0.0,0.0,0.0,0.0,0.0,0.0,0.0,0.0,0.0,0.0,0.0,0.0,0.0,0.0,0.0,0.0,0.0,0.0,0.0,0.0,0.0,0.0,0.0,0.0,-4.845,-4.8498,-4.8688,-4.8394,-4.8107,0.0,0.0,0.0,0.0,0.0,0.0,-4.6244,-4.572,-4.5415,-4.5415,-4.4902,-4.4699,-4.4874,-4.4874,-4.5043,-4.5326,-4.5111,-4.5065,-4.5158,-4.5026,-4.4951,-4.4951,-4.4978,-4.5059,-4.5167,-4.5274,-4.5371,-4.5397,-4.5397,-4.5397,-4.5397,-4.5397,-4.5397,-4.5311,-4.4768,-4.4578,-4.4475,-4.3949,-4.3638,-4.3448,-4.3258,0.0,0.0,0.0,0.0,-4.3189,-4.3189,-4.3189,-4.3189,-4.3189,-4.3189,-4.3189,-4.3189,-4.3377,-4.4043,-4.582,-4.6405,-4.669,-4.7011,-4.7132,0.0,-4.7445,-4.7522,-4.7613,-4.7731,-4.7829,-4.787,-4.787,-4.7951,-4.7992,-4.7992,-4.6533,-4.5698,-4.5902,-4.4395,-4.3597,-4.3779,-4.3695,-4.366,-4.3691,0.0,0.0,0.0,0.0,0.0,0.0,0.0,0.0,0.0,0.0,0.0,0.0,0.0,0.0,0.0,0.0,0.0,0.0,0.0,0.0,0.0,0.0,0.0,0.0,0.0,0.0,0.0,0.0,0.0,-4.7852,-4.6782,0.0,0.0,0.0,0.0,-4.5747,-4.5771,-4.5449,-4.475,-4.4682,-4.4666,-4.4666,-4.4632,-4.4953,-4.5652,-4.5652,-4.5991,-4.6697,-4.5974,-4.5652,-4.5647,-4.506,-4.4803,-4.4803,-4.4923,-4.5005,-4.5005,-4.515,-4.5274,-4.5397,-4.5397,-4.5397,-4.5397,-4.5397,-4.5397,-4.5397,-4.5363,-4.5328,-4.5328,-4.5294,-4.482,-4.4121,-4.3414,-4.3189,0.0,0.0,-4.3189,-4.3189,-4.3189,-4.3189,-4.3189,-4.3189,-4.3189,-4.3189,-4.3189,-4.3377,-4.3554,-4.3672,-4.3904,-4.4188,-4.4511,0.0,-4.5207,-4.59,-4.6218,-4.6563,-4.7004,-4.7338,-4.7533,-4.7533,-4.7809,-4.7992,-4.7992,-4.6533,-4.5603,-4.5622,-4.4108,-4.3214,-4.3232,-4.3232,-4.3303,-4.3423,-4.3404,0.0,0.0,0.0,0.0,0.0,0.0,0.0,0.0,0.0,0.0,0.0,0.0,0.0,0.0,0.0,0.0,0.0,0.0,0.0,0.0,0.0,0.0,0.0,0.0,0.0,0.0,0.0,0.0,-4.6301,-4.5633,0.0,-4.5169,-4.4732,-4.4423,-4.4333,-4.4348,-4.4399,-4.4582,-4.4582,-4.4582,-4.4582,-4.4582,-4.4962,-4.5704,-4.5227,-4.5592,-4.6786,-4.6049,-4.5704,-4.5687,-4.5013,-4.4484,-4.4012,-4.3561,-4.3718,-4.4231,-4.4288,-4.468,-4.5274,-4.5371,-4.5397,-4.5397,-4.5397,-4.5397,-4.5328,-4.4854,-4.4682,-4.4613,-4.413,-4.381,-4.3534,-4.3276,-4.3189,-4.3086,-4.2568,-4.243,-4.2327,-4.1843,-4.1723,-4.1723,-4.1723,-4.1723,-4.1723,-4.1723,-4.1778,-4.1832,-4.1832,-4.2952,-4.3944,-4.4064,-4.4155,-4.4306,-4.4572,-4.4845,-4.5058,-4.5227,-4.5485,-4.5817,-4.6337,-4.6521,-4.6805,-4.7327,-4.5885,-4.505,-4.5273,-4.3769,-4.2976,-4.3178,-4.2995,-4.2902,-4.2958,-4.277,-4.2808,0.0,0.0,0.0,0.0,0.0,0.0,0.0,0.0,0.0,0.0,0.0,0.0,0.0,0.0,0.0,0.0,0.0,0.0,0.0,0.0,0.0,0.0,0.0,0.0,0.0,-4.4835,-4.4649,-4.4689,-4.3984,-4.3642,-4.3929,-4.3492,-4.3427,-4.3913,-4.3929,-4.4139,-4.4575,-4.4607,-4.4607,-4.4607,-4.4607,-4.4935,-4.5682,-4.5211,-4.5604,-4.6808,-4.6037,-4.5699,-4.5666,-4.4976,-4.4264,-4.3573,-4.3072,-4.3075,-4.3363,-4.3439,-4.3823,-4.4468,-4.5042,-4.5274,-4.5327,-4.5327,-4.5371,-4.5328,-4.4785,-4.4595,-4.4475,-4.3683,-4.3459,-4.3391,-4.3183,-4.3097,-4.2994,-4.2526,-4.2413,-4.2292,-4.1809,-4.1481,-4.1274,-4.1274,-4.1084,-4.0912,-4.0912,-4.0912,-4.0912,-4.0912,-4.1974,-4.2888,-4.2888,-4.294,-4.3074,-4.3337,-4.3615,-4.388,-4.4127,-4.4276,-4.4605,-4.5245,-4.5299,-4.5641,-4.6516,-4.5374,-4.4693,-4.4926,-4.3686,-4.294,-4.2899,-4.2691,-4.2573,-4.2573,-4.2391,-4.2391,-4.2573,0.0,0.0,0.0,0.0,0.0,0.0,0.0,0.0,0.0,0.0,0.0,0.0,0.0,0.0,0.0,0.0,0.0,0.0,0.0,0.0,0.0,0.0,0.0,-4.291,-4.2955,-4.2952,-4.3043,-4.1853,-4.1877,-4.4095,-4.3081,-4.2918,-4.4443,-4.4574,-4.4574,-4.4606,-4.4606,-4.4606,-4.4606,-4.4606,-4.4946,-4.5691,-4.5674,-4.6063,-4.6811,-4.6065,-4.5708,-4.5675,-4.4947,-4.4219,-4.3573,-4.3557,-4.3121,-4.2489,-4.2693,-4.2785,-4.2939,-4.4373,-4.5015,-4.5123,-4.5123,-4.5247,-4.5344,-4.522,-4.515,-4.5003,-4.4168,-4.3892,-4.3739,-4.31,-4.2911,-4.298,-4.3149,-4.3199,-4.3224,-4.3207,-4.2603,-4.2016,-4.2016,-4.1447,-4.0912,-4.0912,-4.0912,-4.0912,-4.0912,-4.0912,-4.0912,-4.0912,-4.1065,-4.147,-4.2242,-4.2573,0.0,-4.3716,-4.3827,-4.3955,-4.4213,-4.4236,-4.4644,-4.5651,-4.5013,-4.4528,-4.4528,-4.3832,-4.3087,-4.2323,-4.2287,-4.2287,-4.2308,-4.2308,-4.2308,-4.2308,0.0,0.0,0.0,0.0,0.0,0.0,0.0,0.0,0.0,0.0,0.0,0.0,0.0,0.0,0.0,0.0,0.0,0.0,0.0,0.0,0.0,-4.2515,-4.2434,-4.2565,-4.1836,-4.1524,-4.2034,-4.1429,-4.1422,-4.2489,-4.2252,-4.24,-4.3349,-4.3578,-4.3868,-4.4365,-4.4507,-4.4617,-4.4617,-4.4617,-4.4934,-4.5683,-4.5159,-4.5543,-4.6777,-4.6061,-4.5683,-4.5667,-4.5002,-4.4006,-4.2853,-4.2353,-4.2019,-4.1771,-4.1836,-4.2141,-4.2645,-4.33,-4.3568,-4.3597,-4.3597,-4.3934,-4.4367,-4.4339,-4.4339,-4.4277,-4.4063,-4.3621,-4.3206,-4.3036,-4.3304,-4.3613,-4.3254,-4.35,-4.3752,-4.3302,-4.2603,-4.2016,-4.2016,-4.1447,-4.0912,-4.0912,-4.0912,-4.0912,-4.0912,-4.0912,-4.0912,-4.0912,-4.0942,-4.1058,-4.1289,-4.1493,-4.1707,-4.1916,-4.2111,-4.2492,-4.314,-4.3215,-4.3538,-4.4347,-4.3729,-4.3305,-4.3305,-4.256,-4.2096,-4.1998,-4.2019,-4.2103,-4.2287,-4.2308,-4.2308,0.0,0.0,0.0,0.0,0.0,0.0,0.0,0.0,0.0,0.0,0.0,0.0,0.0,0.0,0.0,0.0,0.0,0.0,0.0,0.0,0.0,0.0,-4.1991,-4.1991,-4.1991,-4.1393,-4.1032,-4.1115,-4.1151,-4.1444,-4.2168,-4.2229,-4.2554,-4.335,-4.3587,-4.3907,-4.4305,-4.4511,-4.461,-4.461,-4.461,-4.4821,-4.5253,-4.4821,-4.503,-4.5877,-4.5458,-4.5253,-4.5237,-4.483,-4.3904,-4.2586,-4.2186,-4.1678,-4.1091,-4.1091,-4.1294,-4.1739,0.0,0.0,0.0,0.0,-4.324,-4.3568,-4.3542,-4.3512,-4.3466,-4.3406,-4.312,-4.2814,-4.2876,-4.3196,-4.3442,-4.3157,-4.3327,-4.3569,-4.323,-4.2634,-4.2087,-4.1765,-4.124,-4.0728,-4.0421,-4.0353,-4.0353,-4.0353,-4.0353,0.0,-4.0353,-4.0517,-4.0721,-4.0871,-4.0853,-4.0884,-4.1065,-4.1221,-4.1532,-4.2083,-4.2118,-4.2479,-4.3348,-4.3031,0.0,0.0,0.0,-4.2004,-4.178,-4.1784,0.0,0.0,0.0,-4.2124,-4.2124,-4.2246,0.0,0.0,-4.2519,-4.2537,0.0,0.0,0.0,0.0,0.0,0.0,0.0,0.0,0.0,0.0,0.0,0.0,0.0,0.0,0.0,0.0,-4.1422,-4.1422,-4.1422,-4.1482,-4.1265,-4.0696,-4.113,-4.1835,-4.2702,-4.2777,-4.3081,-4.3864,-4.4127,-4.4281,-4.4281,-4.4473,0.0,0.0,0.0,-4.461,-4.461,-4.461,-4.461,-4.461,-4.461,-4.461,-4.461,-4.461,-4.3864,-4.2602,-4.2602,-4.1817,-4.0489,-4.0489,-4.0489,-4.0612,-4.1804,-4.2363,-4.2568,-4.266,-4.2784,-4.2798,-4.2676,0.0,0.0,-4.2458,-4.2332,-4.23,-4.2505,-4.2599,-4.2676,-4.2814,-4.2937,-4.2998,-4.2998,-4.2604,-4.2051,-4.1406,-4.0868,-4.0361,-3.9692,-3.9584,-3.961,-3.961,-3.961,-3.961,-3.961,-3.9952,-4.0337,-4.0704,-4.0461,-4.0362,-4.0704,-4.0752,-4.083,-4.1007,-4.103,0.0,-4.2346,-4.2439,-4.2439,-4.2439,-4.2462,-4.217,-4.1466,-4.1453,-4.1453,-4.1453,-4.1635,-4.1727,-4.1727,-4.198,-4.2124,-4.2124,-4.2246,-4.2308,0.0,0.0,0.0,0.0,0.0,0.0,0.0,0.0,0.0,0.0,0.0,0.0,0.0,0.0,0.0,-4.1399,-4.1422,-4.1422,-4.1422,-4.1871,-4.2171,-4.2036,-4.2126,-4.247,-4.3129,-4.3189,-4.3234,-4.3409,-4.3817,-4.4065,-4.4065,-4.4396,-4.461,-4.461,-4.461,-4.461,-4.461,-4.461,-4.461,-4.461,-4.461,0.0,-4.461,-4.461,-4.3864,-4.2602,-4.2602,-4.1817,-4.0489,-4.0489,-4.0489,-4.0524,-4.0783,-4.0904,-4.0938,-4.0956,-4.1327,-4.1804,-4.1771,-4.1739,-4.1739,-4.1706,-4.1343,-4.0904,-4.0938,-4.1309,0.0,-4.1965,-4.2411,-4.2862,-4.2968,-4.2075,-4.1087,-4.0939,-4.0177,-3.9452,-3.9302,-3.9454,-3.961,-3.961,-3.961,-3.961,-3.961,-3.9688,-3.9765,-3.9842,-3.9808,-3.9765,-3.9842,-3.9842,-3.9868,-3.9902,-3.9902,-3.9978,-4.0206,-4.0223,-4.0223,-4.0223,-4.0424,-4.048,-4.0319,-4.0463,-4.0542,-4.0542,-4.0573,-4.0597,-4.0597,-4.0821,-4.0932,-4.0955,-4.1856,-4.2308,0.0,0.0,0.0,0.0,0.0,0.0,0.0,0.0,0.0,0.0,0.0,-4.0989,-4.0792,0.0,-4.0778,-4.0898,-4.1482,-4.1916,-4.1916,-4.2432,-4.2731,-4.244,-4.2656,-4.297,-4.326,-4.329,-4.329,-4.329,-4.3621,-4.3832,-4.3832,-4.4243,-4.4473,-4.4473,-4.4549,-4.461,-4.461,-4.461,-4.461,-4.461,-4.461,-4.461,-4.461,-4.4255,-4.3541,-4.2586,-4.2248,-4.1509,-4.0489,-4.0489,-4.0489,-4.0489,-4.0489,-4.0489,-4.0489,-4.0489,-4.0715,-4.099,-4.099,-4.099,-4.099,-4.099,-4.0768,-4.0489,-4.0489,-4.0749,-4.1024,-4.1125,-4.1376,-4.1656,-4.1739,-4.1119,-4.0366,-3.9998,-3.9371,-3.8748,-3.8391,-3.8407,-3.8546,-3.8712,-3.8739,-3.881,-3.898,-3.9007,-3.9125,-3.9532,-3.9428,-3.9365,-3.9584,-3.961,-3.961,-3.961,-3.961,-3.961,-3.961,-3.961,-3.9761,-4.0146,-3.9941,-3.98,-3.98,-3.991,-3.9944,-3.9944,-4.0094,-4.0144,-4.0144,-4.0349,-4.0446,-4.0446,-4.1036,-4.1388,0.0,0.0,0.0,0.0,0.0,0.0,0.0,-3.8597,-3.8804,-3.9422,-3.9451,-3.9304,-3.9085,-3.9361,-3.9784,-4.0182,-4.1139,-4.1981,-4.2287,-4.2748,-4.2922,-4.2611,-4.3015,-4.329,-4.329,-4.329,-4.329,-4.329,-4.3557,-4.369,-4.369,-4.405,-4.4243,-4.4243,-4.4435,-4.4549,-4.4549,-4.4587,-4.461,-4.461,-4.461,-4.461,-4.4594,-4.3917,-4.3217,-4.2556,-4.174,-4.1063,-4.0489,-4.0489,-4.0489,-4.0489,-4.0489,-4.0489,-4.0489,-4.0489,-4.0489,-4.0489,-4.0489,-4.0489,-4.0489,-4.0489,-4.0489,-4.0489,-4.0489,-4.0489,-4.0489,-4.0489,-4.0489,-4.0489,-4.0489,-4.0142,-3.9631,-3.9055,-3.8545,-3.8067,-3.7454,-3.7358,-3.7476,-3.774,-3.7799,-3.7915,-3.825,-3.8307,-3.8528,-3.9242,-3.9088,-3.8996,-3.9339,-3.9375,-3.9375,-3.9375,-3.9375,-3.9375,-3.9375,-3.9508,-3.9764,-4.0213,-3.9814,-3.9525,-3.9375,-3.9375,-3.9375,-3.9375,-3.9584,-3.9697,-3.9697,-3.9868,-3.9977,-3.9977,-4.0002,-4.0377,-3.7476,-3.8034,-3.8281,-3.6989,-3.7246,-3.7763,0.0,-3.7853,-3.8211,-3.8857,-3.8521,-3.8253,-3.8742,-3.8392,-3.8406,-3.9517,-3.98,-4.0415,-4.1843,-4.2111,-4.2426,-4.3121,-4.3245,-4.329,-4.329,-4.329,-4.329,-4.329,-4.3557,-4.369,-4.369,-4.391,-4.4026,-4.4026,-4.4243,-4.432,-4.432,-4.4511,-4.461,-4.461,-4.461,-4.461,-4.4594,-4.3917,-4.3217,-4.254,-4.1181,-4.0566,-4.0489,-4.0489,-4.0489,-4.0489,-4.0489,-4.0489,-4.0489,-4.0489,-4.0489,-4.0489,-4.0489,-4.0489,-4.0489,-4.0489,-4.0489,-4.0489,-4.0489,-4.0489,-4.0489,-4.0489,-4.0489,-4.0489,-4.0489,-3.9585,-3.8681,-3.8589,-3.7856,-3.7154,-3.7076,-3.7224,-3.7417,-3.7447,-3.7476,-3.7565,-3.7886,-3.7943,-3.8103,-3.8488,-3.8504,-3.8476,-3.8532,-3.8516,-3.8516,-3.8516,-3.8516,-3.8516,-3.8516,-3.9146,-3.9276,-3.8678,-3.9211,-3.9227,-3.8548,-3.8516,-3.8516,-3.8516,-3.8572,-3.8572,-3.8572,-3.8738,-3.8777,-3.8777,-3.8898,-3.9919,-3.6618,-3.6665,-3.6527,-3.5949,-3.6092,-3.6313,-3.6244,-3.6308,-3.648,-3.6737,-3.6845,-3.6997,-3.7387,-3.7841,-3.8477,-3.9424,-3.9943,-4.0435,-4.1085,-4.1645,-4.2155,-4.2496,-4.2996,-4.329,-4.329,-4.329,-4.329,-4.329,-4.3384,-4.3463,-4.3463,-4.3675,-4.3847,-4.3847,-4.4026,-4.4166,-4.4281,-4.4396,-4.4458,-4.461,-4.461,-4.4409,-4.4009,-4.331,-4.2417,-4.137,-4.0751,-4.0489,-4.0489,-4.0489,-4.0489,-4.0489,-4.0489,-4.0489,-4.0489,-4.0489,-4.0489,-4.0489,-4.0489,-4.0489,-4.0489,-4.0489,-4.0489,-4.0489,-4.0489,-4.0489,-4.0489,-4.0489,-4.0489,-4.0489,-4.0489,-3.9524,-3.8508,-3.8508,-3.7572,-3.6724,-3.6724,-3.68,-3.6922,-3.7119,-3.7165,-3.727,-3.7565,-3.7623,-3.7711,-3.8046,-3.8278,-3.8391,-3.8391,-3.8391,-3.8391,-3.8391,-3.8391,-3.857,-3.8991,-3.8926,-3.891,-3.9023,-3.8926,-3.8715,-3.8408,-3.8391,-3.8391,-3.8391,-3.8391,-3.8391,-3.8391,-3.8464,-3.8476,-3.8476,-3.856,-3.9248,-3.5926,-3.5704,-3.5443,-3.5129,-3.5168,-3.526,-3.509,-3.5051,-3.5051,-3.5051,-3.5495,-3.5969,-3.6318,-3.7279,-3.8249,-3.8992,-3.9564,-3.9927,-4.0159,-4.1029,-4.1728,-4.199,-4.2795,-4.329,-4.329,-4.329,-4.329,-4.329,-4.329,-4.329,-4.329,-4.3463,-4.3596,-4.3596,-4.3793,-4.3988,-4.4127,-4.4166,-4.432,-4.4511,-4.4511,-4.4195,-4.3578,-4.2709,-4.1663,-4.0489,-4.0489,-4.0489,-4.0489,-4.0489,-4.0489,-4.0489,-4.0489,-4.0489,-4.0489,-4.0489,-4.0489,-4.0489,-4.0489,-4.0489,-4.0489,-4.0489,-4.0489,-4.0489,-4.0489,-4.0489,-4.0489,-4.0489,-4.0489,-4.0489,-4.0489,-3.9524,-3.8508,-3.8508,-3.7477,-3.6492,-3.6492,-3.6492,-3.6585,-3.6816,-3.6847,-3.6953,-3.7224,-3.7284,-3.7403,-3.7695,-3.796,-3.8177,-3.8363,-3.8391,-3.8391,-3.8391,-3.8391,-3.8618,-3.9136,-3.8877,-3.8829,-3.9197,-3.8877,-3.8602,-3.8408,-3.8391,-3.8391,-3.8391,-3.8391,-3.8391,-3.8391,-3.8391,-3.8391,-3.8391,-3.8391,-3.8724,-3.5469,-3.5691,-3.5809,-3.4698,-3.4868,-3.5142,-3.4554,-3.4424,-3.4424,-3.4424,-3.4907,-3.5482,-3.6022,-3.6624,-3.7239,-3.7874,-3.7979,-3.8272,-3.9121,-4.0029,-4.0986,-4.1908,-4.2795,-4.329,-4.329,-4.329,-4.329,-4.329,-4.329,-4.329,-4.329,-4.329,-4.329,-4.329,-4.3557,-4.3729,-4.3729,-4.391,-4.4089,-4.432,-4.432,-4.4082,-4.3562,-4.2217,-4.1232,-4.0489,-4.0489,-4.0489,-4.0489,-4.0489,-4.0489,-4.0489,-4.0489,-4.0489,-4.0489,-4.0489,-4.0489,-4.0489,-4.0489,-4.0489,-4.0489,-4.0489,-4.0489,-4.0489,-4.0489,-4.0489,-4.0489,-4.0489,-4.0489,-4.0489,-4.0489,-3.9524,-3.8508,-3.8508,-3.7477,-3.6492,-3.6492,-3.6492,-3.6492,-3.6523,-3.6523,-3.6616,-3.6938,-3.6999,-3.7105,-3.7358,-3.7417,-3.7669,-3.8307,-3.8391,-3.8391,-3.8391,-3.8391,-3.8408,-3.8424,-3.9055,-3.9153,-3.8472,-3.9072,-3.9165,-3.8424,-3.8391,-3.8391,-3.8391,-3.8391,-3.8391,-3.8391,-3.8391,-3.8391,-3.8391,-3.8391,-3.8408,-3.475,-3.4829,-3.4881,-3.4502,-3.4554,-3.4646,-3.445,-3.4397,-3.4515,-3.4907,-3.5443,-3.6018,-3.6593,-3.7194,-3.7665,-3.7874,-3.79,-3.7979,-3.8317,-3.9104,-4.0029,-4.0944,-4.1893,-4.2659,-4.325,-4.329,-4.329,-4.329,-4.329,-4.329,-4.329,-4.329,-4.329,-4.329,-4.3384,-4.3518,-4.369,-4.3769,-4.391,-4.4089,-4.3342,-4.2726,-4.2232,-4.1309,-4.072,-4.0489,-4.0489,-4.0489,-4.0489,-4.0489,-4.0489,-4.0489,-4.0489,-4.0489,-4.0489,-4.0489,-4.0489,-4.0489,-4.0489,-4.0489,-4.0489,-4.0489,-4.0489,-4.0489,-4.0489,-4.0489,-4.0489,-4.0489,-4.0489,-4.0397,-3.9936,-3.9152,-3.84,-3.7938,-3.7153,-3.6492,-3.6492,-3.6492,-3.6492,-3.6492,-3.6492,-3.6523,-3.6647,-3.6662,-3.677,-3.7075,-3.7492,-3.7799,-3.8046,-3.8262,-3.8391,-3.8391,-3.8391,-3.8391,-3.8391,-3.8618,-3.8651,-3.8424,-3.8634,-3.8651,-3.8408,-3.8391,-3.8391,-3.8391,-3.8391,-3.8391,-3.8391,-3.8391,-3.8391,-3.8391,-3.8391,-3.8391,-3.4397,-3.4397,-3.4397,-3.4397,-3.4397,-3.4397,-3.4397,-3.4397,-3.4567,-3.5168,-3.573,-3.6279,-3.6894,-3.7495,-3.79,-3.79,-3.79,-3.79,-3.79,-3.8626,-3.9417,-4.0029,-4.1212,-4.2196,-4.2795,-4.313,-4.329,-4.329,-4.329,-4.329,-4.329,-4.329,-4.329,-4.329,-4.329,-4.3384,-4.3557,-4.3557,-4.3554,-4.3546,-4.2702,-4.2,-4.1449,-4.0812,-4.0489,-4.0489,-4.0489,-4.0489,-4.0489,-4.0489,-4.0489,-4.0489,-4.0489,-4.0489,-4.0489,-4.0489,-4.0489,-4.0489,-4.0489,-4.0489,-4.0489,-4.0489,-4.0489,-4.0489,-4.0489,-4.0489,-4.0489,-4.0489,-4.0489,-4.0336,-3.9659,-3.9016,-3.8338,-3.7661,-3.6984,-3.6492,-3.6492,-3.6492,-3.6492,-3.6492,-3.6492,-3.6492,-3.6492,-3.6492,-3.6585,-3.6785,-3.724,-3.761,-3.7711,-3.7902,-3.8033,-3.8033,-3.8033,-3.8091,-3.8205,-3.8234,-3.8262,-3.8391,-3.8391,-3.8391,-3.8391,-3.8391,-3.8391,-3.8391,-3.8391,-3.8391,-3.8391,-3.8391,-3.8391,-3.8391,-3.8391,-3.8391,-3.4397,-3.4397,-3.4397,-3.4397,-3.4397,-3.4397,-3.4397,-3.4397,-3.458,-3.5208,-3.5744,-3.6292,-3.6933,-3.7521,-3.79,-3.79,-3.79,-3.79,-3.79,-3.8594,-3.9166,-3.921,-4.0774,-4.1867,-4.1908,-4.2659,-4.317,-4.321,-4.325,-4.329,-4.329,-4.329,-4.329,-4.329,-4.329,-4.329,-4.329,-4.326,-4.3049,-4.265,-4.2369,-4.1866,-4.1209,-4.0727,-4.0489,-4.0489,-4.0489,-4.0489,-4.0489,-4.0489,-4.0489,-4.0489,-4.0489,-4.0489,-4.0489,-4.0489,-4.0489,-4.0489,-4.0489,-4.0489,-4.0489,-4.0489,-4.0489,-4.0489,-4.0489,-4.0489,-4.0489,-4.0489,-4.0489,-4.0336,-3.9613,-3.8985,-3.8323,-3.7615,-3.6953,-3.6492,-3.6492,-3.6492,-3.6492,-3.6492,-3.6492,-3.6492,-3.6492,-3.6492,-3.6492,-3.6492,-3.6785,-3.7075,-3.7328,-3.7387,-3.7417,-3.7417,-3.7417,-3.7535,-3.7857,-3.7886,-3.8017,-3.8335,-3.8363,-3.8363,-3.8391,-3.8391,-3.8391,-3.8391,-3.8391,-3.8391,-3.8391,-3.8391,-3.8391,-3.8391,-3.8391,-3.8391,-3.4397,-3.4397,-3.4397,-3.4397,-3.4397,-3.4397,-3.4397,-3.4397,-3.4685,-3.5691,-3.6005,-3.6423,-3.7482,-3.7795,-3.79,-3.79,-3.79,-3.79,-3.79,-3.8103,-3.8472,-3.9121,-3.9637,-4.0202,-4.0901,-4.1155,-4.1589,-4.2293,-4.2915,-4.329,-4.329,-4.329,-4.329,-4.329,-4.329,-4.329,-4.329,-4.2851,-4.2398,-4.1957,-4.1537,-4.0978,-4.0325,-4.0353,-4.0331,-4.0331,-4.0331,-4.0401,-4.0489,-4.0489,-4.0489,-4.0489,-4.0489,-4.0489,-4.0489,-4.0489,-4.0489,-4.0489,-4.0489,-4.0489,-4.0489,-4.0489,-4.0489,-4.0489,-4.0489,-4.0489,-4.0489,-4.0489,-4.0489,-4.0213,-3.9077,-3.8646,-3.8215,-3.703,-3.6615,-3.6492,-3.6492,-3.6492,-3.6492,-3.6492,-3.6492,-3.6492,-3.6492,-3.6492,-3.6492,-3.6492,-3.6585,-3.6739,-3.7044,-3.7284,-3.7417,-3.7417,-3.7417,-3.7431,-3.7535,-3.7535,-3.7682,-3.8017,-3.8046,-3.8132,-3.8391,-3.8391,-3.8391,-3.8391,-3.8391,-3.8391,-3.8391,-3.8391,-3.8391,-3.8391,-3.8391,-3.8391,-3.4397,-3.4397,-3.4397,-3.4397,-3.4397,-3.4397,-3.4397,-3.4397,-3.4724,-3.5874,-3.6109,-3.6475,-3.7678,-3.79,-3.79,-3.79,-3.79,-3.79,-3.79,-3.79,-3.807,-3.8549,-3.8957,-3.9417,-3.9942,-4.0375,-4.0817,-4.1338,-4.2237,-4.2915,-4.329,-4.329,-4.329,-4.329,-4.329,-4.329,-4.329,-4.2686,-4.2104,-4.1573,-4.1096,-4.0561,-3.9996,-4.0101,-4.0207,-4.0312,-4.0312,-4.0331,-4.0436,-4.047,-4.0489,-4.0489,-4.0489,-4.0489,-4.0489,-4.0489,-4.0489,-4.0489,-4.0489,-4.0489,-4.0489,-4.0489,-4.0489,-4.0489,-4.0489,-4.0489,-4.0489,-4.0489,-4.0489,-4.0182,-3.8862,-3.8508,-3.8169,-3.6815,-3.6492,-3.6492,-3.6492,-3.6492,-3.6492,-3.6492,-3.6492,-3.6492,-3.6492,-3.6492,-3.6492,-3.6492,-3.6492,-3.6554,-3.6754,-3.6907,-3.7013,-3.7013,-3.7013,-3.7074,-3.721,-3.721,-3.7344,-3.7653,-3.7828,-3.7972,-3.8177,-3.8177,-3.8177,-3.8177,-3.8177,-3.8177,-3.8177,-3.8335,-3.8391,-3.8391,-3.8391,-3.8391,-3.4397,-3.4397,-3.4397,-3.4397,-3.4397,-3.4397,-3.4397,-3.4397,-3.4698,-3.577,-3.6057,-3.6449,-3.7573,-3.7848,-3.79,-3.79,-3.79,-3.79,-3.79,-3.79,-3.79,-3.79,-3.8549,-3.9046,-3.9046,-3.9782,-4.0303,-4.0432,-4.1169,-4.2073,-4.3076,-4.325,-4.329,-4.329,-4.329,-4.3245,-4.317,-4.2551,-4.1931,-4.1272,-4.0798,-4.0326,-3.9925,-3.994,-4.0066,-4.0226,-4.0242,-4.0277,-4.0296,-4.042,-4.0489,-4.0489,-4.0489,-4.0489,-4.0489,-4.0489,-4.0489,-4.0489,-4.0489,-4.0455,-4.042,-4.0489,-4.0489,-4.0489,-4.0489,-4.0489,-4.0489,-4.0489,-4.0489,-4.0182,-3.8862,-3.8508,-3.8169,-3.6815,-3.6492,-3.6492,-3.6492,-3.6492,-3.6492,-3.6492,-3.6492,-3.6492,-3.6398,-3.6383,-3.6383,-3.6383,-3.632,-3.6352,-3.6492,-3.6492,-3.6492,-3.6492,-3.6492,-3.6616,-3.6908,-3.6938,-3.7014,-3.7238,-3.7519,-3.7695,-3.7725,-3.7725,-3.7754,-3.7812,-3.7812,-3.7857,-3.7915,-3.8205,-3.8363,-3.8391,-3.8391,-3.8391,-3.4397,-3.4397,-3.4397,-3.4397,-3.4397,-3.4397,-3.4397,-3.4397,-3.4593,-3.5299,-3.5796,-3.6319,-3.7037,-3.7573,-3.79,-3.79,-3.79,-3.79,-3.79,-3.79,-3.79,-3.79,-3.8024,-3.8148,-3.8148,-3.8285,-3.8652,-3.9387,-3.9593,-4.0418,-4.2114,-4.2915,-4.329,-4.329,-4.329,-4.3075,-4.2575,-4.1916,-4.122,-4.0561,-4.0106,-3.973,-3.9496,-3.9661,-3.9768,-3.9803,-3.9996,-4.0137,-4.0296,-4.042,-4.0489,-4.0489,-4.0489,-4.0489,-4.0489,-4.0489,-4.0489,-4.0489,-4.0489,-4.0211,-3.9895,-4.0351,-4.0489,-4.0489,-4.0489,-4.0489,-4.0489,-4.0489,-4.0489,-4.0182,-3.8862,-3.8508,-3.8169,-3.6815,-3.6492,-3.6492,-3.6492,-3.6492,-3.6492,-3.6492,-3.6492,-3.6352,-3.5926,-3.5847,-3.5847,-3.5847,-3.5447,-3.5494,-3.6398,-3.6492,-3.6492,-3.6492,-3.6492,-3.6523,-3.6585,-3.6585,-3.6538,-3.6414,-3.6476,-3.66,-3.6828,-3.6828,-3.7025,-3.7476,-3.7506,-3.7623,-3.7915,-3.7943,-3.8148,-3.8391,-3.8391,-3.8391,-3.4397,-3.4397,-3.4397,-3.4397,-3.4397,-3.4397,-3.4397,-3.4397,-3.4567,-3.5168,-3.573,-3.6279,-3.6894,-3.7495,-3.79,-3.79,-3.79,-3.79,-3.79,-3.79,-3.79,-3.79,-3.79,-3.79,-3.79,-3.79,-3.807,-3.8472,-3.8912,-4.0029,-4.1908,-4.2835,-4.329,-4.329,-4.329,-4.3015,-4.241,-4.1285,-4.0389,-3.9702,-3.918,-3.8907,-3.8877,-3.9358,-3.9589,-3.9681,-3.9328,-3.9364,-3.9646,-3.937,-3.9585,-4.0071,-4.0071,-4.0246,-4.0455,-4.0176,-4.0071,-4.0036,-3.9737,-3.9451,-3.9271,-3.9523,-3.9844,-4.0141,-4.0436,-4.0489,-4.0455,-4.0176,-4.0071,-3.9681,-3.8043,-3.7628,-3.7364,-3.6341,-3.6289,-3.6429,-3.6148,-3.6289,-3.6429,-3.6132,-3.6085,-3.5911,-3.5382,-3.5285,-3.5285,-3.5285,-3.5041,-3.5088,-3.5591,-3.5655,-3.5894,-3.6429,-3.6258,-3.6085,-3.6085,-3.5816,-3.5623,-3.5544,-3.5705,-3.5849,-3.5977,-3.5977,-3.6103,-3.6337,-3.6646,-3.686,-3.7012,-3.7447,-3.7637,-3.7623,-3.7988,-3.7812,-3.4397,-3.4397,-3.4397,-3.4397,-3.4397,-3.4397,-3.4397,-3.4397,-3.4528,-3.5012,-3.5547,-3.6109,-3.6698,-3.7299,-3.7756,-3.7887,-3.79,-3.79,-3.79,-3.79,-3.79,-3.79,-3.79,-3.79,-3.79,-3.79,-3.79,-3.79,-3.8715,-3.9942,-4.1603,-4.236,-4.2739,-4.2739,-4.2739,-4.2356,-4.1651,-4.044,-3.9419,-3.8654,-3.8344,-3.8263,-3.8368,-3.8892,-3.9213,-3.9343,-3.8502,-3.8354,-3.8657,-3.8264,-3.8613,-3.9364,-3.9451,-3.9773,-4.0091,-3.9666,-3.9502,-3.943,-3.8965,-3.8708,-3.8634,-3.8745,-3.9126,-3.9574,-4.0021,-4.0126,-4.0056,-3.9646,-3.9502,-3.908,-3.7251,-3.6807,-3.6586,-3.5729,-3.5847,-3.6053,-3.5623,-3.5847,-3.6022,-3.5623,-3.5512,-3.535,-3.481,-3.4743,-3.4743,-3.4743,-3.4624,-3.4658,-3.489,-3.481,-3.5088,-3.6053,-3.5784,-3.5512,-3.5512,-3.5154,-3.4843,-3.4743,-3.4975,-3.5139,-3.5139,-3.5139,-3.5172,-3.5302,-3.5705,-3.5975,-3.6038,-3.6677,-3.6875,-3.6692,-3.7205,-3.695,-3.4397,-3.4397,-3.4397,-3.4397,-3.4397,-3.4397,-3.4397,-3.4397,-3.441,-3.4463,-3.4959,-3.5534,-3.6083,-3.6684,-3.726,-3.7808,-3.79,-3.79,-3.79,-3.79,-3.79,-3.79,-3.79,-3.79,-3.79,-3.79,-3.79,-3.79,-3.8715,-3.9637,-4.0689,-4.0802,-4.0859,-4.0859,-4.0859,-4.0294,-3.9147,-3.8995,-3.8319,-3.712,-3.7848,-3.8202,-3.8225,-3.8277,-3.8315,-3.8315,-3.7601,-3.7319,-3.7396,-3.7913,-3.8175,-3.8302,-3.873,-3.8892,-3.8965,-3.8892,-3.8892,-3.8855,-3.8819,-3.8449,-3.8075,-3.8634,-3.8819,-3.8892,-3.8929,-3.8965,-3.8929,-3.8892,-3.8892,-3.856,-3.7146,-3.6807,-3.6482,-3.5252,-3.5008,-3.5041,-3.4975,-3.5008,-3.5041,-3.4975,-3.4975,-3.481,-3.4274,-3.4172,-3.4172,-3.4172,-3.377,-3.3805,-3.4776,-3.4476,-3.4409,-3.4975,-3.5008,-3.4975,-3.4975,-3.4924,-3.4677,-3.4206,-3.4206,-3.4206,-3.4206,-3.4206,-3.4442,-3.4957,-3.4975,-3.5172,-3.5464,-3.5561,-3.5676,-3.5901,-3.5964,-3.5932,-3.4397,-3.4397,-3.4397,-3.4397,-3.4397,-3.4397,-3.4397,-3.4397,-3.4397,-3.4397,-3.4881,-3.5365,-3.5574,-3.6384,-3.709,-3.7325,-3.7665,-3.79,-3.79,-3.79,-3.79,-3.79,-3.79,-3.79,-3.79,-3.79,-3.79,-3.79,-3.8226,-3.8562,-3.8953,-4.0014,-4.0603,-4.0603,-4.0238,-3.9634,-3.8818,-3.7964,-3.707,-3.6162,-3.6531,-3.6702,-3.6702,-3.7193,-3.7424,-3.7372,-3.6635,-3.6439,-3.6674,-3.6649,-3.7011,-3.761,-3.8084,-3.8486,-3.8745,-3.8412,-3.8263,-3.8225,-3.7848,-3.7544,-3.7404,-3.762,-3.7734,-3.7848,-3.8598,-3.8782,-3.8708,-3.8375,-3.8263,-3.7883,-3.6244,-3.5515,-3.498,-3.4126,-3.4423,-3.481,-3.4476,-3.4677,-3.481,-3.4476,-3.4409,-3.4254,-3.3701,-3.3597,-3.3597,-3.3597,-3.3452,-3.3452,-3.3874,-3.3736,-3.3701,-3.3908,-3.4221,-3.4409,-3.4409,-3.4133,-3.3839,-3.3632,-3.3597,-3.3597,-3.3597,-3.3597,-3.3701,-3.3942,-3.4254,-3.4476,-3.461,-3.4942,-3.5041,-3.496,-3.537,-3.516,-3.4397,-3.4397,-3.4397,-3.4397,-3.4397,-3.4397,-3.4397,-3.4397,-3.4397,-3.4314,-3.4695,-3.5077,-3.5174,-3.604,-3.6789,-3.6972,-3.7508,-3.79,-3.79,-3.79,-3.79,-3.79,-3.79,-3.79,-3.79,-3.79,-3.79,-3.79,-3.79,-3.79,-3.79,-3.9131,-3.9796,-3.9796,-3.9204,-3.8598,-3.802,-3.6877,-3.5964,-3.5305,-3.5588,-3.5709,-3.5709,-3.6281,-3.6543,-3.6503,-3.5655,-3.5467,-3.5709,-3.5588,-3.5924,-3.6635,-3.7053,-3.7567,-3.8037,-3.7634,-3.7481,-3.7404,-3.6993,-3.6797,-3.6797,-3.6797,-3.6915,-3.7173,-3.8,-3.8263,-3.8188,-3.7734,-3.7401,-3.6802,-3.5526,-3.4533,-3.3756,-3.3382,-3.3874,-3.4322,-3.3948,-3.4153,-3.4337,-3.3928,-3.3859,-3.3736,-3.3347,-3.329,-3.329,-3.329,-3.329,-3.329,-3.329,-3.329,-3.329,-3.329,-3.3632,-3.3859,-3.3859,-3.3507,-3.329,-3.329,-3.329,-3.329,-3.329,-3.329,-3.329,-3.329,-3.3667,-3.3859,-3.3845,-3.4221,-3.4317,-3.4108,-3.4572,-3.4337,-3.4397,-3.4397,-3.4397,-3.4397,-3.4397,-3.4397,-3.4397,-3.4397,-3.4356,-3.416,-3.4285,-3.4497,-3.4826,-3.5557,-3.6305,-3.6907,-3.7508,-3.79,-3.79,-3.79,-3.79,-3.79,-3.79,-3.79,-3.79,-3.79,-3.79,-3.79,-3.79,-3.79,-3.79,-3.79,-3.7946,-3.7946,-3.7357,-3.6755,-3.6153,-3.5604,-3.4999,-3.4439,-3.5264,-3.5709,-3.5709,-3.5709,-3.5709,-3.5669,-3.4799,-3.4439,-3.4439,-3.4908,-3.5127,-3.5154,-3.5562,-3.6018,-3.6431,-3.6445,-3.6445,-3.6391,-3.6405,-3.6405,-3.6405,-3.6405,-3.6693,-3.6978,-3.7017,-3.7017,-3.7017,-3.7017,-3.6145,-3.5203,-3.5189,-3.4239,-3.3326,-3.329,-3.3326,-3.3326,-3.3326,-3.3312,-3.3312,-3.3326,-3.3326,-3.3326,-3.329,-3.329,-3.329,-3.329,-3.329,-3.329,-3.329,-3.329,-3.329,-3.329,-3.3312,-3.3326,-3.3326,-3.329,-3.329,-3.329,-3.329,-3.329,-3.329,-3.329,-3.329,-3.329,-3.3326,-3.3326,-3.3326,-3.3312,-3.3312,-3.3326,-3.3326,-3.3326,-3.4293,-3.4397,-3.4397,-3.4397,-3.4397,-3.4397,-3.4397,-3.4397,-3.4356,-3.416,-3.416,-3.417,-3.4084,-3.4641,-3.5339,-3.6041,-3.6683,-3.7261,-3.7802,-3.79,-3.79,-3.79,-3.79,-3.79,-3.79,-3.79,-3.79,-3.79,-3.79,-3.79,-3.79,-3.79,-3.7717,-3.7299,-3.6711,-3.6123,-3.5561,-3.4972,-3.458,-3.4397,-3.4675,-3.4799,-3.4799,-3.4799,-3.4799,-3.4799,-3.4522,-3.4397,-3.4439,-3.4908,-3.5086,-3.5113,-3.5562,-3.5804,-3.5924,-3.5924,-3.5924,-3.5924,-3.5924,-3.5924,-3.5924,-3.5924,-3.6204,-3.6589,-3.6589,-3.6758,-3.6894,-3.6511,-3.5808,-3.5017,-3.4311,-3.3492,-3.2824,-3.2538,-3.2682,-3.2895,-3.2895,-3.3122,-3.329,-3.329,-3.3086,-3.2895,-3.2895,-3.2895,-3.2895,-3.2895,-3.3122,-3.329,-3.329,-3.329,-3.329,-3.329,-3.329,-3.329,-3.329,-3.329,-3.329,-3.329,-3.329,-3.329,-3.329,-3.329,-3.329,-3.329,-3.329,-3.329,-3.329,-3.329,-3.329,-3.329,-3.329,-3.329,-3.4188,-3.4397,-3.4397,-3.4397,-3.4397,-3.4397,-3.4397,-3.4356,-3.423,-3.3992,-3.3937,-3.3852,-3.3641,-3.4157,-3.482,-3.5504,-3.6173,-3.6813,-3.7625,-3.7749,-3.7808,-3.79,-3.79,-3.79,-3.79,-3.79,-3.79,-3.79,-3.79,-3.79,-3.79,-3.7691,-3.7286,-3.6684,-3.6305,-3.5848,-3.5312,-3.4698,-3.4397,-3.4397,-3.4397,-3.4397,-3.4397,-3.4397,-3.4397,-3.4397,-3.4397,-3.4397,0.0,-3.4743,-3.4825,-3.4867,-3.51,-3.5304,-3.548,-3.548,-3.548,-3.548,-3.548,-3.548,-3.548,-3.548,-3.5764,-3.6152,-3.6152,-3.6417,-3.6632,-3.6042,-3.5314,-3.4501,-3.3633,-3.2942,-3.2417,-3.2164,-3.2309,-3.2489,-3.2489,-3.2682,-3.2838,-3.2838,-3.2632,-3.2489,-3.2489,-3.2489,-3.2525,-3.2668,-3.2895,-3.3122,-3.329,-3.329,-3.329,-3.329,-3.329,-3.329,-3.329,-3.329,-3.329,-3.329,-3.329,-3.329,-3.329,-3.329,-3.329,-3.329,-3.329,-3.329,-3.329,-3.329,-3.329,-3.329,-3.329,-3.329,0.0,-3.4371,-3.4397,-3.4397,-3.4397,-3.4397,-3.4397,-3.4243,0.0,-3.3725,-3.367,-3.3641,-3.3441,-3.4002,-3.4694,-3.5296,-3.5833,-3.652,-3.7368,-3.7505,-3.7611,-3.7854,-3.79,-3.79,-3.79,-3.79,-3.79,-3.79,-3.79,-3.79,-3.79,-3.7325,-3.6724,-3.6123,-3.607,-3.5783,-3.5234,-3.4672,-3.4397,-3.4397,-3.4397,-3.4397,-3.4397,-3.4397,-3.4397,-3.4397,-3.4397,-3.4397,-3.4397,-3.4397,-3.4397,-3.4397,-3.4397,-3.466,-3.5031,-3.5031,-3.5031,-3.5031,-3.5031,-3.5031,-3.5044,-3.5086,-3.5358,-3.5669,-3.5669,-3.6018,-3.6213,-3.5576,-3.4687,-3.3756,-3.3145,-3.2525,-3.2055,-3.2019,-3.2019,-3.2055,-3.2055,-3.2092,-3.2092,-3.2092,-3.2092,-3.2055,-3.2055,-3.2055,-3.22,-3.2561,-3.2668,-3.281,-3.3206,-3.3255,-3.3255,-3.3255,-3.3255,-3.3255,-3.3255,-3.3276,-3.329,-3.329,-3.329,-3.329,-3.329,-3.329,-3.329,-3.329,-3.329,-3.329,-3.329,-3.329,-3.329,-3.329,-3.329,-3.329,-3.3587,0.0,-3.4397,-3.4397,-3.4397,-3.4356,0.0,-3.4118,-3.3992,-3.3569,-3.3471,-3.3398,-3.3197,-3.3311,-3.3813,-3.4978,-3.5302,-3.5858,-3.7317,-3.7657,-3.7854,-3.79,-3.79,-3.79,-3.79,-3.79,-3.79,-3.79,-3.79,-3.79,-3.79,-3.7325,-3.6724,-3.6123,-3.5704,-3.5208,-3.462,-3.4463,-3.4397,-3.4397,-3.4397,-3.4397,-3.4397,-3.4397,-3.4397,-3.4397,-3.4397,-3.4397,-3.4397,-3.4397,-3.4397,-3.4397,-3.4397,-3.4481,-3.4564,-3.4564,-3.4564,-3.4564,-3.4564,-3.4564,-3.4605,-3.499,-3.5154,-3.5318,-3.5602,-3.5804,-3.5653,-3.4576,-3.4091,-3.3585,-3.2283,-3.1847,-3.1629,-3.1347,-3.1482,-3.174,-3.174,-3.1909,-3.2092,-3.2092,-3.1873,-3.174,-3.174,-3.174,-3.174,-3.185,-3.2345,-3.2739,-3.281,-3.2846,-3.2846,-3.2846,-3.2846,-3.2846,-3.2846,-3.3122,-3.329,-3.329,-3.329,-3.329,-3.329,-3.329,-3.329,-3.329,-3.329,-3.329,-3.329,-3.329,-3.329,-3.329,-3.329,-3.329,-3.3091,-3.3783,-3.4397,-3.4397,-3.4397,-3.4356,-3.416,-3.367,-3.3288,-3.3398,-3.2957,-3.2698,-3.3025,-3.3124,-3.3488,-3.4729,-3.4918,-3.5433,-3.6908,-3.7353,-3.7505,-3.7505,-3.7657,-3.7703,-3.7703,-3.7854,-3.79,-3.79,-3.79,-3.79,-3.79,-3.7063,-3.6436,-3.6109,-3.5312,-3.4724,-3.4397,-3.4397,-3.4397,-3.4397,-3.4397,-3.4397,-3.4397,-3.4397,-3.4397,-3.4397,-3.4397,-3.4397,-3.4397,-3.4397,-3.4397,-3.4397,-3.4397,-3.4397,-3.4397,-3.4397,-3.4397,-3.4397,-3.4397,-3.4397,-3.4439,-3.4701,-3.4784,-3.4812,-3.5018,-3.51,-3.4887,-3.3895,-3.3482,-3.3034,-3.1675,-3.131,-3.1272,-3.1061,-3.1161,-3.131,-3.131,-3.1482,-3.1593,-3.1593,-3.1445,-3.131,-3.131,-3.131,-3.1384,-3.1556,-3.1946,-3.2237,-3.2417,-3.2417,-3.2417,-3.2417,-3.2596,-3.2632,-3.2453,-3.2789,-3.3086,-3.329,-3.329,-3.329,-3.329,-3.329,-3.329,-3.329,-3.329,-3.329,-3.329,-3.329,-3.329,-3.329,-3.329,-3.329,-3.2685,-3.3454,-3.423,-3.423,-3.423,-3.4147,-3.3755,-3.2877,-3.2271,-3.2803,-3.2108,-3.1669,-3.2481,-3.2667,-3.3027,-3.4074,-3.4533,-3.5245,-3.6535,-3.6922,-3.7108,-3.7108,-3.7307,-3.7459,-3.7459,-3.7703,-3.7854,-3.7854,-3.7854,-3.7861,-3.7769,-3.6711,-3.607,-3.5979,-3.4946,-3.4397,-3.4397,-3.4397,-3.4397,-3.4397,-3.4397,-3.4397,-3.4397,-3.4397,-3.4397,-3.4397,-3.4397,-3.4397,-3.4397,-3.4397,-3.4397,-3.4397,-3.4397,-3.4397,-3.4397,-3.4397,-3.4397,-3.4397,-3.4397,-3.4397,-3.4397,-3.4397,-3.4397,-3.4397,-3.4397,-3.4397,-3.4232,-3.3436,-3.2962,-3.2437,-3.1287,-3.0986,-3.0986,-3.0986,-3.0986,-3.0986,-3.0986,-3.0986,-3.0986,-3.0986,-3.0986,-3.0986,-3.0986,-3.0986,-3.1123,-3.1445,-3.1556,-3.1703,-3.1982,-3.2019,-3.2019,-3.2019,-3.2345,-3.2381,-3.2055,-3.2381,-3.2739,-3.31,-3.3171,-3.3241,-3.329,-3.329,-3.329,-3.329,-3.329,-3.329,-3.329,-3.329,-3.329,-3.329,-3.329,-3.329,-3.2685,-3.3114,-3.3556,-3.3556,-3.3556,-3.3202,-3.194,-3.1488,-3.1223,-3.0789,-3.0531,-3.0441,-3.0621,-3.0666,-3.0959,-3.1996,-3.3803,-3.547,-3.6543,-3.6922,-3.7108,-3.7108,-3.7155,-3.7155,-3.7155,-3.74,-3.7551,-3.7551,-3.7762,-3.7678,-3.7168,-3.6488,-3.59,-3.543,-3.4763,-3.4397,-3.4397,-3.4397,-3.4397,-3.4397,-3.4397,-3.4397,-3.4397,-3.4397,-3.4397,-3.4397,-3.4397,-3.4397,-3.4397,-3.4397,-3.4397,-3.4397,-3.4397,-3.4397,-3.4397,-3.4397,-3.4397,-3.4397,-3.4397,-3.4397,-3.4397,-3.4397,-3.4397,-3.4397,-3.4397,-3.4397,-3.4162,-3.3092,-3.2765,-3.2437,-3.1287,-3.0986,-3.0986,-3.0986,-3.0986,-3.0986,-3.0986,-3.0986,-3.0986,-3.0986,-3.0986,-3.0986,-3.0986,-3.0986,-3.1024,-3.1099,-3.1384,-3.1629,-3.1666,-3.1666,-3.1666,-3.1666,-3.174,-3.174,-3.1666,-3.1982,-3.22,-3.2273,-3.2596,-3.2931,-3.329,-3.329,-3.329,-3.329,-3.329,-3.329,-3.329,-3.329,-3.329,-3.329,-3.329,-3.329,-3.226,-3.2756,-3.3227,-3.2481,-3.2326,-3.2215,-3.14,-3.0598,-3.0113,-3.017,-2.9761,-2.9578,-3.0125,-3.0215,-3.0549,-3.1525,-3.3315,-3.4834,-3.5558,-3.6298,-3.6734,-3.6734,-3.6828,-3.6862,-3.6862,-3.7108,-3.7353,-3.7505,-3.7598,-3.7488,-3.7037,-3.6436,-3.5848,-3.5312,-3.4711,-3.4397,-3.4397,-3.4397,-3.4397,-3.4397,-3.4397,-3.4397,-3.4397,-3.4397,-3.4397,-3.4397,-3.4397,-3.4397,-3.4397,-3.4397,-3.4397,-3.4397,-3.4397,-3.4397,-3.4397,-3.4397,-3.4397,-3.4397,-3.4397,-3.4397,-3.4397,-3.4397,-3.4397,-3.4397,-3.4397,-3.4397,-3.4162,-3.3012,-3.2685,-3.2437,-3.1287,-3.0986,-3.0986,-3.0986,-3.0986,-3.0986,-3.0986,-3.0986,-3.0986,-3.0986,-3.0986,-3.0986,-3.0986,-3.0986,-3.0986,-3.0986,-3.1161,-3.1272,-3.1272,-3.1272,-3.1272,-3.1272,-3.1482,-3.1519,-3.1272,-3.1629,-3.1982,-3.2417,-3.2596,-3.2775,-3.298,-3.298,-3.298,-3.298,-3.298,-3.3086,-3.329,-3.329,-3.329,-3.329,-3.329,-3.329,-3.1858,-3.2424,-3.2815,-3.146,-3.1214,-3.1223,-3.0732,-2.9704,-2.8991,-2.9441,-2.8899,-2.8631,-2.9406,-2.9576,-3.0039,-3.1145,-3.2471,-3.3575,-3.4302,-3.5367,-3.6013,-3.6013,-3.6392,-3.6628,-3.6628,-3.6875,-3.7108,-3.7413,-3.7459,-3.7286,-3.6828,-3.6358,-3.5796,-3.5103,-3.4633,-3.4397,-3.4397,-3.4397,-3.4397,-3.4397,-3.4397,-3.4397,-3.4397,-3.4397,-3.4397,-3.4397,-3.4397,-3.4397,-3.4397,-3.4397,-3.4397,-3.4397,-3.4397,-3.4397,-3.4397,-3.4397,-3.4397,-3.4397,-3.4397,-3.4397,-3.4397,-3.4397,-3.4397,-3.4397,-3.4397,-3.4306,-3.3992,-3.2986,-3.2594,-3.2267,-3.1248,-3.0986,-3.0986,-3.0986,-3.0986,-3.0986,-3.0986,-3.0986,-3.0986,-3.0986,-3.0986,-3.0986,-3.0986,-3.0986,-3.0986,-3.0986,-3.0986,-3.0986,-3.0986,-3.0986,-3.0986,-3.0986,-3.1272,-3.1347,-3.1024,-3.1272,-3.174,-3.2417,-3.2525,-3.2561,-3.2561,-3.2561,-3.2561,-3.2561,-3.2561,-3.2753,-3.3171,-3.3171,-3.3206,-3.329,-3.329,-3.3361,-3.1858,-3.2022,-3.2084,-3.0857,-3.0588,-3.0317,-2.9198,-2.8502,-2.7998,-2.7584,-2.7441,-2.7441,-2.7489,-2.7823,-2.8543,-3.0035,-3.0773,-3.1667,-3.3132,-3.4239,-3.4933,-3.4933,-3.581,-3.6405,-3.6405,-3.6628,-3.6815,-3.7108,-3.7366,-3.7105,-3.6227,-3.6123,-3.56,-3.4502,-3.4424,-3.4397,-3.4397,-3.4397,-3.4397,-3.4397,-3.4397,-3.4397,-3.4397,-3.4397,-3.4397,-3.4397,-3.4397,-3.4397,-3.4397,-3.4397,-3.4397,-3.4397,-3.4397,-3.4397,-3.4397,-3.4397,-3.4397,-3.4397,-3.4397,-3.4397,-3.4397,-3.4397,-3.4397,-3.4397,-3.4397,-3.4045,-3.3522,-3.2868,-3.2319,-3.1719,-3.1143,-3.0986,-3.0986,-3.0986,-3.0986,-3.0986,-3.0986,-3.0986,-3.0986,-3.0986,-3.0986,-3.0986,-3.0986,-3.0986,-3.0986,-3.0986,-3.0986,-3.0986,-3.0986,-3.0986,-3.0986,-3.0986,-3.1024,-3.1024,-3.0986,-3.1024,-3.1235,-3.1666,-3.1982,-3.2128,-3.2128,-3.2128,-3.2128,-3.2128,-3.2128,-3.2345,-3.2739,-3.2739,-3.2931,-3.329,-3.329,-3.3585,-3.1333,-3.1448,-3.1545,-3.0227,-2.9417,-2.8817,-2.842,-2.7904,-2.7489,-2.7357,-2.7309,-2.7309,-2.7309,-2.7396,-2.78,-2.8617,-2.9699,-3.0767,-3.1661,-3.2944,-3.4042,-3.4727,-3.5174,-3.5667,-3.6358,-3.6452,-3.6628,-3.6815,-3.6636,-3.6341,-3.5924,-3.5565,-3.505,-3.4424,-3.4397,-3.4397,-3.4397,-3.4397,-3.4397,-3.4397,-3.4397,-3.4397,-3.4397,-3.4397,-3.4397,-3.4397,-3.4397,-3.4397,-3.4397,-3.4397,-3.4397,-3.4397,-3.4397,-3.4397,-3.4397,-3.4397,-3.4397,-3.4397,-3.4397,-3.4397,-3.4397,-3.4397,-3.4397,-3.4397,-3.4397,-3.4018,-3.347,-3.2868,-3.228,-3.168,-3.113,-3.0986,-3.0986,-3.0986,-3.0986,-3.0986,-3.0986,-3.0986,-3.0986,-3.0986,-3.0986,-3.0986,-3.0986,-3.0986,-3.0986,-3.0986,-3.0986,-3.0986,-3.0986,-3.0986,-3.0986,-3.0986,-3.0986,-3.0986,-3.0986,-3.0986,-3.1061,-3.1235,-3.1593,-3.1776,-3.1776,-3.1776,-3.1776,-3.1776,-3.1776,-3.1982,-3.2345,-3.2596,-3.2775,-3.2945,-3.3563,-3.3978,-3.0993,-3.1181,-3.1412,-2.9692,-2.8735,-2.8128,-2.7857,-2.7536,-2.7309,-2.7309,-2.7309,-2.7309,-2.7309,-2.7309,-2.7455,-2.7852,-2.8915,-2.9865,-3.0349,-3.1722,-3.2989,-3.3674,-3.4385,-3.5078,-3.581,-3.6216,-3.6499,-3.6675,-3.6202,-3.5838,-3.5659,-3.5166,-3.4701,-3.434,-3.4356,-3.4397,-3.4397,-3.4397,-3.4397,-3.4397,-3.4397,-3.4397,-3.4397,-3.4397,-3.4397,-3.4397,-3.4397,-3.4397,-3.4397,-3.4397,-3.4397,-3.4397,-3.4397,-3.4397,-3.4397,-3.4397,-3.4397,-3.4397,-3.4397,-3.4397,-3.4397,-3.4397,-3.4397,-3.4397,-3.4397,-3.3888,-3.3221,-3.2816,-3.215,-3.1445,-3.1091,-3.0986,-3.0986,-3.0986,-3.0986,-3.0986,-3.0986,-3.0986,-3.0986,-3.0986,-3.0986,-3.0986,-3.0986,-3.0986,-3.0986,-3.0986,-3.0986,-3.0986,-3.0986,-3.0986,-3.0986,-3.0986,-3.0986,-3.0986,-3.0986,-3.0986,-3.0986,-3.0986,-3.1272,-3.1421,-3.1421,-3.1421,-3.1421,-3.1421,-3.1421,-3.1593,-3.1946,-3.2391,-3.2727,-3.2994,-3.3899,-3.4413,-3.0993,-3.1436,-3.1721,-2.9371,-2.8735,-2.8445,-2.7536,-2.7309,-2.7309,-2.7309,-2.7309,-2.7309,-2.7309,-2.7309,-2.7455,-2.7841,-2.8307,-2.8773,-2.9239,-3.063,-3.1575,-3.1575,-3.3476,-3.4787,-3.4775,-3.5763,-3.6452,-3.6675,-3.6189,-3.5734,-3.5424,-3.5066,-3.4658,-3.4144,-3.4272,-3.4397,-3.4397,-3.4397,-3.4397,-3.4397,-3.4397,-3.4397,-3.4397,-3.4397,-3.4397,-3.4397,-3.4397,-3.4397,-3.4397,-3.4397,-3.4397,-3.4397,-3.4397,-3.4397,-3.4397,-3.4397,-3.4397,-3.4397,-3.4397,-3.4397,-3.4397,-3.4397,-3.4397,-3.4397,-3.4397,-3.36,-3.2685,-3.2685,-3.1862,-3.0986,-3.0986,-3.0986,-3.0986,-3.0986,-3.0986,-3.0986,-3.0986,-3.0986,-3.0986,-3.0986,-3.0986,-3.0986,-3.0986,-3.0986,-3.0986,-3.0986,-3.0986,-3.0986,-3.0986,-3.0986,-3.0986,-3.0986,-3.0986,-3.0986,-3.0986,-3.0986,-3.0986,-3.0986,-3.0986,-3.0986,-3.0986,-3.0986,-3.0986,-3.0986,-3.0999,-3.1211,-3.1606,-3.2142,-3.2799,-3.3629,-3.4227,-3.4834,-3.0852,-3.087,-3.087,-2.9613,-2.8735,-2.8128,-2.7857,-2.7536,-2.7309,-2.7309,-2.7309,-2.7309,-2.7309,-2.7309,-2.7351,-2.7486,-2.7831,-2.8286,-2.8752,-2.9513,-3.0361,-3.1491,-3.2185,-3.3128,-3.4629,-3.5078,-3.5607,-3.6452,-3.5584,-3.507,-3.5188,-3.4346,-3.3905,-3.4089,-3.416,-3.4285,-3.4397,-3.4397,-3.4397,-3.4397,-3.4397,-3.4397,-3.4397,-3.4397,-3.4397,-3.4397,-3.4397,-3.4397,-3.4397,-3.4397,-3.4397,-3.4397,-3.4397,-3.4397,-3.4397,-3.4397,-3.4397,-3.4397,-3.4397,-3.4397,-3.4397,-3.4397,-3.4397,-3.4397,-3.4397,-3.36,-3.2685,-3.2685,-3.1862,-3.0986,-3.0986,-3.0986,-3.0986,-3.0986,-3.0986,-3.0986,-3.0986,-3.0986,-3.0986,-3.0986,-3.0986,-3.0986,-3.0986,-3.0986,-3.0986,-3.0986,-3.0986,-3.0986,-3.0986,-3.0986,-3.0986,-3.0986,-3.0986,-3.0986,-3.0986,-3.0986,-3.0986,-3.0986,-3.0986,-3.0986,-3.0986,-3.0986,-3.0986,-3.0986,-3.1378,-3.1626,-3.1727,-3.2627,-3.3151,-3.3421,-3.4285,-3.4821,-3.1245,-3.1173,-3.1105,-3.0158,-2.9106,-2.8233,-2.7809,-2.7489,-2.7309,-2.7309,-2.7309,-2.7309,-2.7309,-2.7309,-2.7309,-2.7309,-2.7634,-2.8028,-2.8297,-2.8897,-2.965,-3.0568,-3.1221,-3.2123,-3.3377,-3.4276,-3.5078,-3.5715,-3.5098,-3.4771,-3.4918,-3.3964,-3.3569,-3.3937,-3.4034,-3.4202,-3.4397,-3.4397,-3.4397,-3.4397,-3.4397,-3.4397,-3.4397,-3.4397,-3.4397,-3.4397,-3.4397,-3.4397,-3.4397,-3.4397,-3.4397,-3.4397,-3.4397,-3.4397,-3.4397,-3.4397,-3.4397,-3.4397,-3.4397,-3.4397,-3.4397,-3.4397,-3.4397,-3.4397,-3.4397,-3.36,-3.2685,-3.2685,-3.1862,-3.0986,-3.0986,-3.0986,-3.0986,-3.0986,-3.0986,-3.0986,-3.0986,-3.0986,-3.0986,-3.0986,-3.0986,-3.0986,-3.0986,-3.0986,-3.0986,-3.0986,-3.0986,-3.1065,-3.13,-3.1326,-3.1418,-3.164,-3.1666,-3.1666,-3.1666,-3.1666,-3.1666,-3.1666,-3.1666,-3.1666,-3.1666,-3.1444,-3.1431,-3.1653,-3.2006,-3.2137,-3.2137,-3.3014,-3.3489,-3.3661,-3.4526,-3.4915,-3.1886,-3.1942,-3.1935,-3.0833,-2.9692,-2.8524,-2.7547,-2.7309,-2.7309,-2.7309,-2.7309,-2.7309,-2.7309,-2.7309,-2.7309,-2.7309,-2.7603,-2.7872,-2.7865,-2.868,-2.9259,-2.9301,-3.0549,-3.1472,-3.1575,-3.3377,-3.4581,-3.4775,-3.4669,-3.4577,-3.4668,-3.3846,-3.3484,-3.367,-3.3907,-3.416,-3.4356,-3.4356,-3.4397,-3.4397,-3.4397,-3.4397,-3.4397,-3.4397,-3.4397,-3.4397,-3.4397,-3.4397,-3.4397,-3.4397,-3.4397,-3.4397,-3.4397,-3.4397,-3.4397,-3.4397,-3.4397,-3.4397,-3.4397,-3.4397,-3.4397,-3.4397,-3.4397,-3.4397,-3.4397,-3.36,-3.2685,-3.2685,-3.1862,-3.0986,-3.0986,-3.0986,-3.0986,-3.0986,-3.0986,-3.0986,-3.0986,-3.0986,-3.0986,-3.0986,-3.0986,-3.0986,-3.0986,-3.0986,-3.0999,-3.1052,-3.1104,-3.1326,-3.181,-3.1876,-3.2071,-3.2633,-3.2685,-3.2685,-3.2685,-3.2685,-3.2685,-3.2685,-3.2685,-3.2712,-3.2777,-3.2189,-3.2124,-3.2685,-3.2738,-3.2777,-3.2777,-3.3378,-3.3856,-3.4219,-3.4792,-3.5031,-3.1743,-3.168,-3.1595,-3.1231,-2.9932,-2.8524,-2.7547,-2.7309,-2.7309,-2.7309,-2.7309,-2.7309,-2.7309,-2.7309,-2.7309,-2.7309,-2.7382,-2.7521,-2.7872,-2.8411,-2.8897,-2.9259,-2.9912,-3.0681,-3.1524,-3.2033,-3.2978,-3.4678,-3.3978,-3.3799,-3.468,-3.3715,-3.3283,-3.3484,-3.3526,-3.3738,-3.416,-3.416,-3.4243,-3.4397,-3.4397,-3.4397,-3.4397,-3.4397,-3.4397,-3.4397,-3.4397,-3.4397,-3.4397,-3.4397,-3.4397,-3.4397,-3.4397,-3.4397,-3.4397,-3.4397,-3.4397,-3.4397,-3.4397,-3.4397,-3.4397,-3.4397,-3.4397,-3.4397,-3.4397,-3.36,-3.2685,-3.2685,-3.1862,-3.0986,-3.0986,-3.0986,-3.0986,-3.0986,-3.0986,-3.0986,-3.0986,-3.0986,-3.0986,-3.0986,-3.0986,-3.0986,-3.0986,-3.0986,-3.1143,-3.1549,-3.2032,-3.2372,-3.2489,-3.2515,-3.2555,-3.2685,-3.2685,-3.2685,-3.2685,-3.2685,-3.2685,-3.2685,-3.2685,-3.2908,-3.3378,-3.2829,-3.2568,-3.2685,-3.3156,-3.3391,-3.3404,-3.3953,-3.4256,-3.4339,-3.4511,-3.4564,-3.2106,-3.2089,-3.1833,-3.1095,-2.984,-2.8617,-2.7809,-2.7441,-2.7309,-2.7309,-2.7309,-2.7309,-2.7309,-2.7309,-2.7309,-2.7309,-2.7309,-2.7382,-2.7572,-2.7997,-2.8452,-2.8918,-2.9384,-2.9943,-3.0764,-3.1278,-3.2083,-3.3178,-3.3149,-3.3361,-3.3891,-3.3395,-3.3197,-3.3398,-3.3398,-3.3611,-3.4118,-3.4118,-3.4202,-3.4397,-3.4397,-3.4397,-3.4397,-3.4397,-3.4397,-3.4397,-3.4397,-3.4397,-3.4397,-3.4397,-3.4397,-3.4397,-3.4397,-3.4397,-3.4397,-3.4397,-3.4397,-3.4397,-3.4397,-3.4397,-3.4397,-3.4397,-3.4397,-3.4397,-3.4397,-3.36,-3.2685,-3.2685,-3.1862,-3.0986,-3.0986,-3.0986,-3.0986,-3.0986,-3.0986,-3.0986,-3.0986,-3.0986,-3.0986,-3.0986,-3.0986,-3.0986,-3.0986,-3.1209,-3.1588,-3.2163,-3.2502,-3.279,-3.3091,-3.3117,-3.3221,-3.3483,-3.3509,-3.3509,-3.3509,-3.3509,-3.3509,-3.3509,-3.3509,-3.3652,-3.3966,-3.3679,-3.3509,-3.3509,-3.3809,-3.3979,-3.3979,-3.4254,-3.4397,-3.4397,-3.4397,-3.4397,-3.2411,-3.2529,-3.2189,-3.085,-2.9783,-2.8874,-2.8186,-2.7715,-2.7404,-2.7309,-2.7309,-2.7309,-2.7309,-2.7309,-2.7309,-2.7309,-2.7309,-2.7309,-2.7309,-2.7645,-2.809,-2.8556,-2.9021,-2.9487,-2.9953,-3.0785,-3.1381,-3.1575,-3.237,-3.2885,-3.3071,-3.3106,-3.3197,-3.3356,-3.3356,-3.3569,-3.4034,-3.4034,-3.416,-3.4397,-3.4397,-3.4397,-3.4397,-3.4397,-3.4397,-3.4397,-3.4397,-3.4397,-3.4397,-3.4397,-3.4397,-3.4397,-3.4397,-3.4397,-3.4397,-3.4397,-3.4397,-3.4397,-3.4397,-3.4397,-3.4397,-3.4397,-3.4397,-3.4397,-3.4397,-3.3679,-3.2829,-3.2725,-3.194,-3.1117,-3.1013,-3.0986,-3.0986,-3.0986,-3.0986,-3.0986,-3.0986,-3.0986,-3.0986,-3.0986,-3.1065,-3.113,-3.113,-3.1692,-3.2267,-3.2777,-3.2921,-3.3169,-3.3666,-3.3731,-3.3901,-3.4345,-3.4397,-3.4397,-3.4397,-3.4397,-3.4397,-3.4397,-3.4397,-3.4397,-3.4397,-3.4397,-3.4397,-3.4397,-3.4397,-3.4397,-3.4397,-3.4397,-3.4397,-3.4397,-3.4397,-3.4397,-3.1902,-3.2193,-3.2189,-3.085,-3.0407,-2.9863,-2.8362,-2.794,-2.7809,-2.7394,-2.7309,-2.7309,-2.7309,-2.7309,-2.7309,-2.7309,-2.7309,-2.7309,-2.7309,-2.7645,-2.809,-2.8556,-2.9021,-2.9487,-2.9953,-3.0141,-3.0588,-3.1524,-3.1653,-3.2136,-3.3071,-3.3106,-3.3124,-3.3154,-3.3154,-3.3326,-3.3755,-3.3755,-3.3979,-3.4397,-3.4397,-3.4397,-3.4397,-3.4397,-3.4397,-3.4397,-3.4397,-3.4397,-3.4397,-3.4397,-3.4397,-3.4397,-3.4397,-3.4397,-3.4397,-3.4397,-3.4397,-3.4397,-3.4397,-3.4397,-3.4397,-3.4397,-3.4397,-3.4397,-3.4397,-3.3966,-3.3365,-3.2842,-3.2228,-3.1575,-3.1117,-3.0986,-3.0986,-3.0986,-3.0986,-3.0986,-3.0986,-3.0986,-3.0986,-3.0986,-3.1392,-3.1693,-3.1693,-3.2633,-3.3378,-3.3456,-3.3875,-3.4201,-3.428,-3.4293,-3.4319,-3.4384,-3.4397,-3.4397,-3.4397,-3.4397,-3.4397,-3.4397,-3.4397,-3.4397,-3.4397,-3.4397,-3.4397,-3.4397,-3.4397,-3.4397,-3.4397,-3.4397,-3.4397,-3.4397,-3.4397,-3.4397,-3.2253,-3.2413,-3.2454,-3.2179,-3.1303,-3.0317,-2.9589,-2.8667,-2.7951,-2.7715,-2.7489,-2.7309,-2.7309,-2.7309,-2.7309,-2.7309,-2.7309,-2.7309,-2.7309,-2.7427,-2.781,-2.8524,-2.8794,-2.9208,-2.9922,-2.9994,-3.0193,-3.0692,-3.0701,-3.1148,-3.2136,-3.2235,-3.2537,-3.3068,-3.3124,-3.324,-3.3513,-3.3641,-3.3937,-3.4397,-3.4397,-3.4397,-3.4397,-3.4397,-3.4397,-3.4397,-3.4397,-3.4397,-3.4397,-3.4397,-3.4397,-3.4397,-3.4397,-3.4397,-3.4397,-3.4397,-3.4397,-3.4397,-3.4397,-3.4397,-3.4397,-3.4397,-3.4397,-3.4397,-3.4397,-3.4018,-3.3535,-3.3273,-3.2777,-3.2267,-3.2006,-3.194,-3.1862,-3.1535,-3.1705,-3.1849,-3.1535,-3.1209,-3.1078,-3.1405,-3.1927,-3.2424,-3.2764,-3.3247,-3.3692,-3.3992,-3.4241,-3.4397,-3.4397,-3.4397,-3.4397,-3.4397,-3.4397,-3.4397,-3.4397,-3.4397,-3.4397,-3.4397,-3.4397,-3.4397,-3.4397,-3.4397,-3.4397,-3.4397,-3.4397,-3.4397,-3.4397,-3.4397,-3.4397,-3.4397,-3.4397,-3.4397,-3.2384,-3.2418,-3.2447,-3.3047,-3.2062,-3.0903,-3.0598,-2.9543,-2.8538,-2.8222,-2.7809,-2.7489,-2.7489,-2.7394,-2.7309,-2.7309,-2.7309,-2.7309,-2.7309,-2.7309,-2.7593,-2.8504,-2.8618,-2.898,-2.9911,-2.9994,-2.9994,-2.9994,-3.0191,-3.053,-3.1112,-3.1538,-3.2091,-3.2711,-3.2982,-3.3197,-3.3398,-3.3683,-3.3937,-3.423,-3.4356,-3.4356,-3.4314,-3.4397,-3.4397,-3.4397,-3.4397,-3.4397,-3.4397,-3.4397,-3.4397,-3.4397,-3.4397,-3.4397,-3.4397,-3.4397,-3.4397,-3.4397,-3.4397,-3.4397,-3.4397,-3.4397,-3.4397,-3.4397,-3.4397,-3.4123,-3.377,-3.3626,-3.3273,-3.2881,-3.2725,-3.2685,-3.2594,-3.2124,-3.2385,-3.2581,-3.2111,-3.1718,-3.1548,-3.1928,-3.2529,-3.3064,-3.3509,-3.3705,-3.3927,-3.4332,-3.4397,-3.4397,-3.4397,-3.4397,-3.4397,-3.4397,-3.4397,-3.4397,-3.4397,-3.4397,-3.4397,-3.4397,-3.4397,-3.4397,-3.4397,-3.4397,-3.4397,-3.4397,-3.4397,-3.4397,-3.4397,-3.4397,-3.4397,-3.4397,-3.4397,-3.4397,-3.1836,-3.1824,-3.1954,-3.2431,-3.2478,-3.2057,-3.0784,-3.0453,-3.0045,-2.891,-2.8315,-2.7951,-2.7951,-2.7584,-2.7309,-2.7309,-2.7309,-2.7309,-2.7309,-2.7309,-2.7593,-2.8504,-2.8618,-2.898,-2.9911,-2.9994,-2.9994,-2.9994,-3.048,-3.0586,-3.0199,-3.1518,-3.2052,-3.1693,-3.2624,-3.3197,-3.3398,-3.3865,-3.3937,-3.3755,-3.4189,-3.4314,-3.4118,-3.4314,-3.4397,-3.4397,-3.4397,-3.4397,-3.4397,-3.4397,-3.4397,-3.4397,-3.4397,-3.4397,-3.4397,-3.4397,-3.4397,-3.4397,-3.4397,-3.4397,-3.4397,-3.4397,-3.4397,-3.4397,-3.4397,-3.4384,-3.4241,-3.3731,-3.3574,-3.3417,-3.2842,-3.2685,-3.2685,-3.2659,-3.2672,-3.2685,-3.2659,-3.262,-3.2607,-3.2646,-3.313,-3.3548,-3.3587,-3.4018,-3.4358,-3.4397,-3.4397,-3.4397,-3.4397,-3.4397,-3.4397,-3.4397,-3.4397,-3.4397,-3.4397,-3.4397,-3.4397,-3.4397,-3.4397,-3.4397,-3.4397,-3.4397,-3.4397,-3.4397,-3.4397,-3.4397,-3.4397,-3.4397,-3.4397,-3.4397,-3.4397,-3.4397,-3.1951,-3.1797,-3.1941,-3.2471,-3.2557,-3.2365,-3.1907,-3.1479,-3.0968,-3.0034,-2.9498,-2.8899,-2.8128,-2.7631,-2.7309,-2.7309,-2.7309,-2.7309,-2.7309,-2.7309,-2.7537,-2.809,-2.8431,-2.8856,-2.9497,-2.9818,-2.9994,-2.9994,-2.9909,-2.9891,-3.0112,-3.0874,-3.1431,-3.1593,-3.2581,-3.3197,-3.3398,-3.3569,-3.3696,-3.3713,-3.4021,-3.4076,-3.3852,-3.423,-3.4314,-3.4202,-3.4202,-3.4272,-3.4397,-3.4397,-3.4397,-3.4397,-3.4397,-3.4397,-3.4397,-3.4397,-3.4397,-3.4397,-3.4397,-3.4397,-3.4397,-3.4397,-3.4397,-3.4397,-3.4397,-3.4397,-3.4358,-3.4162,-3.411,-3.4016,-3.3684,-3.3714,-3.3783,-3.3783,-3.3522,-3.3365,-3.3718,-3.3522,-3.3273,-3.3273,-3.3731,-3.411,-3.411,-3.4267,-3.4397,-3.4397,-3.4397,-3.4397,-3.4397,-3.4397,-3.4397,-3.4397,-3.4397,-3.4397,-3.4397,-3.4397,-3.4397,-3.4397,-3.4397,-3.4397,-3.4397,-3.4397,-3.4397,-3.4397,-3.4397,-3.4397,-3.4397,-3.4397,-3.4397,-3.4397,-3.4397,-3.4397,-3.2056,-3.1797,-3.1902,-3.2319,-3.2315,-3.2324,-3.2476,-3.2199,-3.1678,-3.0911,-3.0362,-2.9681,-2.8502,-2.7867,-2.7489,-2.7309,-2.7309,-2.7309,-2.7309,-2.7309,-2.7475,-2.7872,-2.8328,-2.8794,-2.9259,-2.9725,-2.9994,-2.9994,-2.9715,-2.9565,-2.9571,-3.0223,-3.087,-3.156,-3.2264,-3.284,-3.327,-3.3356,-3.3441,-3.3513,-3.3823,-3.3865,-3.3598,-3.3966,-3.4105,-3.3992,-3.3992,-3.4147,-3.4397,-3.4314,-3.4356,-3.4397,-3.4397,-3.4397,-3.4397,-3.4397,-3.4356,-3.4314,-3.4314,-3.4314,-3.4314,-3.4314,-3.4356,-3.4397,-3.4397,-3.4397,-3.4397,-3.4397,-3.4397,-3.4356,-3.416,-3.4147,-3.4189,-3.4189,-3.3957,-3.3884,-3.4236,-3.4069,-3.3862,-3.3862,-3.4162,-3.4397,-3.4397,-3.4397,-3.4397,-3.4397,-3.4397,-3.4397,-3.4397,-3.4397,-3.4397,-3.4397,-3.4397,-3.4397,-3.4397,-3.4397,-3.4397,-3.4397,-3.4397,-3.4397,-3.4397,-3.4397,-3.4397,-3.4397,-3.4397,-3.4397,-3.4397,-3.4397,-3.4397,-3.4397,-3.4397,-3.4397,0.0,0.0,0.0,-3.1836,-3.1836,-3.198,-3.2406,-3.2536,-3.2323,-3.1541,-3.097,-3.0227,-2.9071,-2.842,-2.7904,-2.7404,-2.7309,-2.7309,-2.7309,-2.7309,-2.7417,-2.7852,-2.8328,-2.8794,-2.9239,-2.9715,-2.9994,-2.9994,-2.9994,-2.9591,-2.8659,-2.9518,-3.0496,-3.1528,-3.1581,-3.2077,-3.3038,-3.3283,-3.3283,-3.3124,-3.3513,-3.3598,-3.3398,-3.3598,-3.3713,-3.367,-3.367,-3.3966,-3.4356,-3.416,-3.4202,-3.4397,-3.4397,-3.4397,-3.4397,-3.4397,-3.4285,-3.4118,-3.4118,-3.4076,-3.4076,-3.4076,-3.4243,-3.4397,-3.4397,-3.4397,-3.4397,-3.4397,-3.4397,-3.4314,-3.416,-3.3894,-3.367,-3.3713,-3.3894,-3.4076,-3.4076,-3.4243,-3.4397,-3.4397,-3.4397,-3.4397,-3.4397,-3.4397,-3.4397,-3.4397,-3.4397,-3.4397,-3.4397,-3.4397,-3.4397,-3.4397,-3.4397,-3.4397,-3.4397,-3.4397,-3.4397,-3.4397,-3.4397,-3.4397,-3.4397,-3.4397,-3.4397,-3.4397,-3.4397,-3.4397,-3.4397,-3.4397,-3.4397,-3.4397,-3.4397,-3.4397,-3.2804,0.0,0.0,0.0,0.0,0.0,-3.3251,-3.3586,-3.3646,-3.2963,-3.2686,-3.2052,-3.0362,-2.9909,-2.936,-2.8034,-2.7536,-2.7309,-2.7309,-2.7309,-2.7351,-2.7427,-2.8142,-2.8659,-2.8794,-2.9528,-2.9994,-2.9994,-2.9994,-2.9591,-2.8659,-2.8887,-2.9546,-3.0543,-3.1258,-3.1713,-3.1989,-3.2797,-3.3154,-3.3124,-3.3356,-3.3398,-3.3197,-3.3556,-3.3641,-3.3471,-3.3471,-3.3641,-3.3882,-3.3839,-3.3937,-3.416,-3.3979,-3.4021,-3.4202,-3.4202,-3.416,-3.4118,-3.4118,-3.3992,-3.381,-3.381,-3.3979,-3.416,-3.3937,-3.4021,-3.416,-3.3937,-3.3882,-3.3894,-3.3852,-3.3641,-3.3513,-3.367,-3.3768,-3.381,-3.381,-3.3839,-3.3966,-3.4314,-3.4397,-3.4356,-3.4202,-3.4202,-3.4202,-3.4202,-3.4202,-3.4243,-3.4397,-3.4397,-3.4397,-3.4397,-3.4397,-3.4397,-3.4397,-3.4397,-3.4397,-3.4397,-3.4397,-3.4397,-3.4397,-3.4397,-3.4397,-3.4397,-3.4397,-3.4397,-3.4397,-3.4397,-3.4397,-3.4397,-3.4397,-3.4397,-3.3369,-3.3064,-3.3012,-3.2751,0.0,0.0,-3.3535,-3.3835,-3.3916,-3.3475,-3.3398,-3.2902,-3.1247,-3.0968,-3.0429,-2.8724,-2.8222,-2.7904,-2.7357,-2.7309,-2.7309,-2.7309,-2.8059,-2.8618,-2.8618,-2.9446,-2.9994,-2.9994,-2.9818,-2.9301,-2.838,-2.82,-2.8585,-2.9532,-3.0079,-3.0767,-3.1581,-3.2164,-3.2667,-3.3124,-3.324,-3.3197,-3.3124,-3.3356,-3.3398,-3.3283,-3.3283,-3.3398,-3.3556,-3.3471,-3.3641,-3.3907,-3.3755,-3.381,-3.3937,-3.3937,-3.3865,-3.3823,-3.3823,-3.3696,-3.3556,-3.3556,-3.3725,-3.3894,-3.3755,-3.381,-3.3894,-3.3755,-3.3641,-3.3556,-3.3556,-3.3441,-3.3313,-3.3441,-3.3513,-3.3556,-3.3556,-3.3641,-3.3797,-3.4189,-3.4189,-3.4105,-3.4118,-3.3992,-3.3937,-3.3937,-3.4034,-3.416,-3.4285,-3.4356,-3.4397,-3.4397,-3.4397,-3.4397,-3.4397,-3.4397,-3.4397,-3.4397,-3.4397,-3.4397,-3.4397,-3.4397,-3.4397,-3.4397,-3.4397,-3.4397,-3.4397,-3.4397,-3.4397,-3.4397,-3.4397,-3.4397,-3.3809,-3.3679,-3.3548,-3.3012,-3.2881,0.0,-3.3561,-3.3679,-3.3658,-3.3551,-3.3526,-3.3159,-3.2028,-3.1809,-3.1267,-2.9658,-2.9349,-2.8852,-2.7489,-2.7309,-2.7309,-2.7309,-2.8017,-2.8556,-2.8607,-2.9404,-2.9942,-2.9994,-2.9518,-2.8845,-2.7966,-2.75,-2.7678,-2.8538,-2.8631,-2.9543,-3.127,-3.1492,-3.2033,-3.2939,-3.3038,-3.3124,-3.3124,-3.3124,-3.3124,-3.3124,-3.3124,-3.3197,-3.3356,-3.3154,-3.3313,-3.367,-3.3641,-3.3641,-3.367,-3.367,-3.3556,-3.3398,-3.3398,-3.3398,-3.3356,-3.3356,-3.3513,-3.367,-3.3641,-3.3641,-3.367,-3.3641,-3.3513,-3.3356,-3.3356,-3.324,-3.3124,-3.3124,-3.324,-3.3356,-3.3356,-3.3513,-3.3725,-3.3949,-3.3852,-3.3768,-3.3992,-3.381,-3.367,-3.367,-3.3852,-3.4034,-3.4034,-3.4189,-3.4314,-3.4356,-3.4356,-3.4397,-3.4397,-3.4397,-3.4397,-3.4397,-3.4397,-3.4397,-3.4397,-3.4397,-3.4397,-3.4397,-3.4397,-3.4397,-3.4397,-3.4397,-3.4397,-3.4397,-3.4397,-3.4397,-3.4267,-3.4241,-3.4214,-3.4097,-3.4071,0.0,-3.4214,-3.4241,-3.4225,-3.4204,-3.4189,-3.3979,-3.3202,-3.3031,-3.2618,-3.1311,-3.0911,-2.9966,-2.762,-2.7309,-2.7309,-2.7309,-2.7738,-2.8204,-2.8576,-2.9114,-2.9591,-2.9973,-2.9228,-2.8504,-2.7955,-2.75,-2.7394,-2.7584,-2.8315,-2.8863,-2.9268,-3.0812,-3.1713,-3.1901,-3.2711,-3.3124,-3.3124,-3.3124,-3.3124,-3.3124,-3.3124,-3.3124,-3.3154,-3.3124,-3.324,-3.3441,-3.3283,-3.3313,-3.3484,-3.3484,-3.3441,-3.3398,-3.3398,-3.3283,-3.3154,-3.3154,-3.3283,-3.3441,-3.3283,-3.3313,-3.3441,-3.3283,-3.3197,-3.3154,-3.3154,-3.3111,-3.3124,-3.3124,-3.3111,-3.3154,-3.3154,-3.3197,-3.3283,-3.3484,-3.3641,-3.3683,-3.3569,-3.3484,-3.3484,-3.3484,-3.3484,-3.3611,-3.3768,-3.3797,-3.3937,-3.416,-3.416,-3.4243,-3.4397,-3.4397,-3.4397,-3.4397,-3.4397,-3.4397,-3.4397,-3.4397,-3.4397,-3.4397,-3.4397,-3.4397,-3.4397,-3.4397,-3.4397,-3.4397,-3.4397,-3.4397,-3.4397,-3.4397,-3.4397,-3.4397,-3.4397,0.0,0.0,-3.4397,-3.4397,-3.4397,-3.4397,-3.4314,-3.3937,-3.3894,-3.3488,-3.2277,-3.1972,-3.1243,-2.9315,-2.8423,-2.7809,-2.7357,-2.7655,-2.7968,-2.8245,-2.869,-2.8959,-2.8959,-2.8535,-2.8069,-2.7614,-2.7423,-2.7309,-2.7309,-2.7762,-2.8222,-2.8678,-3.017,-3.1125,-3.1625,-3.2624,-3.3124,-3.3124,-3.3124,-3.3124,-3.3124,-3.3124,-3.3124,-3.3124,-3.3124,-3.3154,-3.324,-3.3154,-3.3154,-3.324,-3.324,-3.324,-3.324,-3.324,-3.3197,-3.3124,-3.3124,-3.3154,-3.324,-3.3111,-3.3154,-3.324,-3.3111,-3.3124,-3.3124,-3.3124,-3.3124,-3.3124,-3.3124,-3.3124,-3.3124,-3.3124,-3.3124,-3.3111,-3.324,-3.3313,-3.3398,-3.3398,-3.3313,-3.324,-3.324,-3.3356,-3.3441,-3.3556,-3.3641,-3.3755,-3.3894,-3.4034,-3.416,-3.4243,-3.4356,-3.4397,-3.4397,-3.4397,-3.4397,-3.4397,-3.4397,-3.4397,-3.4397,-3.4397,-3.4397,-3.4397,-3.4397,-3.4397,-3.4397,-3.4397,-3.4397,-3.4397,-3.4397,-3.4397,-3.4397,-3.4397,-3.4397,0.0,0.0,0.0,-3.4397,-3.4397,-3.4397,-3.4397,-3.4397,-3.4092,-3.3122,-3.2895,-3.2451,-3.1276,-3.009,-2.8899,-2.7762,-2.7717,-2.7821,-2.7865,-2.8421,-2.8514,-2.7917,-2.8007,-2.7821,-2.734,-2.7309,-2.7309,-2.7309,-2.7309,-2.7668,-2.8398,-2.9624,-3.0576,-3.1347,-3.2525,-3.3124,-3.3124,-3.3124,-3.3124,-3.3124,-3.3124,-3.3124,-3.3124,-3.3124,-3.3124,-3.3124,-3.3124,-3.3124,-3.3124,-3.3124,-3.3124,-3.3124,-3.3124,-3.3124,-3.3124,-3.3124,-3.3124,-3.3124,-3.3124,-3.3124,-3.3124,-3.3124,-3.3124,-3.3124,-3.3124,-3.3124,-3.3124,-3.3124,-3.3124,-3.3124,-3.3124,-3.3124,-3.3124,-3.3124,-3.3124,-3.3154,-3.3313,-3.3197,-3.3124,-3.3124,-3.324,-3.3356,-3.3356,-3.3471,-3.3598,-3.3641,-3.3865,-3.3992,-3.4076,-3.4243,-3.4356,-3.4397,-3.4397,-3.4397,-3.4397,-3.4397,-3.4397,-3.4397,-3.4397,-3.4397,-3.4397,-3.4397,-3.4397,-3.4397,-3.4397,-3.4397,-3.4397,-3.4397,-3.4397,-3.4397,-3.4397,-3.4397,-3.4397,0.0,-3.4397,-3.4397,0.0,-3.4397,-3.4397,0.0,0.0,-3.4217,-3.4063,-3.3501,-3.2302,-3.1833,-3.0946,-2.913,-2.7993,-2.7489,-2.7883,-2.8711,-2.8866,-2.7986,-2.8307,-2.8162,-2.7351,-2.7309,-2.7309,-2.7309,-2.7309,-2.7347,-2.7441,-2.9268,-3.026,-3.0396,-3.2208,-3.3124,-3.3124,-3.3124,-3.3124,-3.3124,-3.3124,-3.3124,-3.3124,-3.3124,-3.3124,-3.3124,-3.3124,-3.3124,-3.3124,-3.3124,-3.3124,-3.3124,-3.3124,-3.3124,-3.3124,-3.3124,-3.3124,-3.3124,-3.3124,-3.3124,-3.3124,-3.3124,-3.3124,-3.3124,-3.3124,-3.3124,-3.3124,-3.3124,-3.3124,-3.3124,-3.3124,-3.3124,-3.3124,-3.3124,-3.3124,-3.3124,-3.3111,-3.3124,-3.3124,-3.3124,-3.3124,-3.3111,-3.3111,-3.3154,-3.324,-3.3441,-3.3441,-3.3654,-3.4076,-3.4118,-3.4202,-3.4397,-3.4397,-3.4397,-3.4397,-3.4397,-3.4397,-3.4397,-3.4397,-3.4397,-3.4397,-3.4397,-3.4397,-3.4397,-3.4397,-3.4397,-3.4397,-3.4397,-3.4397,-3.4397,-3.4397,-3.4397,-3.4397,-3.4397,-3.4397,-3.4397,0.0,0.0,0.0,0.0,0.0,0.0,-3.4314,-3.4105,-3.3573,-3.2747,-3.1335,-2.913,-2.8398,-2.7978,-2.7617,-2.7893,-2.7955,-2.7572,-2.7717,-2.7714,-2.733,-2.7309,-2.7309,-2.7309,-2.7309,-2.7309,-2.7309,-2.9211,-3.0215,-3.0215,-3.2164,-3.3124,-3.3124,-3.3124,-3.3124,-3.3124,-3.3124,-3.3124,-3.3124,-3.3124,-3.3124,-3.3124,-3.3124,-3.3124,-3.3124,-3.3124,-3.3124,-3.3124,-3.3124,-3.3124,-3.3124,-3.3124,-3.3124,-3.3124,-3.3124,-3.3124,-3.3124,-3.3124,-3.3124,-3.3124,-3.3124,-3.3124,-3.3124,-3.3124,-3.3124,-3.3124,-3.3124,-3.3124,-3.3124,-3.3124,-3.3124,-3.3124,-3.3124,-3.3124,-3.3124,-3.3124,-3.3124,-3.3124,-3.3124,-3.3124,-3.3111,-3.324,-3.3313,-3.3484,-3.3696,-3.3949,-3.416,-3.4243,-3.4356,-3.4397,-3.4397,-3.4397,-3.4397,-3.4397,-3.4397,-3.4397,-3.4397,-3.4397,-3.4397,-3.4397,-3.4397,-3.4397,-3.4314,-3.4314,-3.4314,-3.4397,-3.4397,-3.4397,-3.4397,-3.4397,-3.4397,-3.4397,-3.4397,0.0,0.0,0.0,-3.4397,-3.4397,0.0,-3.4356,-3.423,-3.3318,-3.194,-2.9932,-2.9084,-2.8445,-2.7762,-2.7556,-2.7444,-2.732,-2.7423,-2.7434,-2.732,-2.7309,-2.7309,-2.7309,-2.7309,-2.7309,-2.7309,-2.8945,-2.9806,-2.9806,-3.1757,-3.2525,-3.2295,-3.2853,-3.2939,-3.2711,-3.2982,-3.3124,-3.3124,-3.3124,-3.3124,-3.3124,-3.3124,-3.3124,-3.3124,-3.3124,-3.3124,-3.3124,-3.3124,-3.3124,-3.3124,-3.3124,-3.3124,-3.3038,-3.2754,-3.2896,-3.3025,-3.2754,-3.2896,-3.3124,-3.3124,-3.3124,-3.3124,-3.3124,-3.3124,-3.3124,-3.3124,-3.3124,-3.3124,-3.3124,-3.3124,-3.3124,-3.3124,-3.3124,-3.3124,-3.3124,-3.3124,-3.3124,-3.3124,-3.3124,-3.3124,-3.3124,-3.324,-3.3356,-3.3398,-3.3696,-3.3949,-3.4076,-3.4243,-3.4356,-3.4397,-3.4397,-3.4397,-3.4397,-3.4397,-3.4397,-3.4397,-3.4397,-3.4397,-3.4397,-3.4397,-3.4397,-3.4034,-3.4118,-3.416,-3.4356,-3.4397,-3.4397,-3.4397,-3.4397,-3.4397,-3.4397,-3.4397,-3.4397,-3.4397,-3.4397,-3.4397,-3.4397,-3.4397,0.0,0.0,-3.367,-3.3275,-3.2302,-3.0113,-2.8678,-2.8678,-2.82,-2.7728,-2.734,-2.7655,-2.7717,-2.733,-2.7309,-2.7309,-2.7309,-2.7309,-2.7309,-2.7309,-2.8269,-2.8771,-2.8771,-3.0722,-3.1169,-3.0351,-3.2251,-3.2581,-3.1713,-3.2667,-3.3124,-3.3124,-3.3124,-3.3124,-3.3124,-3.3124,-3.3124,-3.3124,-3.3124,-3.3124,-3.3124,-3.3124,-3.3124,-3.3124,-3.3124,-3.3124,-3.2939,-3.1945,-3.2307,-3.2896,-3.1945,-3.2351,-3.3124,-3.3124,-3.3124,-3.3124,-3.3124,-3.3124,-3.3124,-3.3124,-3.3124,-3.3124,-3.3124,-3.3124,-3.3124,-3.3124,-3.3124,-3.3124,-3.3124,-3.3124,-3.3124,-3.3124,-3.3124,-3.3124,-3.3124,-3.3124,-3.3197,-3.3398,-3.3398,-3.3611,-3.4076,-3.4118,-3.4202,-3.4397,-3.4397,-3.4397,-3.4397,-3.4397,-3.4397,-3.4397,-3.4397,-3.4397,-3.4397,-3.4397,-3.4397,-3.381,-3.3852,-3.3894,-3.416,-3.4202,-3.4243,-3.4356,-3.4397,-3.4397,-3.4397,-3.4397,-3.4397,-3.4397,-3.4397,-3.4397,-3.4397,-3.4397,-3.4356,0.0,-3.3882,-3.3543,-3.3074,-3.1057,-2.9441,-2.8771,-2.8549,-2.811,-2.7367,-2.7444,-2.7417,-2.732,-2.7309,-2.7309,-2.7309,-2.7309,-2.7309,-2.7309,-2.8222,-2.8678,-2.8724,-3.0034,-3.0486,-3.026,-3.1536,-3.1945,-3.1669,-3.2667,-3.3124,-3.3124,-3.3124,-3.3124,-3.3124,-3.3124,-3.3124,-3.3124,-3.3124,-3.3124,-3.3124,-3.3124,-3.3124,-3.3124,-3.3124,-3.2667,-3.2033,-3.1713,-3.1392,-3.1125,-3.0756,-3.1347,-3.212,-3.212,-3.2581,-3.3124,-3.3124,-3.3124,-3.3124,-3.3124,-3.3124,-3.3124,-3.3124,-3.3124,-3.3124,-3.3124,-3.3124,-3.3124,-3.3124,-3.3124,-3.3124,-3.3124,-3.3124,-3.3124,-3.3124,-3.3124,-3.3111,-3.3197,-3.3313,-3.3526,-3.381,-3.3852,-3.3937,-3.4202,-3.4202,-3.4285,-3.4397,-3.4397,-3.4397,-3.4397,-3.4397,-3.4397,-3.4397,-3.4397,-3.4397,-3.3556,-3.3598,-3.3641,-3.3907,-3.3949,-3.4021,-3.423,-3.4272,-3.4272,-3.4272,-3.4356,-3.4356,-3.4189,-3.4272,-3.4397,-3.4314,-3.4356,-3.4356,0.0,-3.3768,-3.3441,-3.3313,-3.1745,-3.0306,-2.9314,-2.891,-2.8315,-2.7357,-2.7309,-2.7309,-2.7309,-2.7309,-2.7309,-2.7309,-2.7309,-2.7309,-2.7309,-2.7904,-2.8222,-2.8222,-2.9222,-2.9486,-2.9222,-3.0486,-3.108,-3.1169,-3.212,-3.2754,-3.3124,-3.3124,-3.3124,-3.3081,-3.2711,-3.281,-3.3124,-3.3124,-3.3124,-3.3124,-3.3124,-3.3124,-3.3124,-3.3124,-3.2438,-3.1536,-3.1214,-3.0666,-3.0159,-2.9976,-3.0489,-3.1217,-3.172,-3.2223,-3.2667,-3.3025,-3.3124,-3.3124,-3.3124,-3.3124,-3.3124,-3.3124,-3.3124,-3.3124,-3.3124,-3.3124,-3.3124,-3.3124,-3.3124,-3.3124,-3.3124,-3.3124,-3.3124,-3.3124,-3.3124,-3.3124,-3.3124,-3.324,-3.3398,-3.3598,-3.3598,-3.3683,-3.3949,-3.3949,-3.4124,-3.4458,-3.4334,-3.4376,-3.4585,-3.446,-3.4397,-3.4397,-3.4397,-3.4397]},{"header":{"parameterUnit":"m.s-1","parameterCategory":1,"la1":30.6,"la2":29.2853,"lo1":-89.7004,"lo2":-87.6739,"dy":0.0162,"dx":0.0183,"nx":112,"ny":82,"refTime":"2024-04-26T12:00:00:Z","depth":0,"parameterNumber":3,"parameterNumberName":"V-component_of_WINDS"},"data":[0.0,0.0,0.0,0.0,0.0,0.0,0.0,0.0,0.0,0.0,0.0,0.0,0.0,0.0,0.0,0.0,0.0,0.0,0.0,0.0,0.0,0.0,0.0,0.0,0.0,0.0,0.0,0.0,0.0,0.0,0.0,0.0,0.0,0.0,0.0,0.0,0.0,0.0,0.0,0.0,0.0,0.0,0.0,0.0,0.0,0.0,0.0,0.0,0.0,0.0,0.0,0.0,0.0,0.0,0.0,0.0,0.0,0.0,0.0,0.0,0.0,0.0,0.0,0.0,0.0,0.0,0.0,0.0,0.0,0.0,0.0,0.0,0.0,0.0,0.0,0.0,0.0,0.0,0.0,0.0,0.0,0.0,0.0,0.0,0.0,0.0,0.0,0.0,0.0,0.0,0.721,0.721,0.721,0.721,0.721,0.598,0.4583,0.3018,0.0,0.0,0.0,0.0,0.0,0.0,0.0,0.0,0.0,0.0,0.0,0.0,0.0,0.0,0.0,0.0,0.0,0.0,0.0,0.0,0.0,0.0,0.0,0.0,0.0,0.0,0.0,0.0,0.0,0.0,0.0,0.0,0.0,0.0,0.0,0.0,0.0,0.0,0.0,0.0,0.0,0.0,0.0,0.0,0.0,0.0,0.0,0.0,0.0,0.0,0.0,0.0,0.0,0.0,0.0,0.0,0.0,0.0,0.0,0.0,0.0,0.0,0.0,0.0,0.0,0.0,0.0,0.0,0.0,0.0,0.0,0.0,0.0,0.0,0.0,0.0,0.0,0.0,0.0,0.0,0.0,0.0,0.0,0.0,0.0,0.0,0.0,0.0,0.0,0.0,0.0,0.0,0.0,0.0,0.0,0.0,0.0,0.0,0.0,0.0,0.0,0.0,0.0,0.0,0.721,0.721,0.721,0.721,0.721,0.6988,0.5982,0.3917,0.0,0.0,0.0,0.0,0.0,0.0,0.0,0.0,0.0,0.0,0.0,0.0,0.0,0.0,0.0,0.0,0.0,0.0,0.0,0.0,0.0,0.0,0.0,0.0,0.0,0.0,0.0,0.0,0.0,0.0,0.0,0.0,0.0,0.0,0.0,0.0,0.0,0.0,0.0,0.0,0.0,0.0,0.0,0.0,0.0,0.0,0.0,0.0,0.0,0.0,0.0,0.0,0.0,0.0,0.0,0.0,0.0,0.0,0.0,0.0,0.0,0.0,0.0,0.0,0.0,0.0,0.0,0.0,0.0,0.0,0.0,0.0,0.0,0.0,0.0,0.0,0.0,0.0,0.0,0.0,0.0,0.0,0.0,0.0,0.0,0.0,0.0,0.0,0.0,0.0,0.0,0.0,0.0,0.0,0.0,0.0,0.0,0.0,0.0,0.0,0.0,0.0,0.0,0.721,0.721,0.721,0.721,0.721,0.721,0.721,0.626,0.414,0.2965,0.0,0.0,0.0,0.0,0.0,0.0,0.0,0.0,0.0,0.0,0.0,0.0,0.0,0.0,0.0,0.0,0.0,0.0,0.0,0.0,0.0,0.0,0.0,0.0,0.0,0.0,0.0,0.0,0.0,0.0,0.0,0.0,0.0,0.0,0.0,0.0,0.0,0.0,0.0,0.0,0.0,0.0,0.0,0.0,0.0,0.0,0.0,0.0,0.0,0.0,0.0,0.0,0.0,0.0,0.0,0.0,0.0,0.0,0.0,0.0,0.0,0.0,0.0,0.0,0.0,0.0,0.0,0.0,0.0,0.0,0.0,0.0,0.0,0.0,0.0,0.0,0.0,0.0,0.0,0.0,0.0,0.0,0.0,0.0,0.0,0.0,0.0,0.0,0.0,0.0,0.0,0.0,0.0,0.0,0.0,0.0,0.0,0.0,0.0,0.0,0.0,0.0,0.7321,0.721,0.721,0.721,0.721,0.721,0.721,0.6427,0.4643,0.4196,0.0,0.0,0.0,0.0,0.0,0.0,0.0,0.0,0.0,0.0,0.0,0.0,0.0,0.0,0.0,0.0,0.0,0.0,0.0,0.0,0.0,0.0,0.0,0.0,0.0,0.0,0.0,0.0,0.0,0.0,0.0,0.0,0.0,0.0,0.0,0.0,0.0,0.0,0.0,0.0,0.0,0.0,0.0,0.0,0.0,0.0,0.0,0.0,0.0,0.0,0.0,0.0,0.0,0.0,0.0,0.0,0.0,0.0,0.0,0.0,0.0,0.0,0.0,0.0,0.0,0.0,0.0,0.0,0.0,0.0,0.0,0.0,0.0,0.0,0.0,0.0,0.0,0.0,0.0,0.0,0.0,0.0,0.0,0.0,0.0,0.0,0.0,0.0,0.0,0.0,0.0,0.0,0.0,0.0,0.0,0.0,0.0,0.0,0.0,0.0,0.0,0.0,0.7709,0.721,0.721,0.721,0.721,0.721,0.721,0.6874,0.6207,0.481,0.0,0.0,0.0,0.0,0.0,0.0,0.0,0.0,0.0,0.0,0.0,0.0,0.0,0.0,0.0,0.0,0.0,0.0,0.0,0.0,0.0,0.0,0.0,0.0,0.0,0.0,0.0,0.0,0.0,0.0,0.0,0.0,0.0,0.0,0.0,0.0,0.0,0.0,0.0,0.0,0.0,0.0,0.0,0.0,0.0,0.0,0.0,0.0,0.0,0.0,0.0,0.0,0.0,0.0,0.0,0.0,0.0,0.0,0.0,0.0,0.0,0.0,0.0,0.0,0.0,0.0,0.0,0.0,0.0,0.0,0.0,0.0,0.0,0.0,0.0,0.0,0.0,0.0,0.0,0.0,0.0,0.0,0.0,0.0,0.0,0.0,0.0,0.0,0.0,0.0,0.0,0.0,0.0,0.0,0.0,0.0,0.0,0.0,0.0,0.0,0.0,0.0,0.8208,0.782,0.7265,0.721,0.721,0.721,0.721,0.6932,0.6318,0.0,0.0,0.0,0.0,0.0,0.0,0.0,0.0,0.0,0.0,0.0,0.0,0.0,0.0,0.0,0.0,0.0,0.0,0.0,0.0,0.0,0.0,0.0,0.0,0.0,0.0,0.0,0.0,0.0,0.0,0.0,0.0,0.0,0.0,0.0,0.0,0.0,0.0,0.0,0.0,0.0,0.0,0.0,0.0,0.0,0.0,0.0,0.0,0.0,0.0,0.0,0.0,0.0,0.0,0.0,0.0,0.0,0.0,0.0,0.0,0.0,0.0,0.0,0.0,0.0,0.0,0.0,0.0,0.0,0.0,0.0,0.0,0.0,0.0,0.0,0.0,0.0,0.0,0.0,0.0,0.0,0.0,0.0,0.0,0.0,0.0,0.0,0.0,0.0,0.0,0.0,0.0,0.0,0.0,0.0,0.0,0.0,0.0,0.0,0.0,0.0,0.0,0.942,0.9089,0.8592,0.7709,0.7598,0.7487,0.721,0.721,0.7043,0.6599,0.0,0.0,0.0,0.0,0.0,0.0,0.0,0.0,0.0,0.0,0.0,0.0,0.0,0.0,0.0,0.0,0.0,0.0,0.0,0.0,0.0,0.0,0.0,0.0,0.0,0.0,0.0,0.0,0.0,0.0,0.0,0.0,0.0,0.0,0.0,0.0,0.0,0.0,0.0,0.0,0.0,0.0,0.0,0.0,0.0,0.0,0.0,0.0,0.0,0.0,0.0,0.0,0.0,0.0,0.0,0.0,0.0,0.0,0.0,0.0,0.0,0.0,0.0,0.0,0.0,0.0,0.0,0.0,0.0,0.0,0.0,0.0,0.0,0.0,0.0,0.0,0.0,0.0,0.0,0.0,0.0,0.0,0.0,0.0,0.0,0.0,0.0,0.0,0.0,0.0,0.0,0.0,0.0,0.0,0.0,0.0,0.0,0.0,0.0,0.0,0.0,0.0,1.1126,1.0351,0.9467,0.8595,0.854,0.8152,0.7321,0.721,0.721,0.0,0.0,0.0,0.0,0.0,0.0,0.0,0.0,0.0,0.0,0.0,0.0,0.0,0.0,0.0,0.0,0.0,0.0,0.0,0.0,0.0,0.0,0.0,0.0,0.0,0.0,0.0,0.0,0.0,0.0,0.0,0.0,0.0,0.0,0.0,0.0,0.0,0.0,0.0,0.0,0.0,0.0,0.0,0.0,0.0,0.0,0.0,0.0,0.0,0.0,0.0,0.0,0.0,0.0,0.0,0.0,0.0,0.0,0.0,0.0,0.0,0.0,0.0,0.0,0.0,0.0,0.0,0.0,0.0,0.0,0.0,0.0,0.0,0.0,0.0,0.0,0.0,0.0,0.0,0.0,0.0,0.0,0.0,0.0,0.0,0.0,0.0,0.0,0.0,0.0,0.0,0.0,0.0,0.0,0.0,0.0,0.0,0.0,0.0,0.0,0.0,0.0,0.0,1.2368,1.1764,1.0996,1.0127,0.9688,0.9302,0.9082,0.8481,0.8097,0.8097,0.0,0.0,0.0,0.0,0.0,0.0,0.0,0.0,0.0,0.0,0.0,0.0,0.0,0.0,0.0,0.0,0.0,0.0,0.0,0.0,0.0,0.0,0.0,0.0,0.0,0.0,0.0,0.0,0.0,0.0,0.0,0.0,0.0,0.0,0.0,0.0,0.0,0.0,0.0,0.0,0.0,0.0,0.0,0.0,0.0,0.0,0.0,0.0,0.0,0.0,0.0,0.0,0.0,0.0,0.0,0.0,0.0,0.0,0.0,0.0,0.0,0.0,0.0,0.0,0.0,0.0,0.0,0.0,0.0,0.0,0.0,0.0,0.0,0.0,0.0,0.0,0.0,0.0,0.0,0.0,0.0,0.0,0.0,0.0,0.0,0.0,0.0,0.0,0.0,0.0,0.0,0.0,0.0,0.0,0.0,0.0,0.0,0.0,0.0,0.0,0.0,0.0,1.3452,1.3073,1.2526,1.1655,1.1055,1.0562,1.0178,0.9471,0.9034,0.9034,0.0,0.0,0.0,0.0,0.0,0.0,0.0,0.0,0.0,0.0,0.0,0.0,0.0,0.0,0.0,0.0,0.0,0.0,0.0,0.0,0.0,0.0,0.0,0.0,0.0,0.0,0.0,0.0,0.0,0.0,0.0,0.0,0.0,0.0,0.0,0.0,0.0,0.0,0.0,0.0,0.0,0.0,0.0,0.0,0.0,0.0,0.0,0.0,0.0,0.0,0.0,0.0,0.0,0.0,0.0,0.0,0.0,0.0,0.0,0.0,0.0,0.0,0.0,0.0,0.0,0.0,0.0,0.0,0.0,0.0,0.0,0.0,0.0,0.0,0.0,0.0,0.0,0.0,0.0,0.0,0.0,0.0,0.0,0.0,0.0,0.0,0.0,0.0,0.0,0.0,0.0,0.0,0.0,0.0,0.0,0.0,0.0,0.0,0.0,0.0,0.0,0.0,1.4385,1.4331,1.3948,1.3181,1.258,1.1873,1.1109,1.0398,1.0014,1.0014,0.0,0.0,0.0,0.0,0.0,0.0,0.0,0.0,0.0,0.0,0.0,0.0,0.0,0.0,0.0,0.0,0.0,0.0,0.0,0.0,0.0,0.0,0.0,0.0,0.0,0.0,0.0,0.0,0.0,0.0,0.0,0.0,0.0,0.0,0.0,0.0,0.0,0.0,0.0,0.0,0.0,0.0,0.0,0.0,0.0,0.0,0.0,0.0,0.0,0.0,0.0,0.0,0.0,0.0,0.0,0.0,0.0,0.0,0.0,0.0,2.2043,2.0574,0.0,0.0,0.0,0.0,0.0,0.0,0.0,0.0,0.0,0.0,0.0,0.0,0.0,0.0,0.0,0.0,0.0,0.0,0.0,0.0,0.0,0.0,0.0,0.0,0.0,0.0,0.0,0.0,0.0,0.0,0.0,0.0,0.0,0.0,0.0,0.0,0.0,0.0,0.0,0.0,1.5512,1.5137,1.4767,1.4546,1.4056,1.3673,1.3457,1.2254,1.1546,1.1546,1.0453,0.0,0.0,0.0,0.0,0.0,0.0,0.0,0.0,0.0,0.0,0.0,0.0,0.0,0.0,0.0,0.0,0.0,0.0,0.0,0.0,0.0,0.0,0.0,0.0,0.0,0.0,0.0,0.0,0.0,0.0,0.0,0.0,0.0,0.0,0.0,0.0,0.0,0.0,0.0,0.0,0.0,0.0,0.0,0.0,0.0,0.0,0.0,0.0,0.0,0.0,0.0,0.0,0.0,0.0,0.0,0.0,0.0,0.0,0.0,2.2686,2.1555,0.0,0.0,0.0,0.0,0.0,0.0,0.0,0.0,0.0,0.0,0.0,0.0,0.0,0.0,0.0,0.0,0.0,0.0,0.0,0.0,0.0,0.0,0.0,0.0,0.0,0.0,0.0,0.0,0.0,0.0,0.0,0.0,0.0,0.0,0.0,0.0,0.0,0.0,0.0,0.0,1.5891,1.5624,1.541,1.541,1.4922,1.46,1.46,1.3521,1.2865,1.2865,1.2017,0.0,0.0,0.0,0.0,0.0,0.0,0.0,0.0,0.0,0.0,0.0,0.0,0.0,0.0,0.0,0.0,0.0,0.0,0.0,0.0,0.0,0.0,0.0,0.0,0.0,0.0,0.0,0.0,0.0,0.0,0.0,0.0,0.0,0.0,0.0,0.0,0.0,0.0,0.0,0.0,0.0,0.0,0.0,0.0,0.0,0.0,0.0,0.0,0.0,0.0,0.0,0.0,0.0,2.5221,2.5573,2.5297,2.4923,2.4776,2.4633,2.294,2.2479,2.2843,2.1887,0.0,0.0,0.0,0.0,0.0,0.0,0.0,0.0,0.0,0.0,0.0,0.0,0.0,0.0,0.0,0.0,0.0,0.0,0.0,0.0,0.0,0.0,2.0751,2.0751,2.0751,2.0597,2.0048,0.0,0.0,0.0,0.0,0.0,0.0,0.0,0.0,0.0,0.0,0.0,1.6311,1.6205,1.6152,1.6152,1.5512,1.5143,1.5143,1.4431,1.393,1.393,1.3599,1.31,0.0,0.0,0.0,0.0,0.0,0.0,0.0,0.0,0.0,0.0,0.0,0.0,0.0,0.0,0.0,0.0,0.0,0.0,0.0,0.0,0.0,0.0,0.0,0.0,0.0,0.0,0.0,0.0,0.0,0.0,0.0,0.0,2.8291,2.8291,0.0,0.0,0.0,0.0,0.0,0.0,0.0,0.0,0.0,0.0,0.0,0.0,0.0,2.5872,2.5872,2.5761,2.5572,2.531,2.5322,2.521,2.4954,2.465,2.4514,2.4523,2.4072,0.0,2.2553,2.2393,0.0,0.0,0.0,0.0,0.0,0.0,0.0,0.0,0.0,0.0,0.0,0.0,0.0,0.0,0.0,0.0,0.0,0.0,0.0,0.0,0.0,0.0,2.3637,2.3637,2.3637,2.3479,2.287,2.0869,1.9176,1.8968,1.8565,1.7996,0.0,0.0,0.0,0.0,0.0,0.0,1.8003,1.747,1.7041,1.7041,1.6258,1.5785,1.5785,1.4965,1.4513,1.4513,1.3811,1.3367,1.3208,1.3265,0.0,0.0,0.0,0.0,0.0,0.0,0.0,0.0,0.0,0.0,0.0,0.0,0.0,0.0,0.0,0.0,0.0,0.0,0.0,0.0,0.0,0.0,0.0,0.0,0.0,0.0,0.0,0.0,0.0,2.8291,2.8291,2.8291,2.8291,2.8203,0.0,0.0,0.0,0.0,0.0,0.0,0.0,0.0,0.0,2.6256,2.6025,2.59,2.59,2.5807,2.5661,2.5404,2.5321,2.5137,2.4883,2.4784,2.4735,2.4735,2.4637,2.4233,2.3628,2.3488,2.3179,2.2769,0.0,0.0,0.0,0.0,2.2769,2.2743,2.2469,2.235,2.2315,2.1944,0.0,0.0,0.0,0.0,0.0,0.0,0.0,2.2527,2.2527,2.303,2.3474,2.3474,2.3474,2.3386,2.3127,2.1876,2.065,2.0038,1.9509,1.884,1.7996,1.7891,0.0,0.0,0.0,1.7996,1.837,1.8101,1.7891,1.7891,1.7523,1.7312,1.7312,1.6639,1.603,1.5628,1.4921,1.4347,1.3909,1.4045,1.4039,0.0,0.0,0.0,0.0,0.0,0.0,0.0,0.0,0.0,0.0,0.0,0.0,0.0,0.0,0.0,0.0,0.0,0.0,0.0,0.0,0.0,0.0,0.0,0.0,0.0,0.0,0.0,0.0,2.9112,2.9069,2.8751,2.8863,2.862,0.0,0.0,0.0,0.0,0.0,0.0,2.6699,2.6396,2.6221,2.6221,2.5859,2.5742,2.5908,2.5908,2.581,2.5709,2.5653,2.5496,2.529,2.5087,2.4981,2.4981,2.4932,2.4784,2.4587,2.439,2.4251,2.4202,2.4202,2.4202,2.4202,2.4202,2.4202,2.4156,2.3804,2.3703,2.3648,2.3306,2.3142,2.3041,2.294,0.0,0.0,0.0,0.0,2.2904,2.2904,2.2904,2.2904,2.2904,2.2904,2.2904,2.2904,2.2461,2.1839,2.1063,2.0479,1.9819,1.8994,1.8744,0.0,1.8749,1.866,1.8695,1.8982,1.884,1.8736,1.8736,1.8527,1.8422,1.8422,1.7862,1.7256,1.6707,1.6049,1.5439,1.4914,1.5099,1.514,1.4991,0.0,0.0,0.0,0.0,0.0,0.0,0.0,0.0,0.0,0.0,0.0,0.0,0.0,0.0,0.0,0.0,0.0,0.0,0.0,0.0,0.0,0.0,0.0,0.0,0.0,0.0,0.0,0.0,0.0,2.9974,3.0308,0.0,0.0,0.0,0.0,2.6545,2.6426,2.624,2.5771,2.5732,2.5723,2.5723,2.5703,2.5888,2.6357,2.6357,2.6553,2.6892,2.6543,2.6357,2.6288,2.5624,2.5284,2.5284,2.503,2.4883,2.4883,2.4578,2.439,2.4202,2.4202,2.4202,2.4202,2.4202,2.4202,2.4202,2.4183,2.4165,2.4165,2.4146,2.3831,2.3398,2.3023,2.2904,0.0,0.0,2.2904,2.2904,2.2904,2.2904,2.2904,2.2904,2.2904,2.2904,2.2904,2.2461,2.2072,2.2013,2.1591,2.0958,2.0168,0.0,1.9364,1.978,1.9381,1.9466,2.0621,2.0094,1.9628,1.9628,1.8893,1.8422,1.8422,1.7862,1.7505,1.7456,1.6876,1.6534,1.6487,1.6487,1.6244,1.5751,1.5744,0.0,0.0,0.0,0.0,0.0,0.0,0.0,0.0,0.0,0.0,0.0,0.0,0.0,0.0,0.0,0.0,0.0,0.0,0.0,0.0,0.0,0.0,0.0,0.0,0.0,0.0,0.0,0.0,3.0792,3.0491,0.0,2.8845,2.8911,2.8849,2.8448,2.8389,2.849,2.8676,2.8676,2.8676,2.8676,2.8676,2.8369,2.7802,2.8536,2.8282,2.7012,2.7533,2.7802,2.7792,2.7247,2.7327,2.7971,2.7552,2.6856,2.6119,2.6022,2.5343,2.439,2.4251,2.4202,2.4202,2.4202,2.4202,2.4165,2.3849,2.3758,2.3721,2.3464,2.3233,2.3087,2.295,2.2904,2.2849,2.2574,2.2501,2.2446,2.219,2.2126,2.2126,2.2126,2.2126,2.2126,2.2126,2.198,2.1834,2.1834,2.1532,2.1196,2.09,2.0707,2.066,2.0784,2.0378,2.0238,2.0671,2.0192,1.9922,2.0148,1.9867,1.9747,1.9968,1.9418,1.8833,1.8291,1.7684,1.7091,1.6629,1.7044,1.7225,1.703,1.7498,1.7404,0.0,0.0,0.0,0.0,0.0,0.0,0.0,0.0,0.0,0.0,0.0,0.0,0.0,0.0,0.0,0.0,0.0,0.0,0.0,0.0,0.0,0.0,0.0,0.0,0.0,3.2724,3.2217,3.1656,3.1301,3.0701,2.977,2.9891,2.9916,2.9759,2.977,2.9913,3.0279,3.0301,3.0301,3.0301,3.0301,3.0025,2.9384,3.0138,2.9828,2.8543,2.9118,2.9394,2.9373,2.8929,2.9021,2.946,2.9121,2.8376,2.7426,2.7342,2.6723,2.5674,2.4775,2.439,2.4291,2.4291,2.4251,2.4165,2.3938,2.3837,2.3772,2.3472,2.3352,2.3315,2.3082,2.3036,2.2981,2.2612,2.2492,2.2428,2.2172,2.1998,2.1888,2.1888,2.1787,2.1696,2.1696,2.1696,2.1696,2.1696,2.156,2.1442,2.1442,2.1292,2.1242,2.1371,2.0979,2.0695,2.0812,2.0587,2.0386,2.0441,2.0465,2.056,2.071,2.0202,1.9665,1.9128,1.86,1.8006,1.7387,1.7792,1.8071,1.8071,1.8542,1.8542,1.8071,0.0,0.0,0.0,0.0,0.0,0.0,0.0,0.0,0.0,0.0,0.0,0.0,0.0,0.0,0.0,0.0,0.0,0.0,0.0,0.0,0.0,0.0,0.0,3.4903,3.4785,3.4165,3.2583,3.2846,3.2498,3.0804,3.1085,3.111,3.0473,3.042,3.042,3.0442,3.0442,3.0442,3.0442,3.0442,3.0602,3.0965,3.1025,3.1217,3.1575,3.1144,3.0975,3.0954,3.0531,3.0108,2.9599,2.9588,2.9291,2.8727,2.8459,2.8319,2.8085,2.5877,2.4824,2.4627,2.4627,2.444,2.4301,2.4489,2.4578,2.4562,2.442,2.4392,2.4307,2.3645,2.342,2.3336,2.3063,2.2969,2.2922,2.2913,2.2593,2.2282,2.2282,2.198,2.1696,2.1696,2.1696,2.1696,2.1696,2.1696,2.1696,2.1696,2.132,2.113,2.1465,2.111,0.0,2.1263,2.1258,2.1083,2.0676,2.0627,2.0581,2.0444,2.01,1.9941,1.9941,1.963,1.924,1.8843,1.8827,1.8827,1.8781,1.8781,1.8781,1.8781,0.0,0.0,0.0,0.0,0.0,0.0,0.0,0.0,0.0,0.0,0.0,0.0,0.0,0.0,0.0,0.0,0.0,0.0,0.0,0.0,0.0,3.5596,3.5449,3.5322,3.4487,3.3851,3.3811,3.3473,3.317,3.3047,3.316,3.3351,3.3564,3.3363,3.3434,3.3812,3.3691,3.3545,3.3545,3.3545,3.325,3.2585,3.334,3.3013,3.1626,3.2252,3.2585,3.2574,3.2026,3.1972,3.2218,3.1843,3.0951,2.9795,2.9704,2.9235,2.8495,2.7453,2.7026,2.6979,2.6979,2.6464,2.5809,2.5858,2.5858,2.5886,2.5826,2.634,2.6867,2.6697,2.6148,2.5435,2.4847,2.4174,2.3509,2.3024,2.2593,2.2282,2.2282,2.198,2.1696,2.1696,2.1696,2.1696,2.1696,2.1696,2.1696,2.1696,2.1597,2.1544,2.1608,2.1256,2.0965,2.107,2.0767,2.061,2.075,2.0729,2.0825,2.1034,2.0741,2.054,2.054,2.0243,1.9854,1.9417,1.9371,1.9188,1.8827,1.8781,1.8781,0.0,0.0,0.0,0.0,0.0,0.0,0.0,0.0,0.0,0.0,0.0,0.0,0.0,0.0,0.0,0.0,0.0,0.0,0.0,0.0,0.0,0.0,3.5157,3.5157,3.5157,3.4502,3.405,3.4195,3.3998,3.4012,3.4453,3.4502,3.4691,3.5104,3.4904,3.4847,3.5163,3.4932,3.4775,3.4775,3.4775,3.447,3.3869,3.447,3.4164,3.2951,3.356,3.3869,3.3857,3.3553,3.3386,3.3272,3.2959,3.2053,3.0824,3.0824,3.0486,2.9841,0.0,0.0,0.0,0.0,2.7547,2.7026,2.7142,2.7189,2.7226,2.7321,2.7735,2.8204,2.8111,2.7652,2.708,2.6576,2.6034,2.5472,2.5085,2.4553,2.4055,2.3871,2.3332,2.2809,2.2637,2.2599,2.2599,2.2599,2.2599,0.0,2.2599,2.2344,2.2052,2.1731,2.1722,2.1624,2.132,2.106,2.0877,2.0867,2.0885,2.0948,2.1084,2.093,0.0,0.0,0.0,2.0317,1.9928,1.9874,0.0,0.0,0.0,1.9142,1.9142,1.892,0.0,0.0,1.8931,1.8939,0.0,0.0,0.0,0.0,0.0,0.0,0.0,0.0,0.0,0.0,0.0,0.0,0.0,0.0,0.0,0.0,3.468,3.468,3.468,3.4731,3.4625,3.4148,3.4512,3.4948,3.5279,3.5341,3.5434,3.5679,3.5416,3.5223,3.5223,3.4981,0.0,0.0,0.0,3.4775,3.4775,3.4775,3.4775,3.4775,3.4775,3.4775,3.4775,3.4775,3.427,3.3284,3.3284,3.2671,3.1705,3.1705,3.1705,3.1516,2.9749,2.8912,2.8645,2.8437,2.8251,2.8193,2.8448,0.0,0.0,2.8773,2.8958,2.9004,2.8738,2.8598,2.8448,2.8204,2.8017,2.7923,2.7923,2.7273,2.6468,2.6062,2.5228,2.4371,2.3967,2.3844,2.38,2.38,2.38,2.38,2.38,2.3299,2.2706,2.2043,2.2485,2.2662,2.2043,2.1954,2.1767,2.1347,2.1302,0.0,2.1171,2.1159,2.1159,2.1159,2.1113,2.0911,2.0618,2.0555,2.0555,2.0555,2.0138,1.9903,1.9903,1.9409,1.9142,1.9142,1.892,1.8781,0.0,0.0,0.0,0.0,0.0,0.0,0.0,0.0,0.0,0.0,0.0,0.0,0.0,0.0,0.0,3.4738,3.468,3.468,3.468,3.5056,3.5307,3.5194,3.527,3.5558,3.611,3.616,3.6197,3.6263,3.58,3.5524,3.5524,3.5078,3.4775,3.4775,3.4775,3.4775,3.4775,3.4775,3.4775,3.4775,3.4775,0.0,3.4775,3.4775,3.427,3.3284,3.3284,3.2671,3.1705,3.1705,3.1705,3.1661,3.1294,3.1104,3.1059,3.1003,3.0441,2.9749,2.9795,2.9841,2.9841,2.9886,3.0453,3.1104,3.1059,3.0498,0.0,2.9521,2.8877,2.8168,2.797,2.7193,2.6491,2.6396,2.5411,2.4473,2.438,2.4059,2.38,2.38,2.38,2.38,2.38,2.3671,2.3541,2.341,2.3507,2.3541,2.341,2.341,2.3367,2.327,2.327,2.3256,2.3213,2.3223,2.3223,2.3223,2.2871,2.2612,2.258,2.2199,2.2013,2.2013,2.1915,2.1871,2.1871,2.1534,2.1364,2.132,1.9629,1.8781,0.0,0.0,0.0,0.0,0.0,0.0,0.0,0.0,0.0,0.0,0.0,3.6584,3.5538,0.0,3.5137,3.4394,3.4731,3.5094,3.5094,3.5604,3.5855,3.5533,3.5793,3.6056,3.638,3.6405,3.6405,3.6405,3.6038,3.5812,3.5812,3.5271,3.4981,3.4981,3.4884,3.4775,3.4775,3.4775,3.4775,3.4775,3.4775,3.4775,3.4775,3.4498,3.4018,3.3272,3.3008,3.243,3.1705,3.1705,3.1705,3.1705,3.1705,3.1705,3.1705,3.1705,3.1383,3.0958,3.0958,3.0958,3.0958,3.0958,3.1282,3.1705,3.1705,3.1339,3.0913,3.0779,3.0407,2.9988,2.9841,2.906,2.8264,2.8007,2.7059,2.6136,2.5895,2.5663,2.5453,2.52,2.5158,2.5084,2.4893,2.485,2.4627,2.393,2.4102,2.4241,2.3844,2.38,2.38,2.38,2.38,2.38,2.38,2.38,2.3891,2.4122,2.3704,2.3444,2.3444,2.3217,2.312,2.312,2.2858,2.277,2.277,2.2366,2.2189,2.2189,2.1078,2.0466,0.0,0.0,0.0,0.0,0.0,0.0,0.0,3.7436,3.739,3.7987,3.8014,3.7461,3.5894,3.591,3.5822,3.493,3.5526,3.6014,3.5957,3.6349,3.6416,3.5755,3.6094,3.6405,3.6405,3.6405,3.6405,3.6405,3.6146,3.6015,3.6015,3.5512,3.5271,3.5271,3.503,3.4884,3.4884,3.4835,3.4775,3.4775,3.4775,3.4775,3.4763,3.4234,3.3765,3.3248,3.2611,3.2082,3.1705,3.1705,3.1705,3.1705,3.1705,3.1705,3.1705,3.1705,3.1705,3.1705,3.1705,3.1705,3.1705,3.1705,3.1705,3.1705,3.1705,3.1705,3.1705,3.1705,3.1705,3.1705,3.1705,3.0942,3.0068,2.9631,2.8717,2.7785,2.74,2.7267,2.7103,2.6734,2.6652,2.6487,2.6104,2.6021,2.5622,2.4402,2.4722,2.4903,2.4284,2.4188,2.4188,2.4188,2.4188,2.4188,2.4188,2.427,2.4487,2.4764,2.4518,2.428,2.4188,2.4188,2.4188,2.4188,2.3844,2.3617,2.3617,2.325,2.3023,2.3023,2.2979,2.2555,3.8639,3.8117,3.7619,3.7723,3.7165,3.6948,0.0,3.7524,3.6739,3.7279,3.7037,3.678,3.7088,3.6832,3.6846,3.7747,3.8017,3.7935,3.7593,3.7586,3.7289,3.6424,3.6367,3.6405,3.6405,3.6405,3.6405,3.6405,3.6146,3.6015,3.6015,3.5716,3.5572,3.5572,3.5271,3.5175,3.5175,3.4932,3.4775,3.4775,3.4775,3.4775,3.4763,3.4234,3.3765,3.3236,3.2247,3.1765,3.1705,3.1705,3.1705,3.1705,3.1705,3.1705,3.1705,3.1705,3.1705,3.1705,3.1705,3.1705,3.1705,3.1705,3.1705,3.1705,3.1705,3.1705,3.1705,3.1705,3.1705,3.1705,3.1705,3.0927,3.0085,3.0013,2.8917,2.787,2.7812,2.7482,2.7185,2.7144,2.7103,2.6981,2.6528,2.6445,2.6249,2.5717,2.5728,2.577,2.5686,2.5675,2.5675,2.5675,2.5675,2.5675,2.5675,2.6033,2.6119,2.5783,2.6076,2.6087,2.5696,2.5675,2.5675,2.5675,2.5591,2.5591,2.5591,2.5338,2.5242,2.5242,2.502,2.4045,3.9613,3.9062,3.8575,3.8635,3.8367,3.8266,3.8867,3.8513,3.8107,3.8375,3.8488,3.8396,3.7797,3.809,3.8393,3.8406,3.8657,3.8793,3.8649,3.816,3.7625,3.7268,3.6722,3.6405,3.6405,3.6405,3.6405,3.6405,3.6323,3.6228,3.6228,3.6003,3.5824,3.5824,3.5572,3.5368,3.5223,3.5078,3.4969,3.4775,3.4775,3.4619,3.4306,3.3837,3.314,3.2322,3.191,3.1705,3.1705,3.1705,3.1705,3.1705,3.1705,3.1705,3.1705,3.1705,3.1705,3.1705,3.1705,3.1705,3.1705,3.1705,3.1705,3.1705,3.1705,3.1705,3.1705,3.1705,3.1705,3.1705,3.1705,3.0879,3.0086,3.0086,2.9157,2.8243,2.8243,2.8111,2.7886,2.7655,2.7626,2.7452,2.6981,2.6899,2.6775,2.6332,2.6063,2.5895,2.5895,2.5895,2.5895,2.5895,2.5895,2.6016,2.6299,2.6256,2.6245,2.6321,2.6256,2.6114,2.5906,2.5895,2.5895,2.5895,2.5895,2.5895,2.5895,2.5822,2.577,2.577,2.5644,2.5306,3.99,3.9654,3.9363,3.9015,3.9059,3.916,3.8971,3.8928,3.8928,3.8928,3.9421,3.9599,3.8692,3.9369,3.9956,3.9506,3.9737,3.9927,3.9637,3.8765,3.8069,3.7808,3.6956,3.6405,3.6405,3.6405,3.6405,3.6405,3.6405,3.6405,3.6405,3.6228,3.6098,3.6098,3.586,3.562,3.5416,3.5368,3.5175,3.4932,3.4932,3.4607,3.397,3.3368,3.2551,3.1705,3.1705,3.1705,3.1705,3.1705,3.1705,3.1705,3.1705,3.1705,3.1705,3.1705,3.1705,3.1705,3.1705,3.1705,3.1705,3.1705,3.1705,3.1705,3.1705,3.1705,3.1705,3.1705,3.1705,3.1705,3.1705,3.0879,3.0086,3.0086,2.928,2.851,2.851,2.851,2.8391,2.8122,2.8082,2.7909,2.7482,2.74,2.7237,2.6764,2.6456,2.6177,2.5937,2.5895,2.5895,2.5895,2.5895,2.6048,2.6398,2.6223,2.619,2.6377,2.6223,2.6037,2.5906,2.5895,2.5895,2.5895,2.5895,2.5895,2.5895,2.5895,2.5895,2.5895,2.5895,2.5997,3.9392,3.9639,3.977,3.8536,3.8725,3.903,3.8376,3.8231,3.8231,3.8231,3.8768,3.9407,3.9919,4.0586,4.1268,4.1879,4.1995,4.1675,4.0689,3.9768,3.881,3.79,3.6956,3.6405,3.6405,3.6405,3.6405,3.6405,3.6405,3.6405,3.6405,3.6405,3.6405,3.6405,3.6146,3.5968,3.5968,3.5716,3.5464,3.5175,3.5175,3.4751,3.3958,3.2984,3.2214,3.1705,3.1705,3.1705,3.1705,3.1705,3.1705,3.1705,3.1705,3.1705,3.1705,3.1705,3.1705,3.1705,3.1705,3.1705,3.1705,3.1705,3.1705,3.1705,3.1705,3.1705,3.1705,3.1705,3.1705,3.1705,3.1705,3.0879,3.0086,3.0086,2.928,2.851,2.851,2.851,2.851,2.8471,2.8471,2.8351,2.7962,2.7881,2.7708,2.7267,2.7185,2.6869,2.6021,2.5895,2.5895,2.5895,2.5895,2.5906,2.5917,2.6343,2.6409,2.595,2.6354,2.6355,2.5917,2.5895,2.5895,2.5895,2.5895,2.5895,2.5895,2.5895,2.5895,2.5895,2.5895,2.5906,3.8594,3.8681,3.8739,3.8318,3.8376,3.8478,3.826,3.8202,3.8333,3.8768,3.9363,4.0002,4.0641,4.1308,4.1831,4.2063,4.2092,4.1995,4.1633,4.076,3.9768,3.8854,3.7887,3.7083,3.6452,3.6405,3.6405,3.6405,3.6405,3.6405,3.6405,3.6405,3.6405,3.6405,3.6323,3.6193,3.6015,3.592,3.5716,3.5464,3.4553,3.3758,3.2996,3.2274,3.1886,3.1705,3.1705,3.1705,3.1705,3.1705,3.1705,3.1705,3.1705,3.1705,3.1705,3.1705,3.1705,3.1705,3.1705,3.1705,3.1705,3.1705,3.1705,3.1705,3.1705,3.1705,3.1705,3.1705,3.1705,3.1633,3.1271,3.0657,3.0001,2.9641,2.9027,2.851,2.851,2.851,2.851,2.851,2.851,2.8471,2.8311,2.8323,2.8151,2.7748,2.7115,2.6652,2.6332,2.6052,2.5895,2.5895,2.5895,2.5895,2.5895,2.6048,2.607,2.5917,2.6059,2.607,2.5906,2.5895,2.5895,2.5895,2.5895,2.5895,2.5895,2.5895,2.5895,2.5895,2.5895,2.5895,3.8202,3.8202,3.8202,3.8202,3.8202,3.8202,3.8202,3.8202,3.8391,3.9059,3.9683,4.0292,4.0974,4.1642,4.2092,4.2092,4.2092,4.2092,4.2092,4.124,4.0375,3.9768,3.8599,3.7579,3.6956,3.6593,3.6405,3.6405,3.6405,3.6405,3.6405,3.6405,3.6405,3.6405,3.6405,3.6323,3.6146,3.6146,3.5904,3.5421,3.4196,3.3259,3.2602,3.1958,3.1705,3.1705,3.1705,3.1705,3.1705,3.1705,3.1705,3.1705,3.1705,3.1705,3.1705,3.1705,3.1705,3.1705,3.1705,3.1705,3.1705,3.1705,3.1705,3.1705,3.1705,3.1705,3.1705,3.1705,3.1705,3.1585,3.1055,3.0482,2.9953,2.9424,2.8895,2.851,2.851,2.851,2.851,2.851,2.851,2.851,2.851,2.851,2.8391,2.8163,2.7493,2.6951,2.6775,2.6539,2.6385,2.6385,2.6385,2.6302,2.6135,2.6093,2.6052,2.5895,2.5895,2.5895,2.5895,2.5895,2.5895,2.5895,2.5895,2.5895,2.5895,2.5895,2.5895,2.5895,2.5895,2.5895,3.8202,3.8202,3.8202,3.8202,3.8202,3.8202,3.8202,3.8202,3.8405,3.9102,3.9697,4.0307,4.1018,4.1671,4.2092,4.2092,4.2092,4.2092,4.2092,4.1296,4.0646,4.0603,3.9033,3.7946,3.79,3.7083,3.6546,3.6499,3.6452,3.6405,3.6405,3.6405,3.6405,3.6405,3.6405,3.6405,3.6405,3.638,3.5962,3.5158,3.4081,3.3302,3.2779,3.2035,3.1705,3.1705,3.1705,3.1705,3.1705,3.1705,3.1705,3.1705,3.1705,3.1705,3.1705,3.1705,3.1705,3.1705,3.1705,3.1705,3.1705,3.1705,3.1705,3.1705,3.1705,3.1705,3.1705,3.1705,3.1705,3.1585,3.1019,3.0458,2.9941,2.9388,2.8871,2.851,2.851,2.851,2.851,2.851,2.851,2.851,2.851,2.851,2.851,2.851,2.8163,2.7748,2.7307,2.7226,2.7185,2.7185,2.7185,2.7021,2.6569,2.6528,2.6373,2.5979,2.5937,2.5937,2.5895,2.5895,2.5895,2.5895,2.5895,2.5895,2.5895,2.5895,2.5895,2.5895,2.5895,2.5895,3.8202,3.8202,3.8202,3.8202,3.8202,3.8202,3.8202,3.8202,3.8522,3.9639,3.9987,4.0452,4.1628,4.1976,4.2092,4.2092,4.2092,4.2092,4.2092,4.1856,4.1437,4.0689,4.0159,3.9593,3.8899,3.863,3.8192,3.75,3.6815,3.6405,3.6405,3.6405,3.6405,3.6405,3.6405,3.6405,3.6405,3.5956,3.534,3.4587,3.3711,3.3036,3.2509,3.2098,3.1937,3.1937,3.1937,3.1849,3.1705,3.1705,3.1705,3.1705,3.1705,3.1705,3.1705,3.1705,3.1705,3.1705,3.1705,3.1705,3.1705,3.1705,3.1705,3.1705,3.1705,3.1705,3.1705,3.1705,3.1705,3.1488,3.053,3.0194,2.9857,2.8931,2.8607,2.851,2.851,2.851,2.851,2.851,2.851,2.851,2.851,2.851,2.851,2.851,2.8391,2.8191,2.7788,2.74,2.7185,2.7185,2.7185,2.7133,2.7021,2.7021,2.6816,2.6373,2.6332,2.6207,2.5895,2.5895,2.5895,2.5895,2.5895,2.5895,2.5895,2.5895,2.5895,2.5895,2.5895,2.5895,3.8202,3.8202,3.8202,3.8202,3.8202,3.8202,3.8202,3.8202,3.8565,3.9842,4.0104,4.051,4.1845,4.2092,4.2092,4.2092,4.2092,4.2092,4.2092,4.2092,4.1912,4.1339,4.0873,4.0375,3.9855,3.9417,3.8988,3.8464,3.7533,3.6815,3.6405,3.6405,3.6405,3.6405,3.6405,3.6405,3.6405,3.5818,3.5174,3.4499,3.3727,3.2993,3.2388,3.2257,3.2125,3.1994,3.1994,3.1937,3.1805,3.1761,3.1705,3.1705,3.1705,3.1705,3.1705,3.1705,3.1705,3.1705,3.1705,3.1705,3.1705,3.1705,3.1705,3.1705,3.1705,3.1705,3.1705,3.1705,3.1705,3.1464,3.0362,3.0086,2.9821,2.8763,2.851,2.851,2.851,2.851,2.851,2.851,2.851,2.851,2.851,2.851,2.851,2.851,2.851,2.8431,2.8203,2.7938,2.7765,2.7765,2.7765,2.7684,2.7534,2.7534,2.7319,2.6857,2.661,2.6404,2.6177,2.6177,2.6177,2.6177,2.6177,2.6177,2.6177,2.5979,2.5895,2.5895,2.5895,2.5895,3.8202,3.8202,3.8202,3.8202,3.8202,3.8202,3.8202,3.8202,3.8536,3.9726,4.0046,4.0481,4.1729,4.2034,4.2092,4.2092,4.2092,4.2092,4.2092,4.2092,4.2092,4.2092,4.1339,4.0788,4.0788,4.0043,3.9519,3.9387,3.8644,3.7717,3.6628,3.6452,3.6405,3.6405,3.6405,3.6367,3.6304,3.5705,3.5107,3.4555,3.3781,3.3095,3.2475,3.2487,3.23,3.2069,3.2081,3.2038,3.1981,3.1793,3.1705,3.1705,3.1705,3.1705,3.1705,3.1705,3.1705,3.1705,3.1705,3.1749,3.1793,3.1705,3.1705,3.1705,3.1705,3.1705,3.1705,3.1705,3.1705,3.1464,3.0362,3.0086,2.9821,2.8763,2.851,2.851,2.851,2.851,2.851,2.851,2.851,2.851,2.863,2.8618,2.8618,2.8618,2.8697,2.8657,2.851,2.851,2.851,2.851,2.851,2.8351,2.8002,2.7962,2.7829,2.7429,2.701,2.6764,2.6723,2.6723,2.6682,2.6599,2.6599,2.6569,2.6487,2.6135,2.5937,2.5895,2.5895,2.5895,3.8202,3.8202,3.8202,3.8202,3.8202,3.8202,3.8202,3.8202,3.842,3.9204,3.9755,4.0336,4.1134,4.1729,4.2092,4.2092,4.2092,4.2092,4.2092,4.2092,4.2092,4.2092,4.1953,4.1814,4.1814,4.1689,4.1269,4.0432,4.0202,3.9373,3.7671,3.6815,3.6405,3.6405,3.6405,3.6144,3.5646,3.5094,3.4587,3.4035,3.3208,3.2897,3.2995,3.2766,3.2636,3.2593,3.2388,3.2213,3.1981,3.1793,3.1705,3.1705,3.1705,3.1705,3.1705,3.1705,3.1705,3.1705,3.1705,3.2057,3.245,3.1881,3.1705,3.1705,3.1705,3.1705,3.1705,3.1705,3.1705,3.1464,3.0362,3.0086,2.9821,2.8763,2.851,2.851,2.851,2.851,2.851,2.851,2.851,2.8657,2.9157,2.9223,2.9223,2.9223,2.9678,2.9651,2.863,2.851,2.851,2.851,2.851,2.8471,2.8391,2.8391,2.8419,2.8514,2.8435,2.8211,2.7815,2.7815,2.7585,2.7103,2.7062,2.6899,2.6487,2.6445,2.6218,2.5895,2.5895,2.5895,3.8202,3.8202,3.8202,3.8202,3.8202,3.8202,3.8202,3.8202,3.8391,3.9059,3.9683,4.0292,4.0974,4.1642,4.2092,4.2092,4.2092,4.2092,4.2092,4.2092,4.2092,4.2092,4.2092,4.2092,4.2092,4.2092,4.1912,4.1437,4.0916,3.9768,3.79,3.6909,3.6405,3.6405,3.6405,3.6094,3.5508,3.5416,3.5109,3.4589,3.3909,3.3598,3.3573,3.3099,3.2853,3.2711,3.3074,3.3031,3.2754,3.2963,3.2704,3.2232,3.2232,3.2013,3.1749,3.2101,3.2232,3.2276,3.2612,3.2957,3.3172,3.2871,3.2481,3.2145,3.1805,3.1705,3.1749,3.2101,3.2232,3.2062,3.129,3.1087,3.0732,2.9297,2.8736,2.859,2.8882,2.8736,2.859,2.8934,2.8961,2.9145,2.9755,2.9871,2.9871,2.9871,3.0126,3.0101,2.9535,2.9457,2.9197,2.859,2.8776,2.8961,2.8961,2.9263,2.9496,2.9561,2.9367,2.916,2.8939,2.8939,2.8782,2.8518,2.8183,2.7903,2.7701,2.7144,2.6846,2.6899,2.6415,2.6599,3.8202,3.8202,3.8202,3.8202,3.8202,3.8202,3.8202,3.8202,3.8347,3.8884,3.9479,4.0104,4.0757,4.1424,4.1932,4.2078,4.2092,4.2092,4.2092,4.2092,4.2092,4.2092,4.2092,4.2092,4.2092,4.2092,4.2092,4.2092,4.1156,3.9855,3.8206,3.7394,3.6989,3.6989,3.6989,3.6657,3.5889,3.6173,3.5963,3.5265,3.4677,3.4301,3.4095,3.3586,3.327,3.3086,3.3914,3.4082,3.3827,3.4152,3.3788,3.3031,3.2957,3.2568,3.2176,3.2698,3.2927,3.3013,3.3501,3.3797,3.3882,3.3755,3.3343,3.284,3.2264,3.2133,3.222,3.2754,3.2927,3.2792,3.2169,3.1996,3.1594,2.998,2.9223,2.9,2.9496,2.9223,2.904,2.9496,2.96,2.9793,3.0393,3.0469,3.0469,3.0469,3.0633,3.0595,3.033,3.0393,3.0101,2.9,2.9302,2.96,2.96,3.0024,3.0355,3.0469,3.0203,3.0012,3.0012,3.0012,2.9973,2.9819,2.9367,2.9067,2.8988,2.8143,2.7851,2.8028,2.7342,2.7654,3.8202,3.8202,3.8202,3.8202,3.8202,3.8202,3.8202,3.8202,3.8217,3.8275,3.8826,3.9465,4.0075,4.0742,4.1381,4.199,4.2092,4.2092,4.2092,4.2092,4.2092,4.2092,4.2092,4.2092,4.2092,4.2092,4.2092,4.2092,4.1156,4.0159,3.9121,3.8975,3.8944,3.8944,3.8944,3.8405,3.723,3.7248,3.6683,3.5535,3.4758,3.4397,3.4343,3.4314,3.4272,3.4272,3.491,3.5183,3.5102,3.4513,3.4223,3.4111,3.3742,3.3586,3.3501,3.3586,3.3586,3.3628,3.367,3.4092,3.4509,3.3882,3.367,3.3586,3.3543,3.3501,3.3543,3.3586,3.3586,3.3372,3.229,3.1996,3.1714,3.0509,3.0165,3.0126,3.0203,3.0165,3.0126,3.0203,3.0203,3.0393,3.0996,3.1108,3.1108,3.1108,3.1629,3.1593,3.0431,3.0771,3.0846,3.0203,3.0165,3.0203,3.0203,3.0292,3.0545,3.1071,3.1071,3.1071,3.1071,3.1071,3.0809,3.0254,3.0203,2.9973,2.9626,2.951,2.9279,2.8878,2.88,2.8839,3.8202,3.8202,3.8202,3.8202,3.8202,3.8202,3.8202,3.8202,3.8202,3.8202,3.8739,3.9276,3.9509,4.0408,4.1192,4.1453,4.1831,4.2092,4.2092,4.2092,4.2092,4.2092,4.2092,4.2092,4.2092,4.2092,4.2092,4.2092,4.1717,4.1353,4.0958,3.9839,3.921,3.921,3.8857,3.8274,3.7404,3.7552,3.7232,3.6399,3.6056,3.591,3.591,3.5372,3.5128,3.5156,3.5923,3.6122,3.5883,3.5936,3.5507,3.4843,3.4441,3.405,3.3755,3.4134,3.4301,3.4343,3.4758,3.5087,3.5263,3.5005,3.4881,3.4758,3.3924,3.3713,3.3797,3.4176,3.4301,3.411,3.3357,3.2331,3.1496,3.1477,3.0859,3.0393,3.0771,3.0545,3.0393,3.0771,3.0846,3.1046,3.1703,3.1813,3.1813,3.1813,3.2023,3.2023,3.1519,3.1666,3.1703,3.1482,3.1084,3.0846,3.0846,3.1209,3.1556,3.1776,3.1813,3.1813,3.1813,3.1813,3.1703,3.1445,3.1046,3.0771,3.062,3.0241,3.0126,3.019,2.9679,2.9897,3.8202,3.8202,3.8202,3.8202,3.8202,3.8202,3.8202,3.8202,3.8202,3.8277,3.8617,3.8957,3.9237,4.0114,4.0858,4.1062,4.1657,4.2092,4.2092,4.2092,4.2092,4.2092,4.2092,4.2092,4.2092,4.2092,4.2092,4.2092,4.2092,4.2092,4.2092,4.0788,4.0057,4.0057,3.9461,3.8852,3.8187,3.8187,3.7898,3.7285,3.7014,3.6897,3.6897,3.6281,3.5989,3.6029,3.6922,3.713,3.6897,3.7095,3.6716,3.5923,3.5548,3.5032,3.4551,3.5018,3.5182,3.5263,3.5723,3.5924,3.5924,3.5924,3.5804,3.5507,3.4592,3.4301,3.4384,3.4881,3.4724,3.4393,3.4008,3.2699,3.1616,3.2096,3.1519,3.0972,3.1381,3.1158,3.0985,3.1431,3.1505,3.1666,3.2132,3.2218,3.2218,3.2218,3.2218,3.2218,3.2218,3.2218,3.2218,3.2218,3.1776,3.1505,3.1505,3.1936,3.2218,3.2218,3.2218,3.2218,3.2218,3.2218,3.2218,3.2218,3.174,3.1505,3.1492,3.1084,3.1035,3.1323,3.0722,3.0985,3.8202,3.8202,3.8202,3.8202,3.8202,3.8202,3.8202,3.8202,3.824,3.8441,3.8329,3.8481,3.9364,3.9838,4.0321,4.0989,4.1657,4.2092,4.2092,4.2092,4.2092,4.2092,4.2092,4.2092,4.2092,4.2092,4.2092,4.2092,4.2092,4.2092,4.2092,4.2092,4.2051,4.2051,4.1398,4.0731,4.0064,3.9455,3.887,3.8165,3.7323,3.6897,3.6897,3.6897,3.6897,3.6936,3.781,3.8165,3.8165,3.7763,3.7586,3.7534,3.7148,3.6733,3.6351,3.6365,3.6365,3.6391,3.6405,3.6405,3.6405,3.6405,3.6058,3.571,3.5669,3.5669,3.5669,3.5669,3.4829,3.3921,3.3908,3.3064,3.2182,3.2218,3.2182,3.2182,3.2182,3.2169,3.2169,3.2182,3.2182,3.2182,3.2218,3.2218,3.2218,3.2218,3.2218,3.2218,3.2218,3.2218,3.2218,3.2218,3.2169,3.2182,3.2182,3.2218,3.2218,3.2218,3.2218,3.2218,3.2218,3.2218,3.2218,3.2218,3.2182,3.2182,3.2182,3.2169,3.2169,3.2182,3.2182,3.2182,3.8086,3.8202,3.8202,3.8202,3.8202,3.8202,3.8202,3.8202,3.824,3.8441,3.8441,3.8537,3.8951,3.9501,4.0032,4.0558,4.119,4.1747,4.2075,4.2092,4.2092,4.2092,4.2092,4.2092,4.2092,4.2092,4.2092,4.2092,4.2092,4.2092,4.2092,4.2092,4.1889,4.1424,4.0771,4.0118,3.9494,3.8841,3.8405,3.8202,3.7924,3.781,3.781,3.781,3.781,3.781,3.8089,3.8202,3.8165,3.7763,3.7625,3.7572,3.7148,3.6915,3.6797,3.6797,3.6797,3.6797,3.6797,3.6797,3.6797,3.6797,3.6522,3.6192,3.6192,3.5965,3.5628,3.5181,3.4504,3.3889,3.3717,3.3129,3.261,3.2895,3.2753,3.2538,3.2538,3.2336,3.2218,3.2218,3.2372,3.2538,3.2538,3.2538,3.2538,3.2538,3.2336,3.2218,3.2218,3.2218,3.2218,3.2218,3.2218,3.2218,3.2218,3.2218,3.2218,3.2218,3.2218,3.2218,3.2218,3.2218,3.2218,3.2218,3.2218,3.2218,3.2218,3.2218,3.2218,3.2218,3.2218,3.2218,3.797,3.8202,3.8202,3.8202,3.8202,3.8202,3.8202,3.824,3.8352,3.859,3.8612,3.8686,3.887,3.9379,3.9967,4.0485,4.1067,4.1701,4.2155,4.2201,4.2175,4.2092,4.2092,4.2092,4.2092,4.2092,4.2092,4.2092,4.2092,4.2092,4.2092,4.186,4.141,4.0742,4.0321,3.9813,3.9218,3.8536,3.8202,3.8202,3.8202,3.8202,3.8202,3.8202,3.8202,3.8202,3.8202,3.8202,0.0,3.7915,3.7839,3.7801,3.7558,3.7366,3.7226,3.7226,3.7226,3.7226,3.7226,3.7226,3.7226,3.7226,3.6954,3.6628,3.6628,3.6338,3.5842,3.5188,3.4703,3.4276,3.3928,3.3376,3.2988,3.3234,3.3094,3.2917,3.2917,3.2753,3.2624,3.2624,3.2775,3.2917,3.2917,3.2917,3.2881,3.2739,3.2538,3.2336,3.2218,3.2218,3.2218,3.2218,3.2218,3.2218,3.2218,3.2218,3.2218,3.2218,3.2218,3.2218,3.2218,3.2218,3.2218,3.2218,3.2218,3.2218,3.2218,3.2218,3.2218,3.2218,3.2218,3.2218,0.0,3.8173,3.8202,3.8202,3.8202,3.8202,3.8202,3.8366,0.0,3.8797,3.8819,3.887,3.9068,3.9461,3.9999,4.0693,4.1312,4.1827,4.233,4.2392,4.2325,4.2133,4.2092,4.2092,4.2092,4.2092,4.2092,4.2092,4.2092,4.2092,4.2092,4.1453,4.0786,4.0118,4.006,3.9741,3.9131,3.8507,3.8202,3.8202,3.8202,3.8202,3.8202,3.8202,3.8202,3.8202,3.8202,3.8202,3.8202,3.8202,3.8202,3.8202,3.8202,3.7991,3.7649,3.7649,3.7649,3.7649,3.7649,3.7649,3.7663,3.7625,3.7341,3.7017,3.7017,3.6733,3.6292,3.5576,3.5221,3.4955,3.4323,3.3754,3.3339,3.3374,3.3374,3.3339,3.3339,3.3304,3.3304,3.3304,3.3304,3.3339,3.3339,3.3339,3.3199,3.2846,3.2739,3.2596,3.2277,3.2255,3.2255,3.2255,3.2255,3.2255,3.2255,3.2205,3.2218,3.2218,3.2218,3.2218,3.2218,3.2218,3.2218,3.2218,3.2218,3.2218,3.2218,3.2218,3.2218,3.2218,3.2218,3.2218,3.7302,0.0,3.8202,3.8202,3.8202,3.824,0.0,3.8478,3.859,3.8958,3.9017,3.9104,3.9301,3.9435,3.9854,4.0863,4.1151,4.1523,4.2272,4.2284,4.2133,4.2092,4.2092,4.2092,4.2092,4.2092,4.2092,4.2092,4.2092,4.2092,4.2092,4.1453,4.0786,4.0118,3.9654,3.9102,3.8449,3.8275,3.8202,3.8202,3.8202,3.8202,3.8202,3.8202,3.8202,3.8202,3.8202,3.8202,3.8202,3.8202,3.8202,3.8202,3.8202,3.8127,3.8052,3.8052,3.8052,3.8052,3.8052,3.8052,3.8014,3.7687,3.7534,3.738,3.7109,3.6915,3.6598,3.5493,3.5148,3.493,3.4094,3.378,3.377,3.4059,3.3908,3.3667,3.3667,3.3479,3.3304,3.3304,3.3514,3.3667,3.3667,3.3667,3.3667,3.3563,3.3058,3.2668,3.2596,3.2561,3.2561,3.2561,3.2561,3.2561,3.2561,3.2336,3.2218,3.2218,3.2218,3.2218,3.2218,3.2218,3.2218,3.2218,3.2218,3.2218,3.2218,3.2218,3.2218,3.2218,3.2218,3.2218,3.6751,3.752,3.8202,3.8202,3.8202,3.824,3.8441,3.8819,3.9147,3.9104,3.9451,3.9666,3.9445,3.9388,3.9822,4.1024,4.1247,4.1579,4.2552,4.25,4.2392,4.2392,4.2284,4.2242,4.2242,4.2133,4.2092,4.2092,4.2092,4.2092,4.2092,4.1163,4.0466,4.0104,3.9218,3.8565,3.8202,3.8202,3.8202,3.8202,3.8202,3.8202,3.8202,3.8202,3.8202,3.8202,3.8202,3.8202,3.8202,3.8202,3.8202,3.8202,3.8202,3.8202,3.8202,3.8202,3.8202,3.8202,3.8202,3.8202,3.8165,3.7953,3.7877,3.7825,3.7634,3.7558,3.7249,3.5796,3.5514,3.5425,3.4341,3.4094,3.4128,3.4346,3.423,3.4094,3.4094,3.3908,3.3805,3.3805,3.3942,3.4094,3.4094,3.4094,3.4025,3.3839,3.3444,3.3164,3.2988,3.2988,3.2988,3.2988,3.281,3.2775,3.2952,3.2646,3.2372,3.2218,3.2218,3.2218,3.2218,3.2218,3.2218,3.2218,3.2218,3.2218,3.2218,3.2218,3.2218,3.2218,3.2218,3.2218,3.6301,3.7317,3.8352,3.8352,3.8352,3.8427,3.8745,3.9442,3.994,3.9529,4.0095,4.0443,3.9844,3.9717,4.0154,4.1519,4.1799,4.2096,4.2872,4.285,4.2688,4.2688,4.2541,4.2433,4.2433,4.2242,4.2133,4.2133,4.2133,4.2049,4.1947,4.0771,4.006,3.9958,3.8812,3.8202,3.8202,3.8202,3.8202,3.8202,3.8202,3.8202,3.8202,3.8202,3.8202,3.8202,3.8202,3.8202,3.8202,3.8202,3.8202,3.8202,3.8202,3.8202,3.8202,3.8202,3.8202,3.8202,3.8202,3.8202,3.8202,3.8202,3.8202,3.8202,3.8202,3.8202,3.7852,3.6251,3.605,3.6025,3.4748,3.4414,3.4414,3.4414,3.4414,3.4414,3.4414,3.4414,3.4414,3.4414,3.4414,3.4414,3.4414,3.4414,3.4264,3.3942,3.3839,3.3701,3.3409,3.3374,3.3374,3.3374,3.3058,3.3023,3.3339,3.3023,3.2668,3.2386,3.2314,3.2241,3.2218,3.2218,3.2218,3.2218,3.2218,3.2218,3.2218,3.2218,3.2218,3.2218,3.2218,3.2218,3.6301,3.7593,3.8943,3.8943,3.8943,3.922,4.0154,4.0485,4.069,4.1044,4.126,4.1327,4.1194,4.116,4.1648,4.3043,4.3559,4.3607,4.3071,4.285,4.2688,4.2688,4.2648,4.2648,4.2648,4.2459,4.2351,4.2351,4.2216,4.1845,4.1279,4.0525,3.9871,3.9349,3.8609,3.8202,3.8202,3.8202,3.8202,3.8202,3.8202,3.8202,3.8202,3.8202,3.8202,3.8202,3.8202,3.8202,3.8202,3.8202,3.8202,3.8202,3.8202,3.8202,3.8202,3.8202,3.8202,3.8202,3.8202,3.8202,3.8202,3.8202,3.8202,3.8202,3.8202,3.8202,3.7941,3.6592,3.6229,3.6025,3.4748,3.4414,3.4414,3.4414,3.4414,3.4414,3.4414,3.4414,3.4414,3.4414,3.4414,3.4414,3.4414,3.4414,3.438,3.4312,3.4025,3.377,3.3736,3.3736,3.3736,3.3736,3.3667,3.3667,3.3736,3.3409,3.3199,3.3129,3.281,3.2503,3.2218,3.2218,3.2218,3.2218,3.2218,3.2218,3.2218,3.2218,3.2218,3.2218,3.2218,3.2218,3.6705,3.7931,3.925,3.9844,3.992,3.996,4.0554,4.1162,4.1542,4.1525,4.1819,4.1949,4.1558,4.1492,4.195,4.339,4.3713,4.3792,4.3812,4.3354,4.301,4.301,4.293,4.2875,4.2875,4.2688,4.25,4.2392,4.231,4.191,4.1134,4.0466,3.9813,3.9218,3.8551,3.8202,3.8202,3.8202,3.8202,3.8202,3.8202,3.8202,3.8202,3.8202,3.8202,3.8202,3.8202,3.8202,3.8202,3.8202,3.8202,3.8202,3.8202,3.8202,3.8202,3.8202,3.8202,3.8202,3.8202,3.8202,3.8202,3.8202,3.8202,3.8202,3.8202,3.8202,3.7941,3.6664,3.6301,3.6025,3.4748,3.4414,3.4414,3.4414,3.4414,3.4414,3.4414,3.4414,3.4414,3.4414,3.4414,3.4414,3.4414,3.4414,3.4414,3.4414,3.423,3.4128,3.4128,3.4128,3.4128,3.4128,3.3908,3.3874,3.4128,3.377,3.3409,3.2988,3.281,3.2632,3.248,3.248,3.248,3.248,3.248,3.2372,3.2218,3.2218,3.2218,3.2218,3.2218,3.2218,3.7055,3.8216,3.9544,4.0631,4.0771,4.069,4.1062,4.1836,4.238,4.2045,4.2443,4.2648,4.2094,4.2141,4.2603,4.3663,4.3882,4.4153,4.4703,4.4066,4.3591,4.3591,4.3275,4.3076,4.3076,4.289,4.2688,4.2474,4.2433,4.196,4.0902,4.0379,3.9755,3.8986,3.8463,3.8202,3.8202,3.8202,3.8202,3.8202,3.8202,3.8202,3.8202,3.8202,3.8202,3.8202,3.8202,3.8202,3.8202,3.8202,3.8202,3.8202,3.8202,3.8202,3.8202,3.8202,3.8202,3.8202,3.8202,3.8202,3.8202,3.8202,3.8202,3.8202,3.8202,3.8101,3.7752,3.6635,3.6199,3.5836,3.4704,3.4414,3.4414,3.4414,3.4414,3.4414,3.4414,3.4414,3.4414,3.4414,3.4414,3.4414,3.4414,3.4414,3.4414,3.4414,3.4414,3.4414,3.4414,3.4414,3.4414,3.4414,3.4128,3.4059,3.438,3.4128,3.3667,3.2988,3.2881,3.2846,3.2846,3.2846,3.2846,3.2846,3.2846,3.2682,3.2314,3.2314,3.2277,3.2218,3.2218,3.2286,3.7055,3.8502,4.0065,4.1042,4.1243,4.1442,4.2285,4.2758,4.3113,4.3402,4.3492,4.3492,4.3462,4.399,4.4481,4.4528,4.509,4.5541,4.5602,4.4924,4.4412,4.4412,4.3732,4.329,4.329,4.3076,4.2915,4.2688,4.2514,4.1755,4.0234,4.0118,3.9538,3.8318,3.8231,3.8202,3.8202,3.8202,3.8202,3.8202,3.8202,3.8202,3.8202,3.8202,3.8202,3.8202,3.8202,3.8202,3.8202,3.8202,3.8202,3.8202,3.8202,3.8202,3.8202,3.8202,3.8202,3.8202,3.8202,3.8202,3.8202,3.8202,3.8202,3.8202,3.8202,3.781,3.723,3.6504,3.5894,3.5305,3.4588,3.4414,3.4414,3.4414,3.4414,3.4414,3.4414,3.4414,3.4414,3.4414,3.4414,3.4414,3.4414,3.4414,3.4414,3.4414,3.4414,3.4414,3.4414,3.4414,3.4414,3.4414,3.438,3.438,3.4414,3.438,3.4162,3.3736,3.3409,3.3269,3.3269,3.3269,3.3269,3.3269,3.3269,3.3058,3.2668,3.2668,3.2503,3.2218,3.2218,3.2504,3.7424,3.8922,4.0466,4.1508,4.211,4.2522,4.2836,4.3174,4.3462,4.3568,4.3598,4.3598,4.3598,4.3843,4.4167,4.4596,4.487,4.5188,4.564,4.5448,4.5073,4.4548,4.422,4.3849,4.3329,4.325,4.3076,4.2915,4.2425,4.1621,4.0427,3.9935,3.927,3.8231,3.8202,3.8202,3.8202,3.8202,3.8202,3.8202,3.8202,3.8202,3.8202,3.8202,3.8202,3.8202,3.8202,3.8202,3.8202,3.8202,3.8202,3.8202,3.8202,3.8202,3.8202,3.8202,3.8202,3.8202,3.8202,3.8202,3.8202,3.8202,3.8202,3.8202,3.8202,3.7781,3.7172,3.6504,3.5851,3.5261,3.4574,3.4414,3.4414,3.4414,3.4414,3.4414,3.4414,3.4414,3.4414,3.4414,3.4414,3.4414,3.4414,3.4414,3.4414,3.4414,3.4414,3.4414,3.4414,3.4414,3.4414,3.4414,3.4414,3.4414,3.4414,3.4414,3.4346,3.4162,3.3805,3.3632,3.3632,3.3632,3.3632,3.3632,3.3632,3.3409,3.3058,3.281,3.2632,3.2516,3.2695,3.2884,3.7681,3.9112,4.0569,4.1916,4.2601,4.3005,4.3204,4.3432,4.3598,4.3598,4.3598,4.3598,4.3598,4.3598,4.383,4.4572,4.4846,4.5228,4.5962,4.6049,4.5825,4.53,4.4812,4.4297,4.3732,4.3448,4.321,4.3036,4.2387,4.1592,4.0661,3.9924,3.9136,3.8306,3.824,3.8202,3.8202,3.8202,3.8202,3.8202,3.8202,3.8202,3.8202,3.8202,3.8202,3.8202,3.8202,3.8202,3.8202,3.8202,3.8202,3.8202,3.8202,3.8202,3.8202,3.8202,3.8202,3.8202,3.8202,3.8202,3.8202,3.8202,3.8202,3.8202,3.8202,3.7636,3.6896,3.6446,3.5706,3.5,3.453,3.4414,3.4414,3.4414,3.4414,3.4414,3.4414,3.4414,3.4414,3.4414,3.4414,3.4414,3.4414,3.4414,3.4414,3.4414,3.4414,3.4414,3.4414,3.4414,3.4414,3.4414,3.4414,3.4414,3.4414,3.4414,3.4414,3.4414,3.4128,3.3991,3.3991,3.3991,3.3991,3.3991,3.3991,3.3805,3.3444,3.3395,3.3231,3.2994,3.3385,3.367,3.7681,3.8907,4.0328,4.2142,4.2601,4.2772,4.3432,4.3598,4.3598,4.3598,4.3598,4.3598,4.3598,4.3598,4.383,4.4556,4.5301,4.6046,4.6792,4.6829,4.6811,4.6811,4.5447,4.4526,4.451,4.3771,4.325,4.3036,4.2372,4.1655,4.084,3.9985,3.9174,3.8508,3.8315,3.8202,3.8202,3.8202,3.8202,3.8202,3.8202,3.8202,3.8202,3.8202,3.8202,3.8202,3.8202,3.8202,3.8202,3.8202,3.8202,3.8202,3.8202,3.8202,3.8202,3.8202,3.8202,3.8202,3.8202,3.8202,3.8202,3.8202,3.8202,3.8202,3.8202,3.7317,3.6301,3.6301,3.5386,3.4414,3.4414,3.4414,3.4414,3.4414,3.4414,3.4414,3.4414,3.4414,3.4414,3.4414,3.4414,3.4414,3.4414,3.4414,3.4414,3.4414,3.4414,3.4414,3.4414,3.4414,3.4414,3.4414,3.4414,3.4414,3.4414,3.4414,3.4414,3.4414,3.4414,3.4414,3.4414,3.4414,3.4414,3.4414,3.4428,3.421,3.3819,3.4468,3.4412,3.3629,3.4302,3.491,3.7594,3.8809,4.005,4.1805,4.2601,4.3005,4.3204,4.3432,4.3598,4.3598,4.3598,4.3598,4.3598,4.3598,4.3664,4.388,4.4539,4.5268,4.6013,4.655,4.6864,4.6797,4.6394,4.5701,4.4624,4.4297,4.3873,4.325,4.2219,4.1426,4.1018,3.9861,3.9003,3.853,3.8441,3.8329,3.8202,3.8202,3.8202,3.8202,3.8202,3.8202,3.8202,3.8202,3.8202,3.8202,3.8202,3.8202,3.8202,3.8202,3.8202,3.8202,3.8202,3.8202,3.8202,3.8202,3.8202,3.8202,3.8202,3.8202,3.8202,3.8202,3.8202,3.8202,3.8202,3.7317,3.6301,3.6301,3.5386,3.4414,3.4414,3.4414,3.4414,3.4414,3.4414,3.4414,3.4414,3.4414,3.4414,3.4414,3.4414,3.4414,3.4414,3.4414,3.4414,3.4414,3.4414,3.4414,3.4414,3.4414,3.4414,3.4414,3.4414,3.4414,3.4414,3.4414,3.4414,3.4414,3.4414,3.4414,3.4414,3.4414,3.4414,3.4414,3.4849,3.5047,3.4929,3.5296,3.5395,3.5141,3.5503,3.5745,3.7319,3.8667,3.9992,4.1413,4.2349,4.2959,4.3235,4.3462,4.3598,4.3598,4.3598,4.3598,4.3598,4.3598,4.3598,4.3598,4.4224,4.4854,4.5284,4.6245,4.6879,4.6846,4.6837,4.6413,4.552,4.4871,4.4297,4.381,4.2294,4.1346,4.1247,3.9854,3.8958,3.8612,3.8553,3.8404,3.8202,3.8202,3.8202,3.8202,3.8202,3.8202,3.8202,3.8202,3.8202,3.8202,3.8202,3.8202,3.8202,3.8202,3.8202,3.8202,3.8202,3.8202,3.8202,3.8202,3.8202,3.8202,3.8202,3.8202,3.8202,3.8202,3.8202,3.8202,3.8202,3.7317,3.6301,3.6301,3.5386,3.4414,3.4414,3.4414,3.4414,3.4414,3.4414,3.4414,3.4414,3.4414,3.4414,3.4414,3.4414,3.4414,3.4414,3.4414,3.4414,3.4414,3.4414,3.4501,3.4762,3.4791,3.4893,3.514,3.5169,3.5169,3.5169,3.5169,3.5169,3.5169,3.5169,3.5169,3.5169,3.4922,3.4907,3.5154,3.5546,3.577,3.577,3.6187,3.6308,3.6176,3.6542,3.6712,3.7005,3.8492,4.0058,4.101,4.1916,4.279,4.3449,4.3598,4.3598,4.3598,4.3598,4.3598,4.3598,4.3598,4.3598,4.3598,4.4175,4.4605,4.4702,4.5897,4.6825,4.6891,4.6929,4.688,4.6811,4.552,4.4662,4.451,4.2622,4.1483,4.1407,3.998,3.9031,3.8819,3.8664,3.8441,3.824,3.824,3.8202,3.8202,3.8202,3.8202,3.8202,3.8202,3.8202,3.8202,3.8202,3.8202,3.8202,3.8202,3.8202,3.8202,3.8202,3.8202,3.8202,3.8202,3.8202,3.8202,3.8202,3.8202,3.8202,3.8202,3.8202,3.8202,3.8202,3.7317,3.6301,3.6301,3.5386,3.4414,3.4414,3.4414,3.4414,3.4414,3.4414,3.4414,3.4414,3.4414,3.4414,3.4414,3.4414,3.4414,3.4414,3.4414,3.4428,3.4486,3.4545,3.4791,3.5407,3.5479,3.5697,3.6243,3.6301,3.6301,3.6301,3.6301,3.6301,3.6301,3.6301,3.633,3.6402,3.5828,3.5755,3.6301,3.6359,3.6402,3.6402,3.707,3.7191,3.6857,3.7391,3.7649,3.6921,3.8176,3.9455,4.061,4.1769,4.279,4.3449,4.3598,4.3598,4.3598,4.3598,4.3598,4.3598,4.3598,4.3598,4.3598,4.3714,4.4042,4.4605,4.5467,4.6245,4.6825,4.7407,4.7471,4.6846,4.6499,4.5809,4.4586,4.31,4.2019,4.1422,4.0091,3.9228,3.9031,3.8995,3.8811,3.8441,3.8441,3.8366,3.8202,3.8202,3.8202,3.8202,3.8202,3.8202,3.8202,3.8202,3.8202,3.8202,3.8202,3.8202,3.8202,3.8202,3.8202,3.8202,3.8202,3.8202,3.8202,3.8202,3.8202,3.8202,3.8202,3.8202,3.8202,3.8202,3.7317,3.6301,3.6301,3.5386,3.4414,3.4414,3.4414,3.4414,3.4414,3.4414,3.4414,3.4414,3.4414,3.4414,3.4414,3.4414,3.4414,3.4414,3.4414,3.4588,3.5116,3.5575,3.5952,3.6083,3.6112,3.6156,3.6301,3.6301,3.6301,3.6301,3.6301,3.6301,3.6301,3.6301,3.6548,3.707,3.646,3.617,3.6301,3.6823,3.7085,3.7099,3.7709,3.7962,3.7887,3.7994,3.8052,3.6529,3.7654,3.8962,4.0616,4.1835,4.2728,4.3235,4.3492,4.3598,4.3598,4.3598,4.3598,4.3598,4.3598,4.3598,4.3598,4.3598,4.3714,4.4125,4.4804,4.5533,4.6278,4.7023,4.7456,4.7372,4.7033,4.6464,4.5665,4.3692,4.2318,4.1945,4.0332,3.9301,3.9104,3.9104,3.8922,3.8478,3.8478,3.8404,3.8202,3.8202,3.8202,3.8202,3.8202,3.8202,3.8202,3.8202,3.8202,3.8202,3.8202,3.8202,3.8202,3.8202,3.8202,3.8202,3.8202,3.8202,3.8202,3.8202,3.8202,3.8202,3.8202,3.8202,3.8202,3.8202,3.7317,3.6301,3.6301,3.5386,3.4414,3.4414,3.4414,3.4414,3.4414,3.4414,3.4414,3.4414,3.4414,3.4414,3.4414,3.4414,3.4414,3.4414,3.4661,3.5082,3.572,3.6098,3.6417,3.6751,3.678,3.6896,3.7186,3.7215,3.7215,3.7215,3.7215,3.7215,3.7215,3.7215,3.7375,3.7723,3.7404,3.7215,3.7215,3.7549,3.7738,3.7738,3.8043,3.8202,3.8202,3.8202,3.8202,3.5996,3.7093,3.8617,4.0754,4.1851,4.2507,4.299,4.3295,4.3539,4.3598,4.3598,4.3598,4.3598,4.3598,4.3598,4.3598,4.3598,4.3598,4.3598,4.4241,4.4953,4.5698,4.6444,4.7189,4.7934,4.7404,4.6965,4.6811,4.4248,4.2664,4.252,4.0519,3.9301,3.9141,3.9141,3.8958,3.8553,3.8553,3.8441,3.8202,3.8202,3.8202,3.8202,3.8202,3.8202,3.8202,3.8202,3.8202,3.8202,3.8202,3.8202,3.8202,3.8202,3.8202,3.8202,3.8202,3.8202,3.8202,3.8202,3.8202,3.8202,3.8202,3.8202,3.8202,3.8202,3.7404,3.646,3.6344,3.5473,3.4559,3.4443,3.4414,3.4414,3.4414,3.4414,3.4414,3.4414,3.4414,3.4414,3.4414,3.4501,3.4574,3.4574,3.5198,3.5915,3.6402,3.6562,3.6838,3.7389,3.7462,3.7651,3.8144,3.8202,3.8202,3.8202,3.8202,3.8202,3.8202,3.8202,3.8202,3.8202,3.8202,3.8202,3.8202,3.8202,3.8202,3.8202,3.8202,3.8202,3.8202,3.8202,3.8202,3.5508,3.679,3.8617,4.0754,4.1376,4.177,4.2851,4.3127,4.3235,4.3522,4.3598,4.3598,4.3598,4.3598,4.3598,4.3598,4.3598,4.3598,4.3598,4.4241,4.4953,4.5698,4.6444,4.7189,4.7934,4.7886,4.7555,4.6846,4.4788,4.3231,4.252,4.0519,3.9388,3.9337,3.9337,3.9192,3.8745,3.8745,3.8575,3.8202,3.8202,3.8202,3.8202,3.8202,3.8202,3.8202,3.8202,3.8202,3.8202,3.8202,3.8202,3.8202,3.8202,3.8202,3.8202,3.8202,3.8202,3.8202,3.8202,3.8202,3.8202,3.8202,3.8202,3.8202,3.8202,3.7723,3.7056,3.6475,3.5793,3.5145,3.4559,3.4414,3.4414,3.4414,3.4414,3.4414,3.4414,3.4414,3.4414,3.4414,3.4864,3.5276,3.5276,3.6243,3.707,3.7157,3.7622,3.7984,3.8072,3.8086,3.8115,3.8188,3.8202,3.8202,3.8202,3.8202,3.8202,3.8202,3.8202,3.8202,3.8202,3.8202,3.8202,3.8202,3.8202,3.8202,3.8202,3.8202,3.8202,3.8202,3.8202,3.8202,3.5586,3.696,3.8421,3.9738,4.0703,4.1442,4.1965,4.26,4.3143,4.3295,4.3462,4.3598,4.3598,4.3598,4.3598,4.3598,4.3598,4.3598,4.3598,4.3893,4.4506,4.5649,4.6079,4.6742,4.7885,4.8001,4.7853,4.7488,4.5516,4.3972,4.3231,4.1166,3.9824,3.9409,3.9388,3.9265,3.898,3.887,3.8612,3.8202,3.8202,3.8202,3.8202,3.8202,3.8202,3.8202,3.8202,3.8202,3.8202,3.8202,3.8202,3.8202,3.8202,3.8202,3.8202,3.8202,3.8202,3.8202,3.8202,3.8202,3.8202,3.8202,3.8202,3.8202,3.8202,3.7781,3.7244,3.6954,3.6402,3.5836,3.5546,3.5473,3.5386,3.5024,3.5212,3.5372,3.5024,3.4661,3.4516,3.4878,3.5459,3.6011,3.6388,3.6925,3.7418,3.7752,3.8028,3.8202,3.8202,3.8202,3.8202,3.8202,3.8202,3.8202,3.8202,3.8202,3.8202,3.8202,3.8202,3.8202,3.8202,3.8202,3.8202,3.8202,3.8202,3.8202,3.8202,3.8202,3.8202,3.8202,3.8202,3.8202,3.5652,3.6722,3.7656,3.8608,3.9681,4.064,4.1162,4.1997,4.271,4.2943,4.3235,4.3462,4.3462,4.3522,4.3598,4.3598,4.3598,4.3598,4.3598,4.3598,4.4158,4.5616,4.5798,4.6378,4.7868,4.8001,4.8001,4.8001,4.6159,4.4735,4.4022,4.1947,4.0434,3.9681,3.9481,3.9301,3.9104,3.8833,3.8612,3.8352,3.824,3.824,3.8277,3.8202,3.8202,3.8202,3.8202,3.8202,3.8202,3.8202,3.8202,3.8202,3.8202,3.8202,3.8202,3.8202,3.8202,3.8202,3.8202,3.8202,3.8202,3.8202,3.8202,3.8202,3.8202,3.7897,3.7506,3.7346,3.6954,3.6519,3.6344,3.6301,3.6199,3.5755,3.5967,3.6185,3.5741,3.5227,3.5038,3.5537,3.6127,3.6722,3.7215,3.7433,3.768,3.813,3.8202,3.8202,3.8202,3.8202,3.8202,3.8202,3.8202,3.8202,3.8202,3.8202,3.8202,3.8202,3.8202,3.8202,3.8202,3.8202,3.8202,3.8202,3.8202,3.8202,3.8202,3.8202,3.8202,3.8202,3.8202,3.8202,3.5436,3.5499,3.5959,3.7721,3.8195,3.8802,4.0852,4.1343,4.164,4.2459,4.2881,4.3143,4.3143,4.3402,4.3598,4.3598,4.3598,4.3598,4.3598,4.3598,4.4158,4.5616,4.5798,4.6378,4.7868,4.8001,4.8001,4.8001,4.6601,4.5452,4.4771,4.2692,4.121,4.0474,3.9753,3.9301,3.9104,3.8701,3.8612,3.8745,3.8389,3.8277,3.8478,3.8277,3.8202,3.8202,3.8202,3.8202,3.8202,3.8202,3.8202,3.8202,3.8202,3.8202,3.8202,3.8202,3.8202,3.8202,3.8202,3.8202,3.8202,3.8202,3.8202,3.8202,3.8202,3.8188,3.8028,3.7462,3.7288,3.7114,3.6475,3.6301,3.6301,3.6272,3.6286,3.6301,3.6272,3.6228,3.6214,3.6257,3.6794,3.7259,3.7302,3.7781,3.8159,3.8202,3.8202,3.8202,3.8202,3.8202,3.8202,3.8202,3.8202,3.8202,3.8202,3.8202,3.8202,3.8202,3.8202,3.8202,3.8202,3.8202,3.8202,3.8202,3.8202,3.8202,3.8202,3.8202,3.8202,3.8202,3.8202,3.8202,3.5253,3.5392,3.563,3.6702,3.7535,3.8316,3.9052,4.0021,4.0909,4.1624,4.2029,4.2443,4.3005,4.3372,4.3598,4.3598,4.3598,4.3598,4.3598,4.3598,4.3962,4.4953,4.55,4.6179,4.7206,4.7719,4.8001,4.8001,4.7061,4.6028,4.4853,4.3184,4.171,4.0528,3.9788,3.9301,3.9104,3.8958,3.8848,3.8782,3.8538,3.8516,3.8686,3.8352,3.8277,3.8404,3.8404,3.8315,3.8202,3.8202,3.8202,3.8202,3.8202,3.8202,3.8202,3.8202,3.8202,3.8202,3.8202,3.8202,3.8202,3.8202,3.8202,3.8202,3.8202,3.8202,3.8159,3.7941,3.7883,3.7862,3.774,3.7608,3.752,3.752,3.723,3.7056,3.7447,3.723,3.6954,3.6954,3.7462,3.7883,3.7883,3.8057,3.8202,3.8202,3.8202,3.8202,3.8202,3.8202,3.8202,3.8202,3.8202,3.8202,3.8202,3.8202,3.8202,3.8202,3.8202,3.8202,3.8202,3.8202,3.8202,3.8202,3.8202,3.8202,3.8202,3.8202,3.8202,3.8202,3.8202,3.8202,3.5369,3.5392,3.5508,3.5894,3.6605,3.7349,3.794,3.8888,3.9914,4.0927,4.1409,4.19,4.2758,4.3221,4.3462,4.3598,4.3598,4.3598,4.3598,4.3598,4.3863,4.4605,4.5334,4.6079,4.6825,4.757,4.8001,4.8001,4.7554,4.6632,4.5211,4.3975,4.2489,4.0578,4.0021,3.9574,3.9213,3.9141,3.9068,3.898,3.8738,3.8701,3.8907,3.856,3.8464,3.859,3.859,3.8427,3.8202,3.8277,3.824,3.8202,3.8202,3.8202,3.8202,3.8202,3.824,3.8277,3.8277,3.8277,3.8277,3.8277,3.824,3.8202,3.8202,3.8202,3.8202,3.8202,3.8202,3.824,3.8441,3.8427,3.8389,3.8389,3.8046,3.7797,3.819,3.792,3.7607,3.7607,3.7941,3.8202,3.8202,3.8202,3.8202,3.8202,3.8202,3.8202,3.8202,3.8202,3.8202,3.8202,3.8202,3.8202,3.8202,3.8202,3.8202,3.8202,3.8202,3.8202,3.8202,3.8202,3.8202,3.8202,3.8202,3.8202,3.8202,3.8202,3.8202,3.8202,3.8202,3.8202,0.0,0.0,0.0,3.5436,3.5436,3.591,3.7692,3.8094,3.8607,4.037,4.1005,4.1508,4.2397,4.2836,4.3174,4.3539,4.3598,4.3598,4.3598,4.3598,4.3876,4.4572,4.5334,4.6079,4.6792,4.7554,4.8001,4.8001,4.8001,4.7355,4.5864,4.513,4.3452,4.0627,4.0512,4.0146,3.946,3.9228,3.9228,3.9388,3.898,3.8907,3.9104,3.8907,3.8782,3.8819,3.8819,3.856,3.824,3.8441,3.8404,3.8202,3.8202,3.8202,3.8202,3.8202,3.8329,3.8478,3.8478,3.8516,3.8516,3.8516,3.8366,3.8202,3.8202,3.8202,3.8202,3.8202,3.8202,3.8277,3.8441,3.8649,3.8819,3.8782,3.8649,3.8516,3.8516,3.8366,3.8202,3.8202,3.8202,3.8202,3.8202,3.8202,3.8202,3.8202,3.8202,3.8202,3.8202,3.8202,3.8202,3.8202,3.8202,3.8202,3.8202,3.8202,3.8202,3.8202,3.8202,3.8202,3.8202,3.8202,3.8202,3.8202,3.8202,3.8202,3.8202,3.8202,3.8202,3.8202,3.8202,3.8202,3.6114,0.0,0.0,0.0,0.0,0.0,3.7419,3.7879,3.8451,3.937,3.9651,4.0115,4.1409,4.1738,4.2126,4.3066,4.3432,4.3598,4.3598,4.3598,4.3664,4.3893,4.5036,4.5864,4.6079,4.7255,4.8001,4.8001,4.8001,4.7355,4.5864,4.4165,4.2591,4.1276,4.0737,4.0409,4.0216,3.961,3.9337,3.9388,3.9141,3.9104,3.9301,3.8943,3.887,3.9017,3.9017,3.887,3.8634,3.8671,3.8612,3.8441,3.8575,3.8538,3.8404,3.8404,3.8441,3.8478,3.8478,3.859,3.8723,3.8723,3.8575,3.8441,3.8612,3.8538,3.8441,3.8612,3.8634,3.8649,3.8686,3.887,3.898,3.8819,3.876,3.8723,3.8723,3.8671,3.856,3.8277,3.8202,3.824,3.8404,3.8404,3.8404,3.8404,3.8404,3.8366,3.8202,3.8202,3.8202,3.8202,3.8202,3.8202,3.8202,3.8202,3.8202,3.8202,3.8202,3.8202,3.8202,3.8202,3.8202,3.8202,3.8202,3.8202,3.8202,3.8202,3.8202,3.8202,3.8202,3.8202,3.6736,3.6722,3.6664,3.6373,0.0,0.0,3.7244,3.7578,3.8083,3.8936,3.9104,3.9472,4.0721,4.0909,4.1311,4.2585,4.2943,4.3174,4.3568,4.3598,4.3598,4.3598,4.4903,4.5798,4.5798,4.7123,4.8001,4.8001,4.7719,4.6891,4.5417,4.3842,4.2679,4.1981,4.1591,4.1109,4.0512,4.0076,3.9717,3.9388,3.9265,3.9301,3.9388,3.9141,3.9104,3.9228,3.9228,3.9104,3.8943,3.9017,3.887,3.8664,3.8745,3.8723,3.8612,3.8612,3.8701,3.8738,3.8738,3.8848,3.8943,3.8943,3.8797,3.8649,3.8745,3.8723,3.8649,3.8745,3.887,3.8943,3.8943,3.9068,3.9177,3.9068,3.898,3.8943,3.8943,3.887,3.8708,3.8389,3.8389,3.8464,3.8478,3.859,3.8612,3.8612,3.8553,3.8441,3.8329,3.824,3.8202,3.8202,3.8202,3.8202,3.8202,3.8202,3.8202,3.8202,3.8202,3.8202,3.8202,3.8202,3.8202,3.8202,3.8202,3.8202,3.8202,3.8202,3.8202,3.8202,3.8202,3.8202,3.7549,3.7404,3.7259,3.6664,3.6519,0.0,3.7273,3.7404,3.7711,3.8767,3.8995,3.9256,4.0085,4.0259,4.0656,4.1868,4.211,4.2475,4.3462,4.3598,4.3598,4.3598,4.4837,4.5698,4.5781,4.7057,4.7918,4.8001,4.7239,4.6162,4.4754,4.4009,4.3342,4.271,4.2648,4.1997,4.0752,4.0581,4.0181,3.9517,3.946,3.9388,3.9388,3.9388,3.9388,3.9388,3.9388,3.9301,3.9141,3.9337,3.9177,3.8819,3.887,3.887,3.8819,3.8819,3.8943,3.9104,3.9104,3.9104,3.9141,3.9141,3.898,3.8819,3.887,3.887,3.8819,3.887,3.898,3.9141,3.9141,3.9265,3.9388,3.9388,3.9265,3.9141,3.9141,3.898,3.8797,3.8627,3.8686,3.876,3.859,3.8723,3.8819,3.8819,3.8686,3.8553,3.8553,3.8389,3.8277,3.824,3.824,3.8202,3.8202,3.8202,3.8202,3.8202,3.8202,3.8202,3.8202,3.8202,3.8202,3.8202,3.8202,3.8202,3.8202,3.8202,3.8202,3.8202,3.8202,3.8202,3.8057,3.8028,3.7999,3.7868,3.7839,0.0,3.7999,3.8028,3.8094,3.8323,3.8389,3.8575,3.922,3.9364,3.9657,4.0622,4.0927,4.1625,4.3355,4.3598,4.3598,4.3598,4.439,4.5135,4.5732,4.6593,4.7355,4.7968,4.6775,4.5616,4.4738,4.4009,4.3522,4.3402,4.2881,4.2491,4.219,4.1075,4.0409,4.0285,3.9681,3.9388,3.9388,3.9388,3.9388,3.9388,3.9388,3.9388,3.9337,3.9388,3.9265,3.9068,3.9228,3.9177,3.9031,3.9031,3.9068,3.9104,3.9104,3.9228,3.9337,3.9337,3.9228,3.9068,3.9228,3.9177,3.9068,3.9228,3.9301,3.9337,3.9337,3.9373,3.9388,3.9388,3.9373,3.9337,3.9337,3.9301,3.9228,3.9031,3.887,3.8833,3.8958,3.9031,3.9031,3.9031,3.9031,3.8922,3.876,3.8708,3.8612,3.8441,3.8441,3.8366,3.8202,3.8202,3.8202,3.8202,3.8202,3.8202,3.8202,3.8202,3.8202,3.8202,3.8202,3.8202,3.8202,3.8202,3.8202,3.8202,3.8202,3.8202,3.8202,3.8202,3.8202,3.8202,3.8202,0.0,0.0,3.8202,3.8202,3.8202,3.8202,3.8277,3.8612,3.8649,3.895,3.9859,4.0104,4.0625,4.2062,4.274,4.3235,4.3568,4.4257,4.4868,4.5202,4.5914,4.6344,4.6344,4.5665,4.492,4.4191,4.378,4.3598,4.3598,4.3265,4.2943,4.2617,4.1525,4.0839,4.0478,3.9753,3.9388,3.9388,3.9388,3.9388,3.9388,3.9388,3.9388,3.9388,3.9388,3.9337,3.9265,3.9337,3.9337,3.9265,3.9265,3.9265,3.9265,3.9265,3.9301,3.9388,3.9388,3.9337,3.9265,3.9373,3.9337,3.9265,3.9373,3.9388,3.9388,3.9388,3.9388,3.9388,3.9388,3.9388,3.9388,3.9388,3.9388,3.9373,3.9265,3.9177,3.9104,3.9104,3.9177,3.9265,3.9265,3.9141,3.9068,3.8943,3.887,3.8745,3.8649,3.8553,3.8441,3.8366,3.824,3.8202,3.8202,3.8202,3.8202,3.8202,3.8202,3.8202,3.8202,3.8202,3.8202,3.8202,3.8202,3.8202,3.8202,3.8202,3.8202,3.8202,3.8202,3.8202,3.8202,3.8202,3.8202,0.0,0.0,0.0,3.8202,3.8202,3.8202,3.8202,3.8202,3.8449,3.9211,3.9376,3.9718,4.0576,4.1511,4.2443,4.3265,4.4034,4.4522,4.4702,4.5483,4.5632,4.4785,4.4821,4.4522,4.3648,4.3598,4.3598,4.3598,4.3598,4.3325,4.2803,4.1917,4.1227,4.0668,3.9809,3.9388,3.9388,3.9388,3.9388,3.9388,3.9388,3.9388,3.9388,3.9388,3.9388,3.9388,3.9388,3.9388,3.9388,3.9388,3.9388,3.9388,3.9388,3.9388,3.9388,3.9388,3.9388,3.9388,3.9388,3.9388,3.9388,3.9388,3.9388,3.9388,3.9388,3.9388,3.9388,3.9388,3.9388,3.9388,3.9388,3.9388,3.9388,3.9388,3.9388,3.9337,3.9177,3.9301,3.9388,3.9388,3.9265,3.9141,3.9141,3.9017,3.8907,3.887,3.8701,3.859,3.8516,3.8366,3.824,3.8202,3.8202,3.8202,3.8202,3.8202,3.8202,3.8202,3.8202,3.8202,3.8202,3.8202,3.8202,3.8202,3.8202,3.8202,3.8202,3.8202,3.8202,3.8202,3.8202,3.8202,3.8202,0.0,3.8202,3.8202,0.0,3.8202,3.8202,0.0,0.0,3.8337,3.8501,3.8965,3.9889,4.0289,4.0974,4.2285,4.3209,4.3992,4.4622,4.5947,4.6195,4.4787,4.5301,4.5069,4.3664,4.3598,4.3598,4.3598,4.3598,4.3552,4.3492,4.219,4.1459,4.136,4.0041,3.9388,3.9388,3.9388,3.9388,3.9388,3.9388,3.9388,3.9388,3.9388,3.9388,3.9388,3.9388,3.9388,3.9388,3.9388,3.9388,3.9388,3.9388,3.9388,3.9388,3.9388,3.9388,3.9388,3.9388,3.9388,3.9388,3.9388,3.9388,3.9388,3.9388,3.9388,3.9388,3.9388,3.9388,3.9388,3.9388,3.9388,3.9388,3.9388,3.9388,3.9388,3.9373,3.9388,3.9388,3.9388,3.9388,3.9373,3.9373,3.9337,3.9265,3.9068,3.9068,3.8885,3.8516,3.8478,3.8404,3.8202,3.8202,3.8202,3.8202,3.8202,3.8202,3.8202,3.8202,3.8202,3.8202,3.8202,3.8202,3.8202,3.8202,3.8202,3.8202,3.8202,3.8202,3.8202,3.8202,3.8202,3.8202,3.8202,3.8202,3.8202,0.0,0.0,0.0,0.0,0.0,0.0,3.8277,3.8464,3.8877,3.955,4.0653,4.2285,4.2803,4.3289,4.3982,4.4638,4.4738,4.4125,4.4357,4.4244,4.3631,4.3598,4.3598,4.3598,4.3598,4.3598,4.3598,4.2205,4.1492,4.1492,4.0076,3.9388,3.9388,3.9388,3.9388,3.9388,3.9388,3.9388,3.9388,3.9388,3.9388,3.9388,3.9388,3.9388,3.9388,3.9388,3.9388,3.9388,3.9388,3.9388,3.9388,3.9388,3.9388,3.9388,3.9388,3.9388,3.9388,3.9388,3.9388,3.9388,3.9388,3.9388,3.9388,3.9388,3.9388,3.9388,3.9388,3.9388,3.9388,3.9388,3.9388,3.9388,3.9388,3.9388,3.9388,3.9388,3.9388,3.9388,3.9388,3.9388,3.9373,3.9265,3.9177,3.9031,3.8848,3.8627,3.8441,3.8366,3.824,3.8202,3.8202,3.8202,3.8202,3.8202,3.8202,3.8202,3.8202,3.8202,3.8202,3.8202,3.8202,3.8202,3.8277,3.8277,3.8277,3.8202,3.8202,3.8202,3.8202,3.8202,3.8202,3.8202,3.8202,0.0,0.0,0.0,3.8202,3.8202,0.0,3.824,3.8352,3.9096,4.0154,4.1673,4.2317,4.2772,4.3265,4.3674,4.3813,4.3615,4.378,4.3797,4.3615,4.3598,4.3598,4.3598,4.3598,4.3598,4.3598,4.2412,4.1787,4.1787,4.0374,3.9809,3.997,3.9589,3.9517,3.9681,3.9481,3.9388,3.9388,3.9388,3.9388,3.9388,3.9388,3.9388,3.9388,3.9388,3.9388,3.9388,3.9388,3.9388,3.9388,3.9388,3.9388,3.946,3.9646,3.9553,3.9445,3.9646,3.9553,3.9388,3.9388,3.9388,3.9388,3.9388,3.9388,3.9388,3.9388,3.9388,3.9388,3.9388,3.9388,3.9388,3.9388,3.9388,3.9388,3.9388,3.9388,3.9388,3.9388,3.9388,3.9388,3.9388,3.9265,3.9141,3.9104,3.8848,3.8627,3.8516,3.8366,3.824,3.8202,3.8202,3.8202,3.8202,3.8202,3.8202,3.8202,3.8202,3.8202,3.8202,3.8202,3.8202,3.8553,3.8478,3.8441,3.824,3.8202,3.8202,3.8202,3.8202,3.8202,3.8202,3.8202,3.8202,3.8202,3.8202,3.8202,3.8202,3.8202,0.0,0.0,3.8819,3.9133,3.9889,4.1542,4.2617,4.2617,4.3842,4.4373,4.3648,4.4257,4.4357,4.3631,4.3598,4.3598,4.3598,4.3598,4.3598,4.3598,4.2912,4.2554,4.2554,4.1142,4.0805,4.1393,4.0005,3.9788,4.0409,3.9717,3.9388,3.9388,3.9388,3.9388,3.9388,3.9388,3.9388,3.9388,3.9388,3.9388,3.9388,3.9388,3.9388,3.9388,3.9388,3.9388,3.9517,4.025,3.9985,3.9553,4.025,3.995,3.9388,3.9388,3.9388,3.9388,3.9388,3.9388,3.9388,3.9388,3.9388,3.9388,3.9388,3.9388,3.9388,3.9388,3.9388,3.9388,3.9388,3.9388,3.9388,3.9388,3.9388,3.9388,3.9388,3.9388,3.9301,3.9104,3.9104,3.8922,3.8516,3.8478,3.8404,3.8202,3.8202,3.8202,3.8202,3.8202,3.8202,3.8202,3.8202,3.8202,3.8202,3.8202,3.8202,3.8723,3.8686,3.8649,3.8441,3.8404,3.8366,3.824,3.8202,3.8202,3.8202,3.8202,3.8202,3.8202,3.8202,3.8202,3.8202,3.8202,3.824,0.0,3.8634,3.8929,3.9328,4.0842,4.2045,4.2554,4.3031,4.3389,4.3585,4.3813,4.3876,4.3615,4.3598,4.3598,4.3598,4.3598,4.3598,4.3598,4.2943,4.2617,4.2585,4.1624,4.1294,4.1459,4.0547,4.025,4.0443,3.9717,3.9388,3.9388,3.9388,3.9388,3.9388,3.9388,3.9388,3.9388,3.9388,3.9388,3.9388,3.9388,3.9388,3.9388,3.9388,3.9717,4.0181,4.0409,4.0634,4.0839,4.1093,4.0668,4.0111,4.0111,3.9788,3.9388,3.9388,3.9388,3.9388,3.9388,3.9388,3.9388,3.9388,3.9388,3.9388,3.9388,3.9388,3.9388,3.9388,3.9388,3.9388,3.9388,3.9388,3.9388,3.9388,3.9388,3.9373,3.9301,3.9177,3.8995,3.8723,3.8686,3.8612,3.8404,3.8404,3.8329,3.8202,3.8202,3.8202,3.8202,3.8202,3.8202,3.8202,3.8202,3.8202,3.8943,3.8907,3.887,3.8664,3.8627,3.8538,3.8352,3.8315,3.8315,3.8315,3.824,3.824,3.8389,3.8315,3.8202,3.8277,3.824,3.824,0.0,3.876,3.9068,3.9177,4.0359,4.1426,4.2158,4.2459,4.2881,4.3568,4.3598,4.3598,4.3598,4.3598,4.3598,4.3598,4.3598,4.3598,4.3598,4.3174,4.2943,4.2943,4.2221,4.2013,4.2221,4.1294,4.0873,4.0805,4.0111,3.9646,3.9388,3.9388,3.9388,3.9424,3.9681,3.9625,3.9388,3.9388,3.9388,3.9388,3.9388,3.9388,3.9388,3.9388,3.9879,4.0547,4.0771,4.116,4.1606,4.2122,4.1582,4.0867,4.0874,4.0329,3.9717,3.9445,3.9388,3.9388,3.9388,3.9388,3.9388,3.9388,3.9388,3.9388,3.9388,3.9388,3.9388,3.9388,3.9388,3.9388,3.9388,3.9388,3.9388,3.9388,3.9388,3.9388,3.9388,3.9265,3.9104,3.8907,3.8907,3.8833,3.8627,3.8627,3.8655,3.8777,3.8468,3.8431,3.8664,3.8356,3.8202,3.8202,3.8202,3.8202]}]]